<?xml version="1.0" encoding="UTF-8" standalone="no" ?>
<gpx xmlns="http://www.topografix.com/GPX/1/1" xmlns:xsi="http://www.w3.org/2001/XMLSchema-instance" xsi:schemaLocation="http://www.topografix.com/GPX/1/1 http://www.topografix.com/GPX/1/1/gpx.xsd" version="1.1" creator="VisuGPX - https://www.visugpx.com">
  <metadata>
    <name>rando vtt st jean de la blaquiere 25kms 2016</name>
    <desc><![CDATA[Un parcours somme toute roulant avec 2 descentes qui valent quand même le coup. La première avec des sauts où on peut envoyer du bois et la deuxième avec des passages un peu techniques.]]></desc>
  </metadata>
  <trk>
    <name><![CDATA[rando vtt st jean de la blaquiere 25kms 2016_1]]></name>
    <trkseg>
      <trkpt lat="43.71468" lon="3.42411">
        <ele>284</ele>
        <time>2016-05-01T06:36:08Z</time>
      </trkpt>
      <trkpt lat="43.71468" lon="3.42411">
        <ele>284</ele>
        <time>2016-05-01T06:37:55Z</time>
      </trkpt>
      <trkpt lat="43.71469" lon="3.42421">
        <ele>260.6</ele>
        <time>2016-05-01T06:37:57Z</time>
      </trkpt>
      <trkpt lat="43.7147" lon="3.42436">
        <ele>258</ele>
        <time>2016-05-01T06:38:00Z</time>
      </trkpt>
      <trkpt lat="43.71473" lon="3.42452">
        <ele>251.6</ele>
        <time>2016-05-01T06:38:02Z</time>
      </trkpt>
      <trkpt lat="43.71471" lon="3.42465">
        <ele>241.1</ele>
        <time>2016-05-01T06:38:04Z</time>
      </trkpt>
      <trkpt lat="43.71473" lon="3.42481">
        <ele>236</ele>
        <time>2016-05-01T06:38:06Z</time>
      </trkpt>
      <trkpt lat="43.71474" lon="3.42498">
        <ele>233.8</ele>
        <time>2016-05-01T06:38:08Z</time>
      </trkpt>
      <trkpt lat="43.71472" lon="3.42514">
        <ele>231.6</ele>
        <time>2016-05-01T06:38:10Z</time>
      </trkpt>
      <trkpt lat="43.71475" lon="3.42531">
        <ele>228.5</ele>
        <time>2016-05-01T06:38:12Z</time>
      </trkpt>
      <trkpt lat="43.71474" lon="3.42548">
        <ele>226.7</ele>
        <time>2016-05-01T06:38:14Z</time>
      </trkpt>
      <trkpt lat="43.71475" lon="3.42563">
        <ele>226.5</ele>
        <time>2016-05-01T06:38:16Z</time>
      </trkpt>
      <trkpt lat="43.71473" lon="3.42578">
        <ele>224.2</ele>
        <time>2016-05-01T06:38:18Z</time>
      </trkpt>
      <trkpt lat="43.71468" lon="3.4259">
        <ele>225.6</ele>
        <time>2016-05-01T06:38:20Z</time>
      </trkpt>
      <trkpt lat="43.71457" lon="3.426">
        <ele>226.1</ele>
        <time>2016-05-01T06:38:22Z</time>
      </trkpt>
      <trkpt lat="43.71448" lon="3.4261">
        <ele>226.6</ele>
        <time>2016-05-01T06:38:24Z</time>
      </trkpt>
      <trkpt lat="43.71442" lon="3.42619">
        <ele>230.2</ele>
        <time>2016-05-01T06:38:26Z</time>
      </trkpt>
      <trkpt lat="43.71435" lon="3.42629">
        <ele>230.8</ele>
        <time>2016-05-01T06:38:28Z</time>
      </trkpt>
      <trkpt lat="43.71428" lon="3.4264">
        <ele>230.3</ele>
        <time>2016-05-01T06:38:30Z</time>
      </trkpt>
      <trkpt lat="43.71423" lon="3.42648">
        <ele>230.3</ele>
        <time>2016-05-01T06:38:32Z</time>
      </trkpt>
      <trkpt lat="43.71417" lon="3.4266">
        <ele>229.2</ele>
        <time>2016-05-01T06:38:34Z</time>
      </trkpt>
      <trkpt lat="43.71412" lon="3.42671">
        <ele>228</ele>
        <time>2016-05-01T06:38:36Z</time>
      </trkpt>
      <trkpt lat="43.71409" lon="3.42685">
        <ele>227.8</ele>
        <time>2016-05-01T06:38:38Z</time>
      </trkpt>
      <trkpt lat="43.71406" lon="3.427">
        <ele>227</ele>
        <time>2016-05-01T06:38:40Z</time>
      </trkpt>
      <trkpt lat="43.71403" lon="3.42715">
        <ele>226.3</ele>
        <time>2016-05-01T06:38:42Z</time>
      </trkpt>
      <trkpt lat="43.714" lon="3.42729">
        <ele>225.3</ele>
        <time>2016-05-01T06:38:44Z</time>
      </trkpt>
      <trkpt lat="43.71397" lon="3.42743">
        <ele>222.6</ele>
        <time>2016-05-01T06:38:46Z</time>
      </trkpt>
      <trkpt lat="43.71395" lon="3.42752">
        <ele>221.2</ele>
        <time>2016-05-01T06:38:48Z</time>
      </trkpt>
      <trkpt lat="43.71393" lon="3.42765">
        <ele>220.8</ele>
        <time>2016-05-01T06:38:51Z</time>
      </trkpt>
      <trkpt lat="43.7139" lon="3.4278">
        <ele>220.7</ele>
        <time>2016-05-01T06:38:54Z</time>
      </trkpt>
      <trkpt lat="43.71388" lon="3.42793">
        <ele>220</ele>
        <time>2016-05-01T06:38:57Z</time>
      </trkpt>
      <trkpt lat="43.71387" lon="3.42803">
        <ele>219.5</ele>
        <time>2016-05-01T06:38:59Z</time>
      </trkpt>
      <trkpt lat="43.71385" lon="3.42817">
        <ele>218.7</ele>
        <time>2016-05-01T06:39:02Z</time>
      </trkpt>
      <trkpt lat="43.71384" lon="3.42829">
        <ele>217.9</ele>
        <time>2016-05-01T06:39:05Z</time>
      </trkpt>
      <trkpt lat="43.71383" lon="3.42841">
        <ele>217.2</ele>
        <time>2016-05-01T06:39:08Z</time>
      </trkpt>
      <trkpt lat="43.71383" lon="3.42851">
        <ele>216.6</ele>
        <time>2016-05-01T06:39:11Z</time>
      </trkpt>
      <trkpt lat="43.71385" lon="3.42863">
        <ele>216.2</ele>
        <time>2016-05-01T06:39:14Z</time>
      </trkpt>
      <trkpt lat="43.71388" lon="3.42876">
        <ele>216</ele>
        <time>2016-05-01T06:39:17Z</time>
      </trkpt>
      <trkpt lat="43.71391" lon="3.42889">
        <ele>216.1</ele>
        <time>2016-05-01T06:39:20Z</time>
      </trkpt>
      <trkpt lat="43.71395" lon="3.429">
        <ele>216.1</ele>
        <time>2016-05-01T06:39:23Z</time>
      </trkpt>
      <trkpt lat="43.714" lon="3.42912">
        <ele>216.2</ele>
        <time>2016-05-01T06:39:26Z</time>
      </trkpt>
      <trkpt lat="43.71402" lon="3.42922">
        <ele>216.3</ele>
        <time>2016-05-01T06:39:28Z</time>
      </trkpt>
      <trkpt lat="43.71407" lon="3.42934">
        <ele>216.4</ele>
        <time>2016-05-01T06:39:31Z</time>
      </trkpt>
      <trkpt lat="43.7141" lon="3.42943">
        <ele>216.4</ele>
        <time>2016-05-01T06:39:34Z</time>
      </trkpt>
      <trkpt lat="43.71413" lon="3.42953">
        <ele>216.7</ele>
        <time>2016-05-01T06:39:37Z</time>
      </trkpt>
      <trkpt lat="43.71415" lon="3.42963">
        <ele>217.2</ele>
        <time>2016-05-01T06:39:40Z</time>
      </trkpt>
      <trkpt lat="43.71418" lon="3.42975">
        <ele>217.6</ele>
        <time>2016-05-01T06:39:43Z</time>
      </trkpt>
      <trkpt lat="43.71421" lon="3.42988">
        <ele>217.9</ele>
        <time>2016-05-01T06:39:46Z</time>
      </trkpt>
      <trkpt lat="43.71423" lon="3.43003">
        <ele>218.2</ele>
        <time>2016-05-01T06:39:49Z</time>
      </trkpt>
      <trkpt lat="43.71425" lon="3.43017">
        <ele>218.4</ele>
        <time>2016-05-01T06:39:52Z</time>
      </trkpt>
      <trkpt lat="43.71425" lon="3.4303">
        <ele>218.3</ele>
        <time>2016-05-01T06:39:55Z</time>
      </trkpt>
      <trkpt lat="43.71425" lon="3.43044">
        <ele>218.4</ele>
        <time>2016-05-01T06:39:58Z</time>
      </trkpt>
      <trkpt lat="43.71425" lon="3.43058">
        <ele>218.4</ele>
        <time>2016-05-01T06:40:01Z</time>
      </trkpt>
      <trkpt lat="43.71426" lon="3.43069">
        <ele>218.5</ele>
        <time>2016-05-01T06:40:04Z</time>
      </trkpt>
      <trkpt lat="43.71428" lon="3.43083">
        <ele>218.5</ele>
        <time>2016-05-01T06:40:07Z</time>
      </trkpt>
      <trkpt lat="43.71427" lon="3.43096">
        <ele>218.5</ele>
        <time>2016-05-01T06:40:10Z</time>
      </trkpt>
      <trkpt lat="43.71426" lon="3.43109">
        <ele>219.1</ele>
        <time>2016-05-01T06:40:13Z</time>
      </trkpt>
      <trkpt lat="43.71426" lon="3.43119">
        <ele>219</ele>
        <time>2016-05-01T06:40:15Z</time>
      </trkpt>
      <trkpt lat="43.71425" lon="3.4313">
        <ele>219.7</ele>
        <time>2016-05-01T06:40:17Z</time>
      </trkpt>
      <trkpt lat="43.71429" lon="3.4314">
        <ele>220</ele>
        <time>2016-05-01T06:40:19Z</time>
      </trkpt>
      <trkpt lat="43.71436" lon="3.43143">
        <ele>220.4</ele>
        <time>2016-05-01T06:40:21Z</time>
      </trkpt>
      <trkpt lat="43.71445" lon="3.43142">
        <ele>221</ele>
        <time>2016-05-01T06:40:23Z</time>
      </trkpt>
      <trkpt lat="43.71453" lon="3.43142">
        <ele>221.9</ele>
        <time>2016-05-01T06:40:26Z</time>
      </trkpt>
      <trkpt lat="43.71463" lon="3.43142">
        <ele>222.4</ele>
        <time>2016-05-01T06:40:29Z</time>
      </trkpt>
      <trkpt lat="43.71471" lon="3.43142">
        <ele>223.8</ele>
        <time>2016-05-01T06:40:32Z</time>
      </trkpt>
      <trkpt lat="43.7148" lon="3.43142">
        <ele>224.3</ele>
        <time>2016-05-01T06:40:36Z</time>
      </trkpt>
      <trkpt lat="43.71487" lon="3.43139">
        <ele>224.5</ele>
        <time>2016-05-01T06:40:40Z</time>
      </trkpt>
      <trkpt lat="43.71494" lon="3.43133">
        <ele>224.9</ele>
        <time>2016-05-01T06:40:44Z</time>
      </trkpt>
      <trkpt lat="43.71496" lon="3.43124">
        <ele>225.1</ele>
        <time>2016-05-01T06:40:49Z</time>
      </trkpt>
      <trkpt lat="43.71497" lon="3.43112">
        <ele>225.1</ele>
        <time>2016-05-01T06:40:53Z</time>
      </trkpt>
      <trkpt lat="43.71499" lon="3.43101">
        <ele>225</ele>
        <time>2016-05-01T06:40:56Z</time>
      </trkpt>
      <trkpt lat="43.71503" lon="3.43091">
        <ele>224.8</ele>
        <time>2016-05-01T06:40:59Z</time>
      </trkpt>
      <trkpt lat="43.71508" lon="3.43082">
        <ele>224.7</ele>
        <time>2016-05-01T06:41:02Z</time>
      </trkpt>
      <trkpt lat="43.71515" lon="3.43073">
        <ele>225</ele>
        <time>2016-05-01T06:41:06Z</time>
      </trkpt>
      <trkpt lat="43.71521" lon="3.43065">
        <ele>225.2</ele>
        <time>2016-05-01T06:41:09Z</time>
      </trkpt>
      <trkpt lat="43.71529" lon="3.43061">
        <ele>225.4</ele>
        <time>2016-05-01T06:41:12Z</time>
      </trkpt>
      <trkpt lat="43.71538" lon="3.43062">
        <ele>225.9</ele>
        <time>2016-05-01T06:41:16Z</time>
      </trkpt>
      <trkpt lat="43.71546" lon="3.43065">
        <ele>226.6</ele>
        <time>2016-05-01T06:41:20Z</time>
      </trkpt>
      <trkpt lat="43.71554" lon="3.43068">
        <ele>226.8</ele>
        <time>2016-05-01T06:41:23Z</time>
      </trkpt>
      <trkpt lat="43.71563" lon="3.43071">
        <ele>227.2</ele>
        <time>2016-05-01T06:41:27Z</time>
      </trkpt>
      <trkpt lat="43.7157" lon="3.43076">
        <ele>227.5</ele>
        <time>2016-05-01T06:41:30Z</time>
      </trkpt>
      <trkpt lat="43.71579" lon="3.43082">
        <ele>227.7</ele>
        <time>2016-05-01T06:41:34Z</time>
      </trkpt>
      <trkpt lat="43.71587" lon="3.43087">
        <ele>227.9</ele>
        <time>2016-05-01T06:41:38Z</time>
      </trkpt>
      <trkpt lat="43.71595" lon="3.43094">
        <ele>228.5</ele>
        <time>2016-05-01T06:41:42Z</time>
      </trkpt>
      <trkpt lat="43.71603" lon="3.431">
        <ele>228.8</ele>
        <time>2016-05-01T06:41:45Z</time>
      </trkpt>
      <trkpt lat="43.7161" lon="3.43109">
        <ele>229.3</ele>
        <time>2016-05-01T06:41:49Z</time>
      </trkpt>
      <trkpt lat="43.71615" lon="3.43116">
        <ele>229.7</ele>
        <time>2016-05-01T06:41:52Z</time>
      </trkpt>
      <trkpt lat="43.71623" lon="3.43124">
        <ele>230.3</ele>
        <time>2016-05-01T06:41:56Z</time>
      </trkpt>
      <trkpt lat="43.71629" lon="3.43131">
        <ele>230.7</ele>
        <time>2016-05-01T06:41:59Z</time>
      </trkpt>
      <trkpt lat="43.71635" lon="3.43139">
        <ele>231.1</ele>
        <time>2016-05-01T06:42:02Z</time>
      </trkpt>
      <trkpt lat="43.7164" lon="3.43147">
        <ele>231.7</ele>
        <time>2016-05-01T06:42:05Z</time>
      </trkpt>
      <trkpt lat="43.71646" lon="3.43155">
        <ele>232.4</ele>
        <time>2016-05-01T06:42:08Z</time>
      </trkpt>
      <trkpt lat="43.7165" lon="3.43164">
        <ele>233</ele>
        <time>2016-05-01T06:42:11Z</time>
      </trkpt>
      <trkpt lat="43.71647" lon="3.43174">
        <ele>233.5</ele>
        <time>2016-05-01T06:42:14Z</time>
      </trkpt>
      <trkpt lat="43.71642" lon="3.43182">
        <ele>233.6</ele>
        <time>2016-05-01T06:42:16Z</time>
      </trkpt>
      <trkpt lat="43.71636" lon="3.43189">
        <ele>233.8</ele>
        <time>2016-05-01T06:42:18Z</time>
      </trkpt>
      <trkpt lat="43.7163" lon="3.43195">
        <ele>234.3</ele>
        <time>2016-05-01T06:42:20Z</time>
      </trkpt>
      <trkpt lat="43.71623" lon="3.43202">
        <ele>234.4</ele>
        <time>2016-05-01T06:42:22Z</time>
      </trkpt>
      <trkpt lat="43.71615" lon="3.43212">
        <ele>234</ele>
        <time>2016-05-01T06:42:25Z</time>
      </trkpt>
      <trkpt lat="43.71611" lon="3.4322">
        <ele>233.8</ele>
        <time>2016-05-01T06:42:27Z</time>
      </trkpt>
      <trkpt lat="43.71604" lon="3.43231">
        <ele>233.7</ele>
        <time>2016-05-01T06:42:30Z</time>
      </trkpt>
      <trkpt lat="43.71601" lon="3.43241">
        <ele>233.6</ele>
        <time>2016-05-01T06:42:34Z</time>
      </trkpt>
      <trkpt lat="43.71597" lon="3.43251">
        <ele>233.7</ele>
        <time>2016-05-01T06:42:37Z</time>
      </trkpt>
      <trkpt lat="43.71597" lon="3.43263">
        <ele>234</ele>
        <time>2016-05-01T06:42:40Z</time>
      </trkpt>
      <trkpt lat="43.71596" lon="3.43275">
        <ele>234.7</ele>
        <time>2016-05-01T06:42:44Z</time>
      </trkpt>
      <trkpt lat="43.71592" lon="3.43287">
        <ele>235.3</ele>
        <time>2016-05-01T06:42:48Z</time>
      </trkpt>
      <trkpt lat="43.71591" lon="3.43301">
        <ele>236.2</ele>
        <time>2016-05-01T06:42:52Z</time>
      </trkpt>
      <trkpt lat="43.71591" lon="3.43312">
        <ele>237.3</ele>
        <time>2016-05-01T06:42:57Z</time>
      </trkpt>
      <trkpt lat="43.71597" lon="3.43321">
        <ele>238.6</ele>
        <time>2016-05-01T06:43:02Z</time>
      </trkpt>
      <trkpt lat="43.71605" lon="3.43328">
        <ele>239.6</ele>
        <time>2016-05-01T06:43:06Z</time>
      </trkpt>
      <trkpt lat="43.71612" lon="3.43335">
        <ele>240.6</ele>
        <time>2016-05-01T06:43:10Z</time>
      </trkpt>
      <trkpt lat="43.71619" lon="3.43341">
        <ele>241.1</ele>
        <time>2016-05-01T06:43:13Z</time>
      </trkpt>
      <trkpt lat="43.71624" lon="3.43351">
        <ele>241.7</ele>
        <time>2016-05-01T06:43:17Z</time>
      </trkpt>
      <trkpt lat="43.71623" lon="3.43362">
        <ele>242.3</ele>
        <time>2016-05-01T06:43:20Z</time>
      </trkpt>
      <trkpt lat="43.71622" lon="3.43373">
        <ele>243.2</ele>
        <time>2016-05-01T06:43:24Z</time>
      </trkpt>
      <trkpt lat="43.71623" lon="3.43383">
        <ele>243.7</ele>
        <time>2016-05-01T06:43:27Z</time>
      </trkpt>
      <trkpt lat="43.71628" lon="3.43394">
        <ele>244.2</ele>
        <time>2016-05-01T06:43:31Z</time>
      </trkpt>
      <trkpt lat="43.71634" lon="3.43405">
        <ele>244.7</ele>
        <time>2016-05-01T06:43:35Z</time>
      </trkpt>
      <trkpt lat="43.7164" lon="3.43411">
        <ele>245</ele>
        <time>2016-05-01T06:43:38Z</time>
      </trkpt>
      <trkpt lat="43.71648" lon="3.43417">
        <ele>245.4</ele>
        <time>2016-05-01T06:43:42Z</time>
      </trkpt>
      <trkpt lat="43.71655" lon="3.43424">
        <ele>245.8</ele>
        <time>2016-05-01T06:43:46Z</time>
      </trkpt>
      <trkpt lat="43.71663" lon="3.43432">
        <ele>246.1</ele>
        <time>2016-05-01T06:43:50Z</time>
      </trkpt>
      <trkpt lat="43.71671" lon="3.43439">
        <ele>246.8</ele>
        <time>2016-05-01T06:43:54Z</time>
      </trkpt>
      <trkpt lat="43.71678" lon="3.43445">
        <ele>247.3</ele>
        <time>2016-05-01T06:43:57Z</time>
      </trkpt>
      <trkpt lat="43.71684" lon="3.43452">
        <ele>247.6</ele>
        <time>2016-05-01T06:44:01Z</time>
      </trkpt>
      <trkpt lat="43.71688" lon="3.43461">
        <ele>248</ele>
        <time>2016-05-01T06:44:04Z</time>
      </trkpt>
      <trkpt lat="43.7169" lon="3.43473">
        <ele>248.6</ele>
        <time>2016-05-01T06:44:08Z</time>
      </trkpt>
      <trkpt lat="43.7169" lon="3.43485">
        <ele>249.1</ele>
        <time>2016-05-01T06:44:11Z</time>
      </trkpt>
      <trkpt lat="43.71688" lon="3.43495">
        <ele>249.5</ele>
        <time>2016-05-01T06:44:14Z</time>
      </trkpt>
      <trkpt lat="43.71687" lon="3.43505">
        <ele>250</ele>
        <time>2016-05-01T06:44:17Z</time>
      </trkpt>
      <trkpt lat="43.71688" lon="3.43517">
        <ele>250.8</ele>
        <time>2016-05-01T06:44:21Z</time>
      </trkpt>
      <trkpt lat="43.71688" lon="3.43528">
        <ele>251.4</ele>
        <time>2016-05-01T06:44:24Z</time>
      </trkpt>
      <trkpt lat="43.71692" lon="3.43539">
        <ele>252</ele>
        <time>2016-05-01T06:44:28Z</time>
      </trkpt>
      <trkpt lat="43.71696" lon="3.43549">
        <ele>252.5</ele>
        <time>2016-05-01T06:44:31Z</time>
      </trkpt>
      <trkpt lat="43.71699" lon="3.43562">
        <ele>253</ele>
        <time>2016-05-01T06:44:34Z</time>
      </trkpt>
      <trkpt lat="43.71703" lon="3.43571">
        <ele>253.5</ele>
        <time>2016-05-01T06:44:37Z</time>
      </trkpt>
      <trkpt lat="43.71707" lon="3.43581">
        <ele>254.2</ele>
        <time>2016-05-01T06:44:40Z</time>
      </trkpt>
      <trkpt lat="43.71711" lon="3.4359">
        <ele>254.9</ele>
        <time>2016-05-01T06:44:43Z</time>
      </trkpt>
      <trkpt lat="43.71716" lon="3.43599">
        <ele>255.4</ele>
        <time>2016-05-01T06:44:46Z</time>
      </trkpt>
      <trkpt lat="43.71721" lon="3.43607">
        <ele>256.1</ele>
        <time>2016-05-01T06:44:49Z</time>
      </trkpt>
      <trkpt lat="43.71727" lon="3.43615">
        <ele>256.6</ele>
        <time>2016-05-01T06:44:52Z</time>
      </trkpt>
      <trkpt lat="43.71732" lon="3.43623">
        <ele>257.1</ele>
        <time>2016-05-01T06:44:55Z</time>
      </trkpt>
      <trkpt lat="43.71738" lon="3.43632">
        <ele>257.8</ele>
        <time>2016-05-01T06:44:58Z</time>
      </trkpt>
      <trkpt lat="43.71745" lon="3.43641">
        <ele>258.3</ele>
        <time>2016-05-01T06:45:01Z</time>
      </trkpt>
      <trkpt lat="43.71749" lon="3.43652">
        <ele>258.7</ele>
        <time>2016-05-01T06:45:04Z</time>
      </trkpt>
      <trkpt lat="43.71751" lon="3.43665">
        <ele>259.2</ele>
        <time>2016-05-01T06:45:07Z</time>
      </trkpt>
      <trkpt lat="43.71751" lon="3.43676">
        <ele>259.9</ele>
        <time>2016-05-01T06:45:10Z</time>
      </trkpt>
      <trkpt lat="43.71753" lon="3.43689">
        <ele>260.7</ele>
        <time>2016-05-01T06:45:14Z</time>
      </trkpt>
      <trkpt lat="43.71752" lon="3.43699">
        <ele>261.3</ele>
        <time>2016-05-01T06:45:17Z</time>
      </trkpt>
      <trkpt lat="43.71755" lon="3.4371">
        <ele>262.1</ele>
        <time>2016-05-01T06:45:21Z</time>
      </trkpt>
      <trkpt lat="43.71757" lon="3.43721">
        <ele>262.8</ele>
        <time>2016-05-01T06:45:24Z</time>
      </trkpt>
      <trkpt lat="43.7176" lon="3.43732">
        <ele>263.3</ele>
        <time>2016-05-01T06:45:27Z</time>
      </trkpt>
      <trkpt lat="43.71764" lon="3.43741">
        <ele>263.9</ele>
        <time>2016-05-01T06:45:31Z</time>
      </trkpt>
      <trkpt lat="43.71772" lon="3.43745">
        <ele>264.5</ele>
        <time>2016-05-01T06:45:36Z</time>
      </trkpt>
      <trkpt lat="43.71781" lon="3.43748">
        <ele>265.5</ele>
        <time>2016-05-01T06:45:41Z</time>
      </trkpt>
      <trkpt lat="43.71789" lon="3.43751">
        <ele>266.5</ele>
        <time>2016-05-01T06:45:46Z</time>
      </trkpt>
      <trkpt lat="43.71798" lon="3.43755">
        <ele>267.5</ele>
        <time>2016-05-01T06:45:51Z</time>
      </trkpt>
      <trkpt lat="43.71806" lon="3.43756">
        <ele>268.1</ele>
        <time>2016-05-01T06:45:55Z</time>
      </trkpt>
      <trkpt lat="43.71813" lon="3.43755">
        <ele>268.5</ele>
        <time>2016-05-01T06:45:59Z</time>
      </trkpt>
      <trkpt lat="43.71821" lon="3.43757">
        <ele>269</ele>
        <time>2016-05-01T06:46:03Z</time>
      </trkpt>
      <trkpt lat="43.7183" lon="3.43758">
        <ele>269.3</ele>
        <time>2016-05-01T06:46:07Z</time>
      </trkpt>
      <trkpt lat="43.71839" lon="3.43761">
        <ele>270.1</ele>
        <time>2016-05-01T06:46:11Z</time>
      </trkpt>
      <trkpt lat="43.71847" lon="3.43764">
        <ele>270.6</ele>
        <time>2016-05-01T06:46:14Z</time>
      </trkpt>
      <trkpt lat="43.71857" lon="3.43769">
        <ele>271.4</ele>
        <time>2016-05-01T06:46:17Z</time>
      </trkpt>
      <trkpt lat="43.71864" lon="3.43777">
        <ele>271.8</ele>
        <time>2016-05-01T06:46:20Z</time>
      </trkpt>
      <trkpt lat="43.71872" lon="3.43782">
        <ele>272.5</ele>
        <time>2016-05-01T06:46:24Z</time>
      </trkpt>
      <trkpt lat="43.7188" lon="3.4378">
        <ele>273.1</ele>
        <time>2016-05-01T06:46:28Z</time>
      </trkpt>
      <trkpt lat="43.71888" lon="3.43776">
        <ele>273.7</ele>
        <time>2016-05-01T06:46:33Z</time>
      </trkpt>
      <trkpt lat="43.71896" lon="3.43771">
        <ele>274.3</ele>
        <time>2016-05-01T06:46:38Z</time>
      </trkpt>
      <trkpt lat="43.71904" lon="3.43766">
        <ele>274.7</ele>
        <time>2016-05-01T06:46:42Z</time>
      </trkpt>
      <trkpt lat="43.71912" lon="3.43761">
        <ele>275.1</ele>
        <time>2016-05-01T06:46:46Z</time>
      </trkpt>
      <trkpt lat="43.71919" lon="3.4376">
        <ele>275.5</ele>
        <time>2016-05-01T06:46:49Z</time>
      </trkpt>
      <trkpt lat="43.71929" lon="3.4376">
        <ele>276.1</ele>
        <time>2016-05-01T06:46:53Z</time>
      </trkpt>
      <trkpt lat="43.71931" lon="3.43771">
        <ele>276.8</ele>
        <time>2016-05-01T06:46:58Z</time>
      </trkpt>
      <trkpt lat="43.71927" lon="3.43781">
        <ele>277.7</ele>
        <time>2016-05-01T06:47:03Z</time>
      </trkpt>
      <trkpt lat="43.71919" lon="3.43788">
        <ele>278.2</ele>
        <time>2016-05-01T06:47:07Z</time>
      </trkpt>
      <trkpt lat="43.71912" lon="3.43792">
        <ele>278.3</ele>
        <time>2016-05-01T06:47:09Z</time>
      </trkpt>
      <trkpt lat="43.71903" lon="3.43796">
        <ele>279.7</ele>
        <time>2016-05-01T06:47:11Z</time>
      </trkpt>
      <trkpt lat="43.71892" lon="3.43803">
        <ele>280.3</ele>
        <time>2016-05-01T06:47:13Z</time>
      </trkpt>
      <trkpt lat="43.71879" lon="3.43809">
        <ele>280.3</ele>
        <time>2016-05-01T06:47:15Z</time>
      </trkpt>
      <trkpt lat="43.71867" lon="3.43815">
        <ele>279.4</ele>
        <time>2016-05-01T06:47:17Z</time>
      </trkpt>
      <trkpt lat="43.71858" lon="3.4382">
        <ele>278.9</ele>
        <time>2016-05-01T06:47:19Z</time>
      </trkpt>
      <trkpt lat="43.71851" lon="3.43823">
        <ele>278.4</ele>
        <time>2016-05-01T06:47:21Z</time>
      </trkpt>
      <trkpt lat="43.71844" lon="3.43828">
        <ele>277.5</ele>
        <time>2016-05-01T06:47:23Z</time>
      </trkpt>
      <trkpt lat="43.71837" lon="3.43832">
        <ele>278</ele>
        <time>2016-05-01T06:47:25Z</time>
      </trkpt>
      <trkpt lat="43.7183" lon="3.43836">
        <ele>277.8</ele>
        <time>2016-05-01T06:47:28Z</time>
      </trkpt>
      <trkpt lat="43.71822" lon="3.4384">
        <ele>277.8</ele>
        <time>2016-05-01T06:47:33Z</time>
      </trkpt>
      <trkpt lat="43.71816" lon="3.43847">
        <ele>278.3</ele>
        <time>2016-05-01T06:47:38Z</time>
      </trkpt>
      <trkpt lat="43.71814" lon="3.43859">
        <ele>279</ele>
        <time>2016-05-01T06:47:42Z</time>
      </trkpt>
      <trkpt lat="43.71815" lon="3.4387">
        <ele>279.7</ele>
        <time>2016-05-01T06:47:45Z</time>
      </trkpt>
      <trkpt lat="43.71816" lon="3.43882">
        <ele>280.8</ele>
        <time>2016-05-01T06:47:49Z</time>
      </trkpt>
      <trkpt lat="43.71818" lon="3.43892">
        <ele>281.9</ele>
        <time>2016-05-01T06:47:53Z</time>
      </trkpt>
      <trkpt lat="43.71821" lon="3.43903">
        <ele>283.4</ele>
        <time>2016-05-01T06:47:58Z</time>
      </trkpt>
      <trkpt lat="43.71826" lon="3.43912">
        <ele>284.5</ele>
        <time>2016-05-01T06:48:02Z</time>
      </trkpt>
      <trkpt lat="43.71834" lon="3.43921">
        <ele>286</ele>
        <time>2016-05-01T06:48:07Z</time>
      </trkpt>
      <trkpt lat="43.7184" lon="3.43932">
        <ele>289.2</ele>
        <time>2016-05-01T06:48:10Z</time>
      </trkpt>
      <trkpt lat="43.71836" lon="3.43944">
        <ele>292.3</ele>
        <time>2016-05-01T06:48:12Z</time>
      </trkpt>
      <trkpt lat="43.71829" lon="3.43951">
        <ele>292.5</ele>
        <time>2016-05-01T06:48:14Z</time>
      </trkpt>
      <trkpt lat="43.71822" lon="3.43955">
        <ele>292.7</ele>
        <time>2016-05-01T06:48:16Z</time>
      </trkpt>
      <trkpt lat="43.71815" lon="3.43959">
        <ele>292</ele>
        <time>2016-05-01T06:48:18Z</time>
      </trkpt>
      <trkpt lat="43.7181" lon="3.43969">
        <ele>291.2</ele>
        <time>2016-05-01T06:48:20Z</time>
      </trkpt>
      <trkpt lat="43.71806" lon="3.43979">
        <ele>290.5</ele>
        <time>2016-05-01T06:48:23Z</time>
      </trkpt>
      <trkpt lat="43.71801" lon="3.43988">
        <ele>290.4</ele>
        <time>2016-05-01T06:48:26Z</time>
      </trkpt>
      <trkpt lat="43.71793" lon="3.43997">
        <ele>290.6</ele>
        <time>2016-05-01T06:48:29Z</time>
      </trkpt>
      <trkpt lat="43.71786" lon="3.44008">
        <ele>291</ele>
        <time>2016-05-01T06:48:31Z</time>
      </trkpt>
      <trkpt lat="43.71776" lon="3.44023">
        <ele>290.6</ele>
        <time>2016-05-01T06:48:33Z</time>
      </trkpt>
      <trkpt lat="43.71767" lon="3.44036">
        <ele>289.9</ele>
        <time>2016-05-01T06:48:35Z</time>
      </trkpt>
      <trkpt lat="43.71761" lon="3.44044">
        <ele>288</ele>
        <time>2016-05-01T06:48:37Z</time>
      </trkpt>
      <trkpt lat="43.71764" lon="3.44054">
        <ele>287.8</ele>
        <time>2016-05-01T06:48:42Z</time>
      </trkpt>
      <trkpt lat="43.71773" lon="3.44054">
        <ele>288</ele>
        <time>2016-05-01T06:48:46Z</time>
      </trkpt>
      <trkpt lat="43.71781" lon="3.44055">
        <ele>288.3</ele>
        <time>2016-05-01T06:48:50Z</time>
      </trkpt>
      <trkpt lat="43.71789" lon="3.4406">
        <ele>288.8</ele>
        <time>2016-05-01T06:48:54Z</time>
      </trkpt>
      <trkpt lat="43.7179" lon="3.4407">
        <ele>289.6</ele>
        <time>2016-05-01T06:48:58Z</time>
      </trkpt>
      <trkpt lat="43.71783" lon="3.44078">
        <ele>290</ele>
        <time>2016-05-01T06:49:02Z</time>
      </trkpt>
      <trkpt lat="43.71775" lon="3.44081">
        <ele>290</ele>
        <time>2016-05-01T06:49:05Z</time>
      </trkpt>
      <trkpt lat="43.71766" lon="3.44082">
        <ele>290</ele>
        <time>2016-05-01T06:49:09Z</time>
      </trkpt>
      <trkpt lat="43.71759" lon="3.44084">
        <ele>289.9</ele>
        <time>2016-05-01T06:49:13Z</time>
      </trkpt>
      <trkpt lat="43.7175" lon="3.44088">
        <ele>289.8</ele>
        <time>2016-05-01T06:49:18Z</time>
      </trkpt>
      <trkpt lat="43.71743" lon="3.44095">
        <ele>289.8</ele>
        <time>2016-05-01T06:49:22Z</time>
      </trkpt>
      <trkpt lat="43.71735" lon="3.44099">
        <ele>290</ele>
        <time>2016-05-01T06:49:25Z</time>
      </trkpt>
      <trkpt lat="43.71726" lon="3.44103">
        <ele>290.5</ele>
        <time>2016-05-01T06:49:29Z</time>
      </trkpt>
      <trkpt lat="43.71717" lon="3.44107">
        <ele>290.8</ele>
        <time>2016-05-01T06:49:33Z</time>
      </trkpt>
      <trkpt lat="43.7171" lon="3.44109">
        <ele>291.2</ele>
        <time>2016-05-01T06:49:36Z</time>
      </trkpt>
      <trkpt lat="43.71703" lon="3.44112">
        <ele>291.8</ele>
        <time>2016-05-01T06:49:40Z</time>
      </trkpt>
      <trkpt lat="43.71694" lon="3.44116">
        <ele>292.2</ele>
        <time>2016-05-01T06:49:44Z</time>
      </trkpt>
      <trkpt lat="43.71686" lon="3.44121">
        <ele>292.6</ele>
        <time>2016-05-01T06:49:47Z</time>
      </trkpt>
      <trkpt lat="43.71679" lon="3.44128">
        <ele>293</ele>
        <time>2016-05-01T06:49:51Z</time>
      </trkpt>
      <trkpt lat="43.71671" lon="3.44133">
        <ele>293.5</ele>
        <time>2016-05-01T06:49:55Z</time>
      </trkpt>
      <trkpt lat="43.71662" lon="3.44136">
        <ele>293.9</ele>
        <time>2016-05-01T06:49:59Z</time>
      </trkpt>
      <trkpt lat="43.71654" lon="3.4414">
        <ele>294.2</ele>
        <time>2016-05-01T06:50:03Z</time>
      </trkpt>
      <trkpt lat="43.7165" lon="3.44148">
        <ele>295.6</ele>
        <time>2016-05-01T06:50:10Z</time>
      </trkpt>
      <trkpt lat="43.71659" lon="3.44146">
        <ele>296.8</ele>
        <time>2016-05-01T06:50:14Z</time>
      </trkpt>
      <trkpt lat="43.71666" lon="3.44144">
        <ele>297.9</ele>
        <time>2016-05-01T06:50:18Z</time>
      </trkpt>
      <trkpt lat="43.71675" lon="3.44147">
        <ele>299.2</ele>
        <time>2016-05-01T06:50:22Z</time>
      </trkpt>
      <trkpt lat="43.71684" lon="3.44147">
        <ele>300.1</ele>
        <time>2016-05-01T06:50:26Z</time>
      </trkpt>
      <trkpt lat="43.71692" lon="3.44144">
        <ele>301.3</ele>
        <time>2016-05-01T06:50:31Z</time>
      </trkpt>
      <trkpt lat="43.71701" lon="3.44146">
        <ele>302</ele>
        <time>2016-05-01T06:50:35Z</time>
      </trkpt>
      <trkpt lat="43.71709" lon="3.44146">
        <ele>302.6</ele>
        <time>2016-05-01T06:50:40Z</time>
      </trkpt>
      <trkpt lat="43.71717" lon="3.44147">
        <ele>303.3</ele>
        <time>2016-05-01T06:50:45Z</time>
      </trkpt>
      <trkpt lat="43.71725" lon="3.44147">
        <ele>303.5</ele>
        <time>2016-05-01T06:50:49Z</time>
      </trkpt>
      <trkpt lat="43.71733" lon="3.44147">
        <ele>303.9</ele>
        <time>2016-05-01T06:50:53Z</time>
      </trkpt>
      <trkpt lat="43.71741" lon="3.44147">
        <ele>304.2</ele>
        <time>2016-05-01T06:50:57Z</time>
      </trkpt>
      <trkpt lat="43.7175" lon="3.44148">
        <ele>305.3</ele>
        <time>2016-05-01T06:51:03Z</time>
      </trkpt>
      <trkpt lat="43.71757" lon="3.44149">
        <ele>306.2</ele>
        <time>2016-05-01T06:51:07Z</time>
      </trkpt>
      <trkpt lat="43.71766" lon="3.44151">
        <ele>307</ele>
        <time>2016-05-01T06:51:11Z</time>
      </trkpt>
      <trkpt lat="43.71775" lon="3.44155">
        <ele>307.4</ele>
        <time>2016-05-01T06:51:15Z</time>
      </trkpt>
      <trkpt lat="43.71783" lon="3.4416">
        <ele>307.9</ele>
        <time>2016-05-01T06:51:19Z</time>
      </trkpt>
      <trkpt lat="43.71788" lon="3.4417">
        <ele>308.5</ele>
        <time>2016-05-01T06:51:23Z</time>
      </trkpt>
      <trkpt lat="43.71793" lon="3.44179">
        <ele>309.3</ele>
        <time>2016-05-01T06:51:27Z</time>
      </trkpt>
      <trkpt lat="43.71796" lon="3.44189">
        <ele>310.2</ele>
        <time>2016-05-01T06:51:31Z</time>
      </trkpt>
      <trkpt lat="43.71799" lon="3.44201">
        <ele>311.3</ele>
        <time>2016-05-01T06:51:36Z</time>
      </trkpt>
      <trkpt lat="43.71808" lon="3.44203">
        <ele>312.5</ele>
        <time>2016-05-01T06:51:41Z</time>
      </trkpt>
      <trkpt lat="43.71814" lon="3.44196">
        <ele>313.9</ele>
        <time>2016-05-01T06:51:47Z</time>
      </trkpt>
      <trkpt lat="43.71817" lon="3.44187">
        <ele>314.6</ele>
        <time>2016-05-01T06:51:53Z</time>
      </trkpt>
      <trkpt lat="43.71821" lon="3.44178">
        <ele>315.2</ele>
        <time>2016-05-01T06:51:57Z</time>
      </trkpt>
      <trkpt lat="43.71828" lon="3.44169">
        <ele>315.7</ele>
        <time>2016-05-01T06:52:01Z</time>
      </trkpt>
      <trkpt lat="43.71835" lon="3.44163">
        <ele>316.1</ele>
        <time>2016-05-01T06:52:05Z</time>
      </trkpt>
      <trkpt lat="43.71842" lon="3.44159">
        <ele>316.3</ele>
        <time>2016-05-01T06:52:09Z</time>
      </trkpt>
      <trkpt lat="43.71849" lon="3.44155">
        <ele>316.4</ele>
        <time>2016-05-01T06:52:12Z</time>
      </trkpt>
      <trkpt lat="43.71857" lon="3.44153">
        <ele>316.8</ele>
        <time>2016-05-01T06:52:16Z</time>
      </trkpt>
      <trkpt lat="43.71865" lon="3.44152">
        <ele>317.3</ele>
        <time>2016-05-01T06:52:20Z</time>
      </trkpt>
      <trkpt lat="43.71873" lon="3.4415">
        <ele>317.7</ele>
        <time>2016-05-01T06:52:24Z</time>
      </trkpt>
      <trkpt lat="43.71881" lon="3.44149">
        <ele>318.1</ele>
        <time>2016-05-01T06:52:27Z</time>
      </trkpt>
      <trkpt lat="43.71887" lon="3.44144">
        <ele>318.6</ele>
        <time>2016-05-01T06:52:31Z</time>
      </trkpt>
      <trkpt lat="43.71894" lon="3.44143">
        <ele>319.4</ele>
        <time>2016-05-01T06:52:35Z</time>
      </trkpt>
      <trkpt lat="43.71902" lon="3.44142">
        <ele>320.1</ele>
        <time>2016-05-01T06:52:39Z</time>
      </trkpt>
      <trkpt lat="43.71908" lon="3.44149">
        <ele>321</ele>
        <time>2016-05-01T06:52:44Z</time>
      </trkpt>
      <trkpt lat="43.71902" lon="3.44156">
        <ele>321.8</ele>
        <time>2016-05-01T06:52:48Z</time>
      </trkpt>
      <trkpt lat="43.71894" lon="3.4416">
        <ele>322.2</ele>
        <time>2016-05-01T06:52:51Z</time>
      </trkpt>
      <trkpt lat="43.71885" lon="3.44165">
        <ele>322.7</ele>
        <time>2016-05-01T06:52:55Z</time>
      </trkpt>
      <trkpt lat="43.7188" lon="3.44171">
        <ele>322.9</ele>
        <time>2016-05-01T06:52:58Z</time>
      </trkpt>
      <trkpt lat="43.71874" lon="3.44178">
        <ele>323</ele>
        <time>2016-05-01T06:53:01Z</time>
      </trkpt>
      <trkpt lat="43.71868" lon="3.44187">
        <ele>323.2</ele>
        <time>2016-05-01T06:53:05Z</time>
      </trkpt>
      <trkpt lat="43.71861" lon="3.44195">
        <ele>323.5</ele>
        <time>2016-05-01T06:53:09Z</time>
      </trkpt>
      <trkpt lat="43.71856" lon="3.44203">
        <ele>323.8</ele>
        <time>2016-05-01T06:53:13Z</time>
      </trkpt>
      <trkpt lat="43.71851" lon="3.44211">
        <ele>324.2</ele>
        <time>2016-05-01T06:53:16Z</time>
      </trkpt>
      <trkpt lat="43.71847" lon="3.44221">
        <ele>324.9</ele>
        <time>2016-05-01T06:53:20Z</time>
      </trkpt>
      <trkpt lat="43.71844" lon="3.4423">
        <ele>325.7</ele>
        <time>2016-05-01T06:53:23Z</time>
      </trkpt>
      <trkpt lat="43.7184" lon="3.44239">
        <ele>326.3</ele>
        <time>2016-05-01T06:53:26Z</time>
      </trkpt>
      <trkpt lat="43.71835" lon="3.44246">
        <ele>326.6</ele>
        <time>2016-05-01T06:53:29Z</time>
      </trkpt>
      <trkpt lat="43.7183" lon="3.44253">
        <ele>327</ele>
        <time>2016-05-01T06:53:32Z</time>
      </trkpt>
      <trkpt lat="43.71824" lon="3.44261">
        <ele>327.4</ele>
        <time>2016-05-01T06:53:35Z</time>
      </trkpt>
      <trkpt lat="43.71818" lon="3.44268">
        <ele>327.9</ele>
        <time>2016-05-01T06:53:38Z</time>
      </trkpt>
      <trkpt lat="43.71811" lon="3.44272">
        <ele>328.2</ele>
        <time>2016-05-01T06:53:41Z</time>
      </trkpt>
      <trkpt lat="43.71803" lon="3.44274">
        <ele>328.6</ele>
        <time>2016-05-01T06:53:44Z</time>
      </trkpt>
      <trkpt lat="43.71795" lon="3.44275">
        <ele>329.1</ele>
        <time>2016-05-01T06:53:47Z</time>
      </trkpt>
      <trkpt lat="43.71786" lon="3.44276">
        <ele>329.6</ele>
        <time>2016-05-01T06:53:50Z</time>
      </trkpt>
      <trkpt lat="43.71777" lon="3.44276">
        <ele>329.8</ele>
        <time>2016-05-01T06:53:53Z</time>
      </trkpt>
      <trkpt lat="43.71769" lon="3.44274">
        <ele>330.1</ele>
        <time>2016-05-01T06:53:56Z</time>
      </trkpt>
      <trkpt lat="43.71761" lon="3.44277">
        <ele>330.5</ele>
        <time>2016-05-01T06:53:59Z</time>
      </trkpt>
      <trkpt lat="43.71753" lon="3.44279">
        <ele>330.9</ele>
        <time>2016-05-01T06:54:02Z</time>
      </trkpt>
      <trkpt lat="43.71745" lon="3.44286">
        <ele>331.5</ele>
        <time>2016-05-01T06:54:06Z</time>
      </trkpt>
      <trkpt lat="43.71739" lon="3.44293">
        <ele>331.9</ele>
        <time>2016-05-01T06:54:09Z</time>
      </trkpt>
      <trkpt lat="43.71735" lon="3.443">
        <ele>332.3</ele>
        <time>2016-05-01T06:54:12Z</time>
      </trkpt>
      <trkpt lat="43.7173" lon="3.44311">
        <ele>333.3</ele>
        <time>2016-05-01T06:54:17Z</time>
      </trkpt>
      <trkpt lat="43.71725" lon="3.44321">
        <ele>333.9</ele>
        <time>2016-05-01T06:54:20Z</time>
      </trkpt>
      <trkpt lat="43.71721" lon="3.4433">
        <ele>334.5</ele>
        <time>2016-05-01T06:54:23Z</time>
      </trkpt>
      <trkpt lat="43.71713" lon="3.44338">
        <ele>335.1</ele>
        <time>2016-05-01T06:54:27Z</time>
      </trkpt>
      <trkpt lat="43.71708" lon="3.44347">
        <ele>335.9</ele>
        <time>2016-05-01T06:54:31Z</time>
      </trkpt>
      <trkpt lat="43.71706" lon="3.44357">
        <ele>336.5</ele>
        <time>2016-05-01T06:54:34Z</time>
      </trkpt>
      <trkpt lat="43.71705" lon="3.44369">
        <ele>337.1</ele>
        <time>2016-05-01T06:54:38Z</time>
      </trkpt>
      <trkpt lat="43.71702" lon="3.44382">
        <ele>337.9</ele>
        <time>2016-05-01T06:54:42Z</time>
      </trkpt>
      <trkpt lat="43.71698" lon="3.44391">
        <ele>338.5</ele>
        <time>2016-05-01T06:54:45Z</time>
      </trkpt>
      <trkpt lat="43.71693" lon="3.44401">
        <ele>338.9</ele>
        <time>2016-05-01T06:54:48Z</time>
      </trkpt>
      <trkpt lat="43.71688" lon="3.44409">
        <ele>339.2</ele>
        <time>2016-05-01T06:54:51Z</time>
      </trkpt>
      <trkpt lat="43.71683" lon="3.44419">
        <ele>339.8</ele>
        <time>2016-05-01T06:54:55Z</time>
      </trkpt>
      <trkpt lat="43.71691" lon="3.44425">
        <ele>341.1</ele>
        <time>2016-05-01T06:55:00Z</time>
      </trkpt>
      <trkpt lat="43.71699" lon="3.4442">
        <ele>341.7</ele>
        <time>2016-05-01T06:55:03Z</time>
      </trkpt>
      <trkpt lat="43.71707" lon="3.44416">
        <ele>342.5</ele>
        <time>2016-05-01T06:55:07Z</time>
      </trkpt>
      <trkpt lat="43.71714" lon="3.44408">
        <ele>343.1</ele>
        <time>2016-05-01T06:55:11Z</time>
      </trkpt>
      <trkpt lat="43.71721" lon="3.44402">
        <ele>343.8</ele>
        <time>2016-05-01T06:55:15Z</time>
      </trkpt>
      <trkpt lat="43.71727" lon="3.44393">
        <ele>344.5</ele>
        <time>2016-05-01T06:55:19Z</time>
      </trkpt>
      <trkpt lat="43.71733" lon="3.44387">
        <ele>345.1</ele>
        <time>2016-05-01T06:55:22Z</time>
      </trkpt>
      <trkpt lat="43.71741" lon="3.44383">
        <ele>345.6</ele>
        <time>2016-05-01T06:55:25Z</time>
      </trkpt>
      <trkpt lat="43.71748" lon="3.44381">
        <ele>346.1</ele>
        <time>2016-05-01T06:55:28Z</time>
      </trkpt>
      <trkpt lat="43.71757" lon="3.44378">
        <ele>346.8</ele>
        <time>2016-05-01T06:55:32Z</time>
      </trkpt>
      <trkpt lat="43.71764" lon="3.44375">
        <ele>347.6</ele>
        <time>2016-05-01T06:55:35Z</time>
      </trkpt>
      <trkpt lat="43.71773" lon="3.44371">
        <ele>348.3</ele>
        <time>2016-05-01T06:55:39Z</time>
      </trkpt>
      <trkpt lat="43.71781" lon="3.44367">
        <ele>348.8</ele>
        <time>2016-05-01T06:55:43Z</time>
      </trkpt>
      <trkpt lat="43.7179" lon="3.44364">
        <ele>349.2</ele>
        <time>2016-05-01T06:55:47Z</time>
      </trkpt>
      <trkpt lat="43.71797" lon="3.44362">
        <ele>349.6</ele>
        <time>2016-05-01T06:55:50Z</time>
      </trkpt>
      <trkpt lat="43.71804" lon="3.44358">
        <ele>349.9</ele>
        <time>2016-05-01T06:55:53Z</time>
      </trkpt>
      <trkpt lat="43.71812" lon="3.44355">
        <ele>350.2</ele>
        <time>2016-05-01T06:55:56Z</time>
      </trkpt>
      <trkpt lat="43.71819" lon="3.44353">
        <ele>350.6</ele>
        <time>2016-05-01T06:55:59Z</time>
      </trkpt>
      <trkpt lat="43.71829" lon="3.44354">
        <ele>351.5</ele>
        <time>2016-05-01T06:56:03Z</time>
      </trkpt>
      <trkpt lat="43.71838" lon="3.44353">
        <ele>352</ele>
        <time>2016-05-01T06:56:06Z</time>
      </trkpt>
      <trkpt lat="43.71845" lon="3.44349">
        <ele>352.1</ele>
        <time>2016-05-01T06:56:09Z</time>
      </trkpt>
      <trkpt lat="43.71851" lon="3.44343">
        <ele>352.2</ele>
        <time>2016-05-01T06:56:12Z</time>
      </trkpt>
      <trkpt lat="43.71857" lon="3.44336">
        <ele>352.5</ele>
        <time>2016-05-01T06:56:16Z</time>
      </trkpt>
      <trkpt lat="43.71864" lon="3.4433">
        <ele>352.9</ele>
        <time>2016-05-01T06:56:21Z</time>
      </trkpt>
      <trkpt lat="43.71872" lon="3.44325">
        <ele>353.5</ele>
        <time>2016-05-01T06:56:25Z</time>
      </trkpt>
      <trkpt lat="43.7188" lon="3.44319">
        <ele>354.3</ele>
        <time>2016-05-01T06:56:29Z</time>
      </trkpt>
      <trkpt lat="43.71888" lon="3.44317">
        <ele>355</ele>
        <time>2016-05-01T06:56:33Z</time>
      </trkpt>
      <trkpt lat="43.71895" lon="3.44316">
        <ele>355.8</ele>
        <time>2016-05-01T06:56:37Z</time>
      </trkpt>
      <trkpt lat="43.71902" lon="3.44317">
        <ele>356.7</ele>
        <time>2016-05-01T06:56:41Z</time>
      </trkpt>
      <trkpt lat="43.7191" lon="3.44317">
        <ele>357.5</ele>
        <time>2016-05-01T06:56:45Z</time>
      </trkpt>
      <trkpt lat="43.71918" lon="3.44316">
        <ele>358.2</ele>
        <time>2016-05-01T06:56:49Z</time>
      </trkpt>
      <trkpt lat="43.71927" lon="3.44315">
        <ele>358.9</ele>
        <time>2016-05-01T06:56:54Z</time>
      </trkpt>
      <trkpt lat="43.71934" lon="3.44315">
        <ele>359.6</ele>
        <time>2016-05-01T06:56:58Z</time>
      </trkpt>
      <trkpt lat="43.71942" lon="3.44315">
        <ele>360.2</ele>
        <time>2016-05-01T06:57:02Z</time>
      </trkpt>
      <trkpt lat="43.71951" lon="3.44316">
        <ele>361</ele>
        <time>2016-05-01T06:57:06Z</time>
      </trkpt>
      <trkpt lat="43.71958" lon="3.44319">
        <ele>361.7</ele>
        <time>2016-05-01T06:57:10Z</time>
      </trkpt>
      <trkpt lat="43.71965" lon="3.44322">
        <ele>362.1</ele>
        <time>2016-05-01T06:57:13Z</time>
      </trkpt>
      <trkpt lat="43.71973" lon="3.44324">
        <ele>362.8</ele>
        <time>2016-05-01T06:57:17Z</time>
      </trkpt>
      <trkpt lat="43.71981" lon="3.44325">
        <ele>363.2</ele>
        <time>2016-05-01T06:57:21Z</time>
      </trkpt>
      <trkpt lat="43.7199" lon="3.44327">
        <ele>364</ele>
        <time>2016-05-01T06:57:25Z</time>
      </trkpt>
      <trkpt lat="43.71999" lon="3.44327">
        <ele>364.8</ele>
        <time>2016-05-01T06:57:29Z</time>
      </trkpt>
      <trkpt lat="43.72006" lon="3.44322">
        <ele>365.3</ele>
        <time>2016-05-01T06:57:33Z</time>
      </trkpt>
      <trkpt lat="43.72012" lon="3.44313">
        <ele>365.9</ele>
        <time>2016-05-01T06:57:38Z</time>
      </trkpt>
      <trkpt lat="43.72018" lon="3.44308">
        <ele>366.3</ele>
        <time>2016-05-01T06:57:41Z</time>
      </trkpt>
      <trkpt lat="43.72025" lon="3.44303">
        <ele>366.9</ele>
        <time>2016-05-01T06:57:45Z</time>
      </trkpt>
      <trkpt lat="43.72035" lon="3.443">
        <ele>367.5</ele>
        <time>2016-05-01T06:57:49Z</time>
      </trkpt>
      <trkpt lat="43.72044" lon="3.44298">
        <ele>368.1</ele>
        <time>2016-05-01T06:57:53Z</time>
      </trkpt>
      <trkpt lat="43.7205" lon="3.44294">
        <ele>368.7</ele>
        <time>2016-05-01T06:57:56Z</time>
      </trkpt>
      <trkpt lat="43.72057" lon="3.44291">
        <ele>369.5</ele>
        <time>2016-05-01T06:58:00Z</time>
      </trkpt>
      <trkpt lat="43.72064" lon="3.44288">
        <ele>370.3</ele>
        <time>2016-05-01T06:58:04Z</time>
      </trkpt>
      <trkpt lat="43.72072" lon="3.44281">
        <ele>370.8</ele>
        <time>2016-05-01T06:58:08Z</time>
      </trkpt>
      <trkpt lat="43.72078" lon="3.44275">
        <ele>371.2</ele>
        <time>2016-05-01T06:58:11Z</time>
      </trkpt>
      <trkpt lat="43.72086" lon="3.44268">
        <ele>371.8</ele>
        <time>2016-05-01T06:58:15Z</time>
      </trkpt>
      <trkpt lat="43.72092" lon="3.44262">
        <ele>372.2</ele>
        <time>2016-05-01T06:58:18Z</time>
      </trkpt>
      <trkpt lat="43.72098" lon="3.44255">
        <ele>372.5</ele>
        <time>2016-05-01T06:58:21Z</time>
      </trkpt>
      <trkpt lat="43.72106" lon="3.44248">
        <ele>373</ele>
        <time>2016-05-01T06:58:25Z</time>
      </trkpt>
      <trkpt lat="43.72111" lon="3.44242">
        <ele>373.3</ele>
        <time>2016-05-01T06:58:28Z</time>
      </trkpt>
      <trkpt lat="43.72119" lon="3.44235">
        <ele>373.7</ele>
        <time>2016-05-01T06:58:32Z</time>
      </trkpt>
      <trkpt lat="43.72125" lon="3.44227">
        <ele>373.9</ele>
        <time>2016-05-01T06:58:36Z</time>
      </trkpt>
      <trkpt lat="43.7213" lon="3.44218">
        <ele>374.4</ele>
        <time>2016-05-01T06:58:40Z</time>
      </trkpt>
      <trkpt lat="43.72137" lon="3.44209">
        <ele>375</ele>
        <time>2016-05-01T06:58:44Z</time>
      </trkpt>
      <trkpt lat="43.7214" lon="3.442">
        <ele>375.6</ele>
        <time>2016-05-01T06:58:48Z</time>
      </trkpt>
      <trkpt lat="43.72146" lon="3.44191">
        <ele>376.3</ele>
        <time>2016-05-01T06:58:52Z</time>
      </trkpt>
      <trkpt lat="43.72153" lon="3.44186">
        <ele>377</ele>
        <time>2016-05-01T06:58:55Z</time>
      </trkpt>
      <trkpt lat="43.7216" lon="3.44183">
        <ele>377.8</ele>
        <time>2016-05-01T06:58:58Z</time>
      </trkpt>
      <trkpt lat="43.72167" lon="3.4418">
        <ele>378.6</ele>
        <time>2016-05-01T06:59:01Z</time>
      </trkpt>
      <trkpt lat="43.72176" lon="3.44176">
        <ele>379.3</ele>
        <time>2016-05-01T06:59:05Z</time>
      </trkpt>
      <trkpt lat="43.72185" lon="3.44172">
        <ele>379.9</ele>
        <time>2016-05-01T06:59:09Z</time>
      </trkpt>
      <trkpt lat="43.72193" lon="3.44169">
        <ele>380.3</ele>
        <time>2016-05-01T06:59:13Z</time>
      </trkpt>
      <trkpt lat="43.722" lon="3.44163">
        <ele>380.9</ele>
        <time>2016-05-01T06:59:17Z</time>
      </trkpt>
      <trkpt lat="43.72208" lon="3.44162">
        <ele>381.5</ele>
        <time>2016-05-01T06:59:21Z</time>
      </trkpt>
      <trkpt lat="43.72215" lon="3.44168">
        <ele>382.6</ele>
        <time>2016-05-01T06:59:25Z</time>
      </trkpt>
      <trkpt lat="43.72211" lon="3.4418">
        <ele>384.3</ele>
        <time>2016-05-01T06:59:31Z</time>
      </trkpt>
      <trkpt lat="43.72208" lon="3.44189">
        <ele>385.4</ele>
        <time>2016-05-01T06:59:34Z</time>
      </trkpt>
      <trkpt lat="43.72203" lon="3.44198">
        <ele>386.4</ele>
        <time>2016-05-01T06:59:38Z</time>
      </trkpt>
      <trkpt lat="43.722" lon="3.44206">
        <ele>387.4</ele>
        <time>2016-05-01T06:59:41Z</time>
      </trkpt>
      <trkpt lat="43.72195" lon="3.44216">
        <ele>388.7</ele>
        <time>2016-05-01T06:59:45Z</time>
      </trkpt>
      <trkpt lat="43.72189" lon="3.44223">
        <ele>389.4</ele>
        <time>2016-05-01T06:59:48Z</time>
      </trkpt>
      <trkpt lat="43.72184" lon="3.4423">
        <ele>390.1</ele>
        <time>2016-05-01T06:59:52Z</time>
      </trkpt>
      <trkpt lat="43.72178" lon="3.44237">
        <ele>390.8</ele>
        <time>2016-05-01T06:59:56Z</time>
      </trkpt>
      <trkpt lat="43.72172" lon="3.44247">
        <ele>391.6</ele>
        <time>2016-05-01T07:00:00Z</time>
      </trkpt>
      <trkpt lat="43.72167" lon="3.44255">
        <ele>392.7</ele>
        <time>2016-05-01T07:00:04Z</time>
      </trkpt>
      <trkpt lat="43.72162" lon="3.44263">
        <ele>393.5</ele>
        <time>2016-05-01T07:00:08Z</time>
      </trkpt>
      <trkpt lat="43.72158" lon="3.44274">
        <ele>394.3</ele>
        <time>2016-05-01T07:00:12Z</time>
      </trkpt>
      <trkpt lat="43.72154" lon="3.44283">
        <ele>395.1</ele>
        <time>2016-05-01T07:00:15Z</time>
      </trkpt>
      <trkpt lat="43.7215" lon="3.44292">
        <ele>396.1</ele>
        <time>2016-05-01T07:00:19Z</time>
      </trkpt>
      <trkpt lat="43.72144" lon="3.443">
        <ele>396.7</ele>
        <time>2016-05-01T07:00:22Z</time>
      </trkpt>
      <trkpt lat="43.72139" lon="3.4431">
        <ele>397.8</ele>
        <time>2016-05-01T07:00:26Z</time>
      </trkpt>
      <trkpt lat="43.72134" lon="3.44317">
        <ele>398.8</ele>
        <time>2016-05-01T07:00:30Z</time>
      </trkpt>
      <trkpt lat="43.72127" lon="3.44326">
        <ele>399.4</ele>
        <time>2016-05-01T07:00:34Z</time>
      </trkpt>
      <trkpt lat="43.72125" lon="3.44338">
        <ele>399.8</ele>
        <time>2016-05-01T07:00:37Z</time>
      </trkpt>
      <trkpt lat="43.72123" lon="3.44348">
        <ele>400.3</ele>
        <time>2016-05-01T07:00:40Z</time>
      </trkpt>
      <trkpt lat="43.7212" lon="3.44359">
        <ele>401</ele>
        <time>2016-05-01T07:00:44Z</time>
      </trkpt>
      <trkpt lat="43.72119" lon="3.44371">
        <ele>401.7</ele>
        <time>2016-05-01T07:00:48Z</time>
      </trkpt>
      <trkpt lat="43.72115" lon="3.44383">
        <ele>402.7</ele>
        <time>2016-05-01T07:00:52Z</time>
      </trkpt>
      <trkpt lat="43.72111" lon="3.44391">
        <ele>403.4</ele>
        <time>2016-05-01T07:00:55Z</time>
      </trkpt>
      <trkpt lat="43.72104" lon="3.44398">
        <ele>404</ele>
        <time>2016-05-01T07:00:58Z</time>
      </trkpt>
      <trkpt lat="43.72099" lon="3.44408">
        <ele>404.6</ele>
        <time>2016-05-01T07:01:01Z</time>
      </trkpt>
      <trkpt lat="43.72093" lon="3.44415">
        <ele>405</ele>
        <time>2016-05-01T07:01:04Z</time>
      </trkpt>
      <trkpt lat="43.72087" lon="3.44425">
        <ele>405.7</ele>
        <time>2016-05-01T07:01:08Z</time>
      </trkpt>
      <trkpt lat="43.72082" lon="3.44432">
        <ele>406.2</ele>
        <time>2016-05-01T07:01:11Z</time>
      </trkpt>
      <trkpt lat="43.72075" lon="3.4444">
        <ele>406.6</ele>
        <time>2016-05-01T07:01:14Z</time>
      </trkpt>
      <trkpt lat="43.7207" lon="3.44448">
        <ele>407.2</ele>
        <time>2016-05-01T07:01:18Z</time>
      </trkpt>
      <trkpt lat="43.72064" lon="3.44453">
        <ele>408</ele>
        <time>2016-05-01T07:01:22Z</time>
      </trkpt>
      <trkpt lat="43.72057" lon="3.44461">
        <ele>408.5</ele>
        <time>2016-05-01T07:01:26Z</time>
      </trkpt>
      <trkpt lat="43.72049" lon="3.44467">
        <ele>408.9</ele>
        <time>2016-05-01T07:01:30Z</time>
      </trkpt>
      <trkpt lat="43.72041" lon="3.44472">
        <ele>409.7</ele>
        <time>2016-05-01T07:01:34Z</time>
      </trkpt>
      <trkpt lat="43.72034" lon="3.4448">
        <ele>410.3</ele>
        <time>2016-05-01T07:01:39Z</time>
      </trkpt>
      <trkpt lat="43.72026" lon="3.44484">
        <ele>410.6</ele>
        <time>2016-05-01T07:01:43Z</time>
      </trkpt>
      <trkpt lat="43.72017" lon="3.44486">
        <ele>411.3</ele>
        <time>2016-05-01T07:01:47Z</time>
      </trkpt>
      <trkpt lat="43.72009" lon="3.44485">
        <ele>411.9</ele>
        <time>2016-05-01T07:01:50Z</time>
      </trkpt>
      <trkpt lat="43.72002" lon="3.44487">
        <ele>412.6</ele>
        <time>2016-05-01T07:01:53Z</time>
      </trkpt>
      <trkpt lat="43.71992" lon="3.44485">
        <ele>413.4</ele>
        <time>2016-05-01T07:01:57Z</time>
      </trkpt>
      <trkpt lat="43.71983" lon="3.44481">
        <ele>414</ele>
        <time>2016-05-01T07:02:00Z</time>
      </trkpt>
      <trkpt lat="43.71974" lon="3.44476">
        <ele>414.6</ele>
        <time>2016-05-01T07:02:03Z</time>
      </trkpt>
      <trkpt lat="43.71967" lon="3.44473">
        <ele>415.3</ele>
        <time>2016-05-01T07:02:06Z</time>
      </trkpt>
      <trkpt lat="43.7196" lon="3.4447">
        <ele>415.8</ele>
        <time>2016-05-01T07:02:09Z</time>
      </trkpt>
      <trkpt lat="43.71952" lon="3.44467">
        <ele>416.2</ele>
        <time>2016-05-01T07:02:12Z</time>
      </trkpt>
      <trkpt lat="43.71943" lon="3.44466">
        <ele>416.7</ele>
        <time>2016-05-01T07:02:16Z</time>
      </trkpt>
      <trkpt lat="43.71936" lon="3.44468">
        <ele>417.1</ele>
        <time>2016-05-01T07:02:19Z</time>
      </trkpt>
      <trkpt lat="43.71928" lon="3.44474">
        <ele>417.7</ele>
        <time>2016-05-01T07:02:23Z</time>
      </trkpt>
      <trkpt lat="43.71922" lon="3.44482">
        <ele>418.3</ele>
        <time>2016-05-01T07:02:27Z</time>
      </trkpt>
      <trkpt lat="43.71916" lon="3.44489">
        <ele>418.6</ele>
        <time>2016-05-01T07:02:30Z</time>
      </trkpt>
      <trkpt lat="43.7191" lon="3.44494">
        <ele>419.1</ele>
        <time>2016-05-01T07:02:33Z</time>
      </trkpt>
      <trkpt lat="43.71903" lon="3.44496">
        <ele>419.5</ele>
        <time>2016-05-01T07:02:36Z</time>
      </trkpt>
      <trkpt lat="43.71896" lon="3.44498">
        <ele>420.1</ele>
        <time>2016-05-01T07:02:39Z</time>
      </trkpt>
      <trkpt lat="43.71888" lon="3.445">
        <ele>420.4</ele>
        <time>2016-05-01T07:02:42Z</time>
      </trkpt>
      <trkpt lat="43.71879" lon="3.44505">
        <ele>420.7</ele>
        <time>2016-05-01T07:02:45Z</time>
      </trkpt>
      <trkpt lat="43.7187" lon="3.44511">
        <ele>420.9</ele>
        <time>2016-05-01T07:02:48Z</time>
      </trkpt>
      <trkpt lat="43.71862" lon="3.44517">
        <ele>421</ele>
        <time>2016-05-01T07:02:51Z</time>
      </trkpt>
      <trkpt lat="43.71856" lon="3.44525">
        <ele>421.1</ele>
        <time>2016-05-01T07:02:54Z</time>
      </trkpt>
      <trkpt lat="43.71851" lon="3.44536">
        <ele>421.3</ele>
        <time>2016-05-01T07:02:57Z</time>
      </trkpt>
      <trkpt lat="43.71846" lon="3.44544">
        <ele>421.4</ele>
        <time>2016-05-01T07:03:00Z</time>
      </trkpt>
      <trkpt lat="43.71842" lon="3.44553">
        <ele>421.8</ele>
        <time>2016-05-01T07:03:03Z</time>
      </trkpt>
      <trkpt lat="43.71836" lon="3.44562">
        <ele>422</ele>
        <time>2016-05-01T07:03:06Z</time>
      </trkpt>
      <trkpt lat="43.71831" lon="3.44571">
        <ele>422</ele>
        <time>2016-05-01T07:03:09Z</time>
      </trkpt>
      <trkpt lat="43.71824" lon="3.44582">
        <ele>422.1</ele>
        <time>2016-05-01T07:03:12Z</time>
      </trkpt>
      <trkpt lat="43.71821" lon="3.44591">
        <ele>422.2</ele>
        <time>2016-05-01T07:03:15Z</time>
      </trkpt>
      <trkpt lat="43.71829" lon="3.44592">
        <ele>422.6</ele>
        <time>2016-05-01T07:03:19Z</time>
      </trkpt>
      <trkpt lat="43.71832" lon="3.44581">
        <ele>422.8</ele>
        <time>2016-05-01T07:03:23Z</time>
      </trkpt>
      <trkpt lat="43.71838" lon="3.44571">
        <ele>423.1</ele>
        <time>2016-05-01T07:03:27Z</time>
      </trkpt>
      <trkpt lat="43.71845" lon="3.44563">
        <ele>423.6</ele>
        <time>2016-05-01T07:03:30Z</time>
      </trkpt>
      <trkpt lat="43.7185" lon="3.44557">
        <ele>424.1</ele>
        <time>2016-05-01T07:03:33Z</time>
      </trkpt>
      <trkpt lat="43.71858" lon="3.44553">
        <ele>424.4</ele>
        <time>2016-05-01T07:03:36Z</time>
      </trkpt>
      <trkpt lat="43.71868" lon="3.44549">
        <ele>424.8</ele>
        <time>2016-05-01T07:03:40Z</time>
      </trkpt>
      <trkpt lat="43.71874" lon="3.44546">
        <ele>425</ele>
        <time>2016-05-01T07:03:43Z</time>
      </trkpt>
      <trkpt lat="43.71883" lon="3.44541">
        <ele>425.2</ele>
        <time>2016-05-01T07:03:46Z</time>
      </trkpt>
      <trkpt lat="43.7189" lon="3.44537">
        <ele>425.4</ele>
        <time>2016-05-01T07:03:49Z</time>
      </trkpt>
      <trkpt lat="43.71899" lon="3.44533">
        <ele>426</ele>
        <time>2016-05-01T07:03:54Z</time>
      </trkpt>
      <trkpt lat="43.71906" lon="3.44532">
        <ele>426.6</ele>
        <time>2016-05-01T07:03:57Z</time>
      </trkpt>
      <trkpt lat="43.71914" lon="3.44531">
        <ele>427.1</ele>
        <time>2016-05-01T07:04:00Z</time>
      </trkpt>
      <trkpt lat="43.71923" lon="3.44529">
        <ele>427.5</ele>
        <time>2016-05-01T07:04:04Z</time>
      </trkpt>
      <trkpt lat="43.71932" lon="3.44529">
        <ele>427.8</ele>
        <time>2016-05-01T07:04:08Z</time>
      </trkpt>
      <trkpt lat="43.71941" lon="3.4453">
        <ele>428.3</ele>
        <time>2016-05-01T07:04:12Z</time>
      </trkpt>
      <trkpt lat="43.71949" lon="3.44532">
        <ele>428.6</ele>
        <time>2016-05-01T07:04:15Z</time>
      </trkpt>
      <trkpt lat="43.71957" lon="3.44536">
        <ele>429.2</ele>
        <time>2016-05-01T07:04:18Z</time>
      </trkpt>
      <trkpt lat="43.71965" lon="3.44541">
        <ele>430.1</ele>
        <time>2016-05-01T07:04:22Z</time>
      </trkpt>
      <trkpt lat="43.71974" lon="3.44545">
        <ele>430.9</ele>
        <time>2016-05-01T07:04:25Z</time>
      </trkpt>
      <trkpt lat="43.71982" lon="3.44548">
        <ele>431.5</ele>
        <time>2016-05-01T07:04:28Z</time>
      </trkpt>
      <trkpt lat="43.71992" lon="3.4455">
        <ele>432.4</ele>
        <time>2016-05-01T07:04:32Z</time>
      </trkpt>
      <trkpt lat="43.72" lon="3.44553">
        <ele>432.9</ele>
        <time>2016-05-01T07:04:35Z</time>
      </trkpt>
      <trkpt lat="43.72009" lon="3.44557">
        <ele>433.4</ele>
        <time>2016-05-01T07:04:38Z</time>
      </trkpt>
      <trkpt lat="43.72016" lon="3.44559">
        <ele>433.9</ele>
        <time>2016-05-01T07:04:41Z</time>
      </trkpt>
      <trkpt lat="43.72024" lon="3.44559">
        <ele>434.5</ele>
        <time>2016-05-01T07:04:44Z</time>
      </trkpt>
      <trkpt lat="43.72032" lon="3.44558">
        <ele>435.5</ele>
        <time>2016-05-01T07:04:47Z</time>
      </trkpt>
      <trkpt lat="43.72039" lon="3.44554">
        <ele>436.3</ele>
        <time>2016-05-01T07:04:50Z</time>
      </trkpt>
      <trkpt lat="43.72046" lon="3.4455">
        <ele>437.1</ele>
        <time>2016-05-01T07:04:53Z</time>
      </trkpt>
      <trkpt lat="43.72055" lon="3.44548">
        <ele>438</ele>
        <time>2016-05-01T07:04:57Z</time>
      </trkpt>
      <trkpt lat="43.72062" lon="3.44547">
        <ele>438.6</ele>
        <time>2016-05-01T07:05:00Z</time>
      </trkpt>
      <trkpt lat="43.7207" lon="3.44545">
        <ele>439.4</ele>
        <time>2016-05-01T07:05:04Z</time>
      </trkpt>
      <trkpt lat="43.72077" lon="3.44541">
        <ele>440.5</ele>
        <time>2016-05-01T07:05:10Z</time>
      </trkpt>
      <trkpt lat="43.72085" lon="3.44539">
        <ele>440.6</ele>
        <time>2016-05-01T07:05:14Z</time>
      </trkpt>
      <trkpt lat="43.72093" lon="3.44533">
        <ele>440.9</ele>
        <time>2016-05-01T07:05:18Z</time>
      </trkpt>
      <trkpt lat="43.72101" lon="3.44529">
        <ele>441</ele>
        <time>2016-05-01T07:05:21Z</time>
      </trkpt>
      <trkpt lat="43.72107" lon="3.44523">
        <ele>441.1</ele>
        <time>2016-05-01T07:05:24Z</time>
      </trkpt>
      <trkpt lat="43.72115" lon="3.44516">
        <ele>440.9</ele>
        <time>2016-05-01T07:05:28Z</time>
      </trkpt>
      <trkpt lat="43.72121" lon="3.44509">
        <ele>441.2</ele>
        <time>2016-05-01T07:05:31Z</time>
      </trkpt>
      <trkpt lat="43.72128" lon="3.44498">
        <ele>441.6</ele>
        <time>2016-05-01T07:05:34Z</time>
      </trkpt>
      <trkpt lat="43.72134" lon="3.44488">
        <ele>441.9</ele>
        <time>2016-05-01T07:05:37Z</time>
      </trkpt>
      <trkpt lat="43.7214" lon="3.44478">
        <ele>442.1</ele>
        <time>2016-05-01T07:05:40Z</time>
      </trkpt>
      <trkpt lat="43.72145" lon="3.4447">
        <ele>442.3</ele>
        <time>2016-05-01T07:05:42Z</time>
      </trkpt>
      <trkpt lat="43.7215" lon="3.44458">
        <ele>442.5</ele>
        <time>2016-05-01T07:05:45Z</time>
      </trkpt>
      <trkpt lat="43.72152" lon="3.44446">
        <ele>441.8</ele>
        <time>2016-05-01T07:05:47Z</time>
      </trkpt>
      <trkpt lat="43.72154" lon="3.44431">
        <ele>443.2</ele>
        <time>2016-05-01T07:05:49Z</time>
      </trkpt>
      <trkpt lat="43.72155" lon="3.4442">
        <ele>444</ele>
        <time>2016-05-01T07:05:50Z</time>
      </trkpt>
      <trkpt lat="43.72157" lon="3.4441">
        <ele>444.7</ele>
        <time>2016-05-01T07:05:51Z</time>
      </trkpt>
      <trkpt lat="43.72163" lon="3.44395">
        <ele>444.9</ele>
        <time>2016-05-01T07:05:53Z</time>
      </trkpt>
      <trkpt lat="43.72172" lon="3.44381">
        <ele>445.4</ele>
        <time>2016-05-01T07:05:55Z</time>
      </trkpt>
      <trkpt lat="43.72184" lon="3.4437">
        <ele>444.7</ele>
        <time>2016-05-01T07:05:57Z</time>
      </trkpt>
      <trkpt lat="43.7219" lon="3.44366">
        <ele>444.1</ele>
        <time>2016-05-01T07:05:58Z</time>
      </trkpt>
      <trkpt lat="43.72203" lon="3.4436">
        <ele>441.9</ele>
        <time>2016-05-01T07:06:00Z</time>
      </trkpt>
      <trkpt lat="43.72216" lon="3.44359">
        <ele>440.3</ele>
        <time>2016-05-01T07:06:02Z</time>
      </trkpt>
      <trkpt lat="43.72226" lon="3.44357">
        <ele>440</ele>
        <time>2016-05-01T07:06:04Z</time>
      </trkpt>
      <trkpt lat="43.72237" lon="3.44353">
        <ele>439.1</ele>
        <time>2016-05-01T07:06:06Z</time>
      </trkpt>
      <trkpt lat="43.72248" lon="3.44348">
        <ele>439.2</ele>
        <time>2016-05-01T07:06:08Z</time>
      </trkpt>
      <trkpt lat="43.72256" lon="3.44343">
        <ele>438.6</ele>
        <time>2016-05-01T07:06:10Z</time>
      </trkpt>
      <trkpt lat="43.72263" lon="3.44338">
        <ele>437.6</ele>
        <time>2016-05-01T07:06:12Z</time>
      </trkpt>
      <trkpt lat="43.72271" lon="3.44332">
        <ele>437.4</ele>
        <time>2016-05-01T07:06:14Z</time>
      </trkpt>
      <trkpt lat="43.72278" lon="3.44326">
        <ele>437.4</ele>
        <time>2016-05-01T07:06:16Z</time>
      </trkpt>
      <trkpt lat="43.72284" lon="3.44319">
        <ele>438.6</ele>
        <time>2016-05-01T07:06:18Z</time>
      </trkpt>
      <trkpt lat="43.72291" lon="3.4431">
        <ele>438.9</ele>
        <time>2016-05-01T07:06:20Z</time>
      </trkpt>
      <trkpt lat="43.72297" lon="3.443">
        <ele>440</ele>
        <time>2016-05-01T07:06:22Z</time>
      </trkpt>
      <trkpt lat="43.72302" lon="3.44287">
        <ele>440.2</ele>
        <time>2016-05-01T07:06:25Z</time>
      </trkpt>
      <trkpt lat="43.72306" lon="3.44279">
        <ele>440.2</ele>
        <time>2016-05-01T07:06:27Z</time>
      </trkpt>
      <trkpt lat="43.7231" lon="3.44271">
        <ele>440.3</ele>
        <time>2016-05-01T07:06:29Z</time>
      </trkpt>
      <trkpt lat="43.72315" lon="3.44261">
        <ele>440.5</ele>
        <time>2016-05-01T07:06:31Z</time>
      </trkpt>
      <trkpt lat="43.72324" lon="3.44256">
        <ele>442</ele>
        <time>2016-05-01T07:06:33Z</time>
      </trkpt>
      <trkpt lat="43.72333" lon="3.44252">
        <ele>443.1</ele>
        <time>2016-05-01T07:06:35Z</time>
      </trkpt>
      <trkpt lat="43.72341" lon="3.44251">
        <ele>443.2</ele>
        <time>2016-05-01T07:06:37Z</time>
      </trkpt>
      <trkpt lat="43.72351" lon="3.44253">
        <ele>443.3</ele>
        <time>2016-05-01T07:06:39Z</time>
      </trkpt>
      <trkpt lat="43.72359" lon="3.44258">
        <ele>443.3</ele>
        <time>2016-05-01T07:06:41Z</time>
      </trkpt>
      <trkpt lat="43.72366" lon="3.44263">
        <ele>444.1</ele>
        <time>2016-05-01T07:06:43Z</time>
      </trkpt>
      <trkpt lat="43.72372" lon="3.4427">
        <ele>444.7</ele>
        <time>2016-05-01T07:06:45Z</time>
      </trkpt>
      <trkpt lat="43.72379" lon="3.44279">
        <ele>443.8</ele>
        <time>2016-05-01T07:06:47Z</time>
      </trkpt>
      <trkpt lat="43.72388" lon="3.44288">
        <ele>443.2</ele>
        <time>2016-05-01T07:06:49Z</time>
      </trkpt>
      <trkpt lat="43.72398" lon="3.44294">
        <ele>443.2</ele>
        <time>2016-05-01T07:06:51Z</time>
      </trkpt>
      <trkpt lat="43.72409" lon="3.44301">
        <ele>443.5</ele>
        <time>2016-05-01T07:06:53Z</time>
      </trkpt>
      <trkpt lat="43.72418" lon="3.4431">
        <ele>443.1</ele>
        <time>2016-05-01T07:06:55Z</time>
      </trkpt>
      <trkpt lat="43.72427" lon="3.4432">
        <ele>443.6</ele>
        <time>2016-05-01T07:06:57Z</time>
      </trkpt>
      <trkpt lat="43.72437" lon="3.44331">
        <ele>443.4</ele>
        <time>2016-05-01T07:06:59Z</time>
      </trkpt>
      <trkpt lat="43.72446" lon="3.44343">
        <ele>442</ele>
        <time>2016-05-01T07:07:01Z</time>
      </trkpt>
      <trkpt lat="43.72454" lon="3.44355">
        <ele>440</ele>
        <time>2016-05-01T07:07:03Z</time>
      </trkpt>
      <trkpt lat="43.72461" lon="3.44367">
        <ele>438.7</ele>
        <time>2016-05-01T07:07:05Z</time>
      </trkpt>
      <trkpt lat="43.72466" lon="3.44375">
        <ele>438</ele>
        <time>2016-05-01T07:07:07Z</time>
      </trkpt>
      <trkpt lat="43.72473" lon="3.44381">
        <ele>438</ele>
        <time>2016-05-01T07:07:09Z</time>
      </trkpt>
      <trkpt lat="43.7248" lon="3.44384">
        <ele>438</ele>
        <time>2016-05-01T07:07:11Z</time>
      </trkpt>
      <trkpt lat="43.72488" lon="3.44381">
        <ele>437.9</ele>
        <time>2016-05-01T07:07:14Z</time>
      </trkpt>
      <trkpt lat="43.72497" lon="3.44376">
        <ele>437.9</ele>
        <time>2016-05-01T07:07:17Z</time>
      </trkpt>
      <trkpt lat="43.72506" lon="3.44373">
        <ele>437.8</ele>
        <time>2016-05-01T07:07:20Z</time>
      </trkpt>
      <trkpt lat="43.72514" lon="3.44368">
        <ele>437.9</ele>
        <time>2016-05-01T07:07:24Z</time>
      </trkpt>
      <trkpt lat="43.72524" lon="3.44371">
        <ele>438</ele>
        <time>2016-05-01T07:07:27Z</time>
      </trkpt>
      <trkpt lat="43.72527" lon="3.44382">
        <ele>438.1</ele>
        <time>2016-05-01T07:07:30Z</time>
      </trkpt>
      <trkpt lat="43.72519" lon="3.44387">
        <ele>438.1</ele>
        <time>2016-05-01T07:07:34Z</time>
      </trkpt>
      <trkpt lat="43.72511" lon="3.4439">
        <ele>438.2</ele>
        <time>2016-05-01T07:07:37Z</time>
      </trkpt>
      <trkpt lat="43.72504" lon="3.44394">
        <ele>438.3</ele>
        <time>2016-05-01T07:07:40Z</time>
      </trkpt>
      <trkpt lat="43.72504" lon="3.44405">
        <ele>438.4</ele>
        <time>2016-05-01T07:07:44Z</time>
      </trkpt>
      <trkpt lat="43.72512" lon="3.44405">
        <ele>438.6</ele>
        <time>2016-05-01T07:07:48Z</time>
      </trkpt>
      <trkpt lat="43.7252" lon="3.44405">
        <ele>438.8</ele>
        <time>2016-05-01T07:07:51Z</time>
      </trkpt>
      <trkpt lat="43.72528" lon="3.44407">
        <ele>439.1</ele>
        <time>2016-05-01T07:07:54Z</time>
      </trkpt>
      <trkpt lat="43.72537" lon="3.44409">
        <ele>439.5</ele>
        <time>2016-05-01T07:07:59Z</time>
      </trkpt>
      <trkpt lat="43.72545" lon="3.44412">
        <ele>440</ele>
        <time>2016-05-01T07:08:03Z</time>
      </trkpt>
      <trkpt lat="43.72552" lon="3.44418">
        <ele>440.5</ele>
        <time>2016-05-01T07:08:06Z</time>
      </trkpt>
      <trkpt lat="43.7256" lon="3.44424">
        <ele>441.2</ele>
        <time>2016-05-01T07:08:10Z</time>
      </trkpt>
      <trkpt lat="43.72567" lon="3.44431">
        <ele>442</ele>
        <time>2016-05-01T07:08:14Z</time>
      </trkpt>
      <trkpt lat="43.72572" lon="3.44439">
        <ele>442.5</ele>
        <time>2016-05-01T07:08:17Z</time>
      </trkpt>
      <trkpt lat="43.72579" lon="3.44446">
        <ele>443.2</ele>
        <time>2016-05-01T07:08:21Z</time>
      </trkpt>
      <trkpt lat="43.72586" lon="3.44454">
        <ele>444.2</ele>
        <time>2016-05-01T07:08:25Z</time>
      </trkpt>
      <trkpt lat="43.72593" lon="3.44462">
        <ele>445</ele>
        <time>2016-05-01T07:08:29Z</time>
      </trkpt>
      <trkpt lat="43.726" lon="3.44469">
        <ele>445.9</ele>
        <time>2016-05-01T07:08:33Z</time>
      </trkpt>
      <trkpt lat="43.72606" lon="3.44478">
        <ele>446.8</ele>
        <time>2016-05-01T07:08:37Z</time>
      </trkpt>
      <trkpt lat="43.72609" lon="3.44487">
        <ele>447.4</ele>
        <time>2016-05-01T07:08:40Z</time>
      </trkpt>
      <trkpt lat="43.7261" lon="3.44499">
        <ele>447.9</ele>
        <time>2016-05-01T07:08:44Z</time>
      </trkpt>
      <trkpt lat="43.72609" lon="3.4451">
        <ele>448.2</ele>
        <time>2016-05-01T07:08:47Z</time>
      </trkpt>
      <trkpt lat="43.72606" lon="3.44523">
        <ele>448.7</ele>
        <time>2016-05-01T07:08:51Z</time>
      </trkpt>
      <trkpt lat="43.72601" lon="3.44531">
        <ele>449.3</ele>
        <time>2016-05-01T07:08:55Z</time>
      </trkpt>
      <trkpt lat="43.72601" lon="3.44541">
        <ele>450.2</ele>
        <time>2016-05-01T07:09:00Z</time>
      </trkpt>
      <trkpt lat="43.72607" lon="3.44549">
        <ele>450.7</ele>
        <time>2016-05-01T07:09:04Z</time>
      </trkpt>
      <trkpt lat="43.72615" lon="3.44557">
        <ele>451.3</ele>
        <time>2016-05-01T07:09:08Z</time>
      </trkpt>
      <trkpt lat="43.72621" lon="3.44564">
        <ele>451.8</ele>
        <time>2016-05-01T07:09:11Z</time>
      </trkpt>
      <trkpt lat="43.72628" lon="3.44571">
        <ele>452.6</ele>
        <time>2016-05-01T07:09:15Z</time>
      </trkpt>
      <trkpt lat="43.72638" lon="3.44574">
        <ele>453.5</ele>
        <time>2016-05-01T07:09:20Z</time>
      </trkpt>
      <trkpt lat="43.72645" lon="3.4458">
        <ele>454.2</ele>
        <time>2016-05-01T07:09:23Z</time>
      </trkpt>
      <trkpt lat="43.7265" lon="3.44587">
        <ele>454.8</ele>
        <time>2016-05-01T07:09:26Z</time>
      </trkpt>
      <trkpt lat="43.72656" lon="3.44595">
        <ele>455.6</ele>
        <time>2016-05-01T07:09:30Z</time>
      </trkpt>
      <trkpt lat="43.72663" lon="3.44602">
        <ele>456.3</ele>
        <time>2016-05-01T07:09:34Z</time>
      </trkpt>
      <trkpt lat="43.7267" lon="3.44611">
        <ele>457.2</ele>
        <time>2016-05-01T07:09:38Z</time>
      </trkpt>
      <trkpt lat="43.72674" lon="3.44621">
        <ele>457.8</ele>
        <time>2016-05-01T07:09:41Z</time>
      </trkpt>
      <trkpt lat="43.7268" lon="3.44629">
        <ele>458.3</ele>
        <time>2016-05-01T07:09:44Z</time>
      </trkpt>
      <trkpt lat="43.72688" lon="3.44635">
        <ele>459</ele>
        <time>2016-05-01T07:09:48Z</time>
      </trkpt>
      <trkpt lat="43.72696" lon="3.44639">
        <ele>459.8</ele>
        <time>2016-05-01T07:09:52Z</time>
      </trkpt>
      <trkpt lat="43.72704" lon="3.44643">
        <ele>460.5</ele>
        <time>2016-05-01T07:09:56Z</time>
      </trkpt>
      <trkpt lat="43.72711" lon="3.44649">
        <ele>461.3</ele>
        <time>2016-05-01T07:10:00Z</time>
      </trkpt>
      <trkpt lat="43.72719" lon="3.44651">
        <ele>462.8</ele>
        <time>2016-05-01T07:10:05Z</time>
      </trkpt>
      <trkpt lat="43.72727" lon="3.44653">
        <ele>463.7</ele>
        <time>2016-05-01T07:10:08Z</time>
      </trkpt>
      <trkpt lat="43.72735" lon="3.44655">
        <ele>465.1</ele>
        <time>2016-05-01T07:10:12Z</time>
      </trkpt>
      <trkpt lat="43.72744" lon="3.4465">
        <ele>466.2</ele>
        <time>2016-05-01T07:10:16Z</time>
      </trkpt>
      <trkpt lat="43.7275" lon="3.44646">
        <ele>467.2</ele>
        <time>2016-05-01T07:10:19Z</time>
      </trkpt>
      <trkpt lat="43.72758" lon="3.44642">
        <ele>468.1</ele>
        <time>2016-05-01T07:10:22Z</time>
      </trkpt>
      <trkpt lat="43.72765" lon="3.44639">
        <ele>468.9</ele>
        <time>2016-05-01T07:10:25Z</time>
      </trkpt>
      <trkpt lat="43.72772" lon="3.44637">
        <ele>469.7</ele>
        <time>2016-05-01T07:10:28Z</time>
      </trkpt>
      <trkpt lat="43.72778" lon="3.44633">
        <ele>471.9</ele>
        <time>2016-05-01T07:10:35Z</time>
      </trkpt>
      <trkpt lat="43.72787" lon="3.44635">
        <ele>472.9</ele>
        <time>2016-05-01T07:10:38Z</time>
      </trkpt>
      <trkpt lat="43.72794" lon="3.44635">
        <ele>474.1</ele>
        <time>2016-05-01T07:10:41Z</time>
      </trkpt>
      <trkpt lat="43.72802" lon="3.44635">
        <ele>474.9</ele>
        <time>2016-05-01T07:10:44Z</time>
      </trkpt>
      <trkpt lat="43.72811" lon="3.44634">
        <ele>475.7</ele>
        <time>2016-05-01T07:10:49Z</time>
      </trkpt>
      <trkpt lat="43.7282" lon="3.4463">
        <ele>476.2</ele>
        <time>2016-05-01T07:10:53Z</time>
      </trkpt>
      <trkpt lat="43.72827" lon="3.44629">
        <ele>476.5</ele>
        <time>2016-05-01T07:10:57Z</time>
      </trkpt>
      <trkpt lat="43.72834" lon="3.44625">
        <ele>476.7</ele>
        <time>2016-05-01T07:11:01Z</time>
      </trkpt>
      <trkpt lat="43.72842" lon="3.44621">
        <ele>476.9</ele>
        <time>2016-05-01T07:11:05Z</time>
      </trkpt>
      <trkpt lat="43.72848" lon="3.44617">
        <ele>476.8</ele>
        <time>2016-05-01T07:11:10Z</time>
      </trkpt>
      <trkpt lat="43.72857" lon="3.44611">
        <ele>477.2</ele>
        <time>2016-05-01T07:11:14Z</time>
      </trkpt>
      <trkpt lat="43.72865" lon="3.44608">
        <ele>477.4</ele>
        <time>2016-05-01T07:11:17Z</time>
      </trkpt>
      <trkpt lat="43.72873" lon="3.44605">
        <ele>477.5</ele>
        <time>2016-05-01T07:11:21Z</time>
      </trkpt>
      <trkpt lat="43.7288" lon="3.44599">
        <ele>477.6</ele>
        <time>2016-05-01T07:11:23Z</time>
      </trkpt>
      <trkpt lat="43.72887" lon="3.44597">
        <ele>477.8</ele>
        <time>2016-05-01T07:11:26Z</time>
      </trkpt>
      <trkpt lat="43.72896" lon="3.44596">
        <ele>478</ele>
        <time>2016-05-01T07:11:30Z</time>
      </trkpt>
      <trkpt lat="43.72904" lon="3.44592">
        <ele>478.4</ele>
        <time>2016-05-01T07:11:34Z</time>
      </trkpt>
      <trkpt lat="43.72912" lon="3.44589">
        <ele>478.7</ele>
        <time>2016-05-01T07:11:37Z</time>
      </trkpt>
      <trkpt lat="43.72918" lon="3.44582">
        <ele>479.3</ele>
        <time>2016-05-01T07:11:41Z</time>
      </trkpt>
      <trkpt lat="43.72924" lon="3.44576">
        <ele>479.8</ele>
        <time>2016-05-01T07:11:45Z</time>
      </trkpt>
      <trkpt lat="43.72932" lon="3.44569">
        <ele>480.6</ele>
        <time>2016-05-01T07:11:49Z</time>
      </trkpt>
      <trkpt lat="43.72939" lon="3.4457">
        <ele>481</ele>
        <time>2016-05-01T07:11:54Z</time>
      </trkpt>
      <trkpt lat="43.72947" lon="3.44565">
        <ele>481.6</ele>
        <time>2016-05-01T07:11:59Z</time>
      </trkpt>
      <trkpt lat="43.72955" lon="3.44564">
        <ele>481.8</ele>
        <time>2016-05-01T07:12:02Z</time>
      </trkpt>
      <trkpt lat="43.72963" lon="3.4456">
        <ele>482.4</ele>
        <time>2016-05-01T07:12:06Z</time>
      </trkpt>
      <trkpt lat="43.72971" lon="3.44556">
        <ele>483.3</ele>
        <time>2016-05-01T07:12:10Z</time>
      </trkpt>
      <trkpt lat="43.72978" lon="3.44554">
        <ele>484.2</ele>
        <time>2016-05-01T07:12:13Z</time>
      </trkpt>
      <trkpt lat="43.72985" lon="3.44551">
        <ele>484.7</ele>
        <time>2016-05-01T07:12:16Z</time>
      </trkpt>
      <trkpt lat="43.72993" lon="3.44548">
        <ele>485.6</ele>
        <time>2016-05-01T07:12:21Z</time>
      </trkpt>
      <trkpt lat="43.73001" lon="3.44544">
        <ele>486.8</ele>
        <time>2016-05-01T07:12:25Z</time>
      </trkpt>
      <trkpt lat="43.73009" lon="3.44542">
        <ele>487.9</ele>
        <time>2016-05-01T07:12:28Z</time>
      </trkpt>
      <trkpt lat="43.73017" lon="3.44548">
        <ele>488.8</ele>
        <time>2016-05-01T07:12:31Z</time>
      </trkpt>
      <trkpt lat="43.73024" lon="3.44554">
        <ele>489.3</ele>
        <time>2016-05-01T07:12:33Z</time>
      </trkpt>
      <trkpt lat="43.73031" lon="3.44565">
        <ele>490</ele>
        <time>2016-05-01T07:12:36Z</time>
      </trkpt>
      <trkpt lat="43.73037" lon="3.44573">
        <ele>490.7</ele>
        <time>2016-05-01T07:12:40Z</time>
      </trkpt>
      <trkpt lat="43.73043" lon="3.44581">
        <ele>491.2</ele>
        <time>2016-05-01T07:12:44Z</time>
      </trkpt>
      <trkpt lat="43.7305" lon="3.44589">
        <ele>491.5</ele>
        <time>2016-05-01T07:12:48Z</time>
      </trkpt>
      <trkpt lat="43.73055" lon="3.44597">
        <ele>491.7</ele>
        <time>2016-05-01T07:12:51Z</time>
      </trkpt>
      <trkpt lat="43.7306" lon="3.44606">
        <ele>492</ele>
        <time>2016-05-01T07:12:55Z</time>
      </trkpt>
      <trkpt lat="43.73064" lon="3.44617">
        <ele>492.1</ele>
        <time>2016-05-01T07:12:59Z</time>
      </trkpt>
      <trkpt lat="43.73068" lon="3.44625">
        <ele>492.4</ele>
        <time>2016-05-01T07:13:02Z</time>
      </trkpt>
      <trkpt lat="43.73074" lon="3.44636">
        <ele>492.9</ele>
        <time>2016-05-01T07:13:06Z</time>
      </trkpt>
      <trkpt lat="43.73078" lon="3.44644">
        <ele>493.5</ele>
        <time>2016-05-01T07:13:11Z</time>
      </trkpt>
      <trkpt lat="43.73081" lon="3.44654">
        <ele>493.8</ele>
        <time>2016-05-01T07:13:14Z</time>
      </trkpt>
      <trkpt lat="43.73083" lon="3.44664">
        <ele>493.9</ele>
        <time>2016-05-01T07:13:17Z</time>
      </trkpt>
      <trkpt lat="43.73085" lon="3.44675">
        <ele>494</ele>
        <time>2016-05-01T07:13:21Z</time>
      </trkpt>
      <trkpt lat="43.73088" lon="3.44685">
        <ele>494.1</ele>
        <time>2016-05-01T07:13:24Z</time>
      </trkpt>
      <trkpt lat="43.7309" lon="3.44696">
        <ele>494.5</ele>
        <time>2016-05-01T07:13:28Z</time>
      </trkpt>
      <trkpt lat="43.73094" lon="3.44708">
        <ele>494.9</ele>
        <time>2016-05-01T07:13:32Z</time>
      </trkpt>
      <trkpt lat="43.73097" lon="3.44719">
        <ele>495.1</ele>
        <time>2016-05-01T07:13:35Z</time>
      </trkpt>
      <trkpt lat="43.731" lon="3.44731">
        <ele>495.3</ele>
        <time>2016-05-01T07:13:38Z</time>
      </trkpt>
      <trkpt lat="43.73101" lon="3.44744">
        <ele>495.6</ele>
        <time>2016-05-01T07:13:43Z</time>
      </trkpt>
      <trkpt lat="43.73101" lon="3.44757">
        <ele>495.8</ele>
        <time>2016-05-01T07:13:47Z</time>
      </trkpt>
      <trkpt lat="43.73102" lon="3.44767">
        <ele>496.1</ele>
        <time>2016-05-01T07:13:50Z</time>
      </trkpt>
      <trkpt lat="43.73103" lon="3.44779">
        <ele>496.5</ele>
        <time>2016-05-01T07:13:53Z</time>
      </trkpt>
      <trkpt lat="43.73103" lon="3.44789">
        <ele>496.6</ele>
        <time>2016-05-01T07:13:56Z</time>
      </trkpt>
      <trkpt lat="43.73106" lon="3.448">
        <ele>496.7</ele>
        <time>2016-05-01T07:14:00Z</time>
      </trkpt>
      <trkpt lat="43.73111" lon="3.44808">
        <ele>497.2</ele>
        <time>2016-05-01T07:14:04Z</time>
      </trkpt>
      <trkpt lat="43.73117" lon="3.44815">
        <ele>498.3</ele>
        <time>2016-05-01T07:14:09Z</time>
      </trkpt>
      <trkpt lat="43.73123" lon="3.44821">
        <ele>499.4</ele>
        <time>2016-05-01T07:14:13Z</time>
      </trkpt>
      <trkpt lat="43.7313" lon="3.44829">
        <ele>500.1</ele>
        <time>2016-05-01T07:14:16Z</time>
      </trkpt>
      <trkpt lat="43.73136" lon="3.44838">
        <ele>500.7</ele>
        <time>2016-05-01T07:14:19Z</time>
      </trkpt>
      <trkpt lat="43.73141" lon="3.44846">
        <ele>501</ele>
        <time>2016-05-01T07:14:22Z</time>
      </trkpt>
      <trkpt lat="43.73143" lon="3.44857">
        <ele>501</ele>
        <time>2016-05-01T07:14:25Z</time>
      </trkpt>
      <trkpt lat="43.73136" lon="3.44867">
        <ele>500.8</ele>
        <time>2016-05-01T07:14:28Z</time>
      </trkpt>
      <trkpt lat="43.7313" lon="3.44872">
        <ele>500.5</ele>
        <time>2016-05-01T07:14:31Z</time>
      </trkpt>
      <trkpt lat="43.73122" lon="3.44876">
        <ele>500</ele>
        <time>2016-05-01T07:14:35Z</time>
      </trkpt>
      <trkpt lat="43.73114" lon="3.44874">
        <ele>499.8</ele>
        <time>2016-05-01T07:14:40Z</time>
      </trkpt>
      <trkpt lat="43.73107" lon="3.44874">
        <ele>499.6</ele>
        <time>2016-05-01T07:14:44Z</time>
      </trkpt>
      <trkpt lat="43.73098" lon="3.44874">
        <ele>499.9</ele>
        <time>2016-05-01T07:14:50Z</time>
      </trkpt>
      <trkpt lat="43.7309" lon="3.44869">
        <ele>500.4</ele>
        <time>2016-05-01T07:14:56Z</time>
      </trkpt>
      <trkpt lat="43.73082" lon="3.4487">
        <ele>501</ele>
        <time>2016-05-01T07:15:02Z</time>
      </trkpt>
      <trkpt lat="43.73075" lon="3.44871">
        <ele>501.6</ele>
        <time>2016-05-01T07:15:07Z</time>
      </trkpt>
      <trkpt lat="43.73068" lon="3.44868">
        <ele>502.3</ele>
        <time>2016-05-01T07:15:12Z</time>
      </trkpt>
      <trkpt lat="43.7306" lon="3.44866">
        <ele>503.2</ele>
        <time>2016-05-01T07:15:19Z</time>
      </trkpt>
      <trkpt lat="43.73052" lon="3.44866">
        <ele>503.9</ele>
        <time>2016-05-01T07:15:25Z</time>
      </trkpt>
      <trkpt lat="43.73043" lon="3.44865">
        <ele>504.5</ele>
        <time>2016-05-01T07:15:31Z</time>
      </trkpt>
      <trkpt lat="43.73034" lon="3.44861">
        <ele>504.9</ele>
        <time>2016-05-01T07:15:35Z</time>
      </trkpt>
      <trkpt lat="43.73026" lon="3.44859">
        <ele>505.4</ele>
        <time>2016-05-01T07:15:39Z</time>
      </trkpt>
      <trkpt lat="43.73019" lon="3.44859">
        <ele>505.9</ele>
        <time>2016-05-01T07:15:43Z</time>
      </trkpt>
      <trkpt lat="43.73011" lon="3.44858">
        <ele>506.4</ele>
        <time>2016-05-01T07:15:47Z</time>
      </trkpt>
      <trkpt lat="43.73002" lon="3.44861">
        <ele>506.8</ele>
        <time>2016-05-01T07:15:52Z</time>
      </trkpt>
      <trkpt lat="43.72993" lon="3.44864">
        <ele>508</ele>
        <time>2016-05-01T07:15:57Z</time>
      </trkpt>
      <trkpt lat="43.72984" lon="3.44867">
        <ele>509.1</ele>
        <time>2016-05-01T07:16:01Z</time>
      </trkpt>
      <trkpt lat="43.72976" lon="3.44869">
        <ele>510.1</ele>
        <time>2016-05-01T07:16:05Z</time>
      </trkpt>
      <trkpt lat="43.72968" lon="3.44871">
        <ele>511</ele>
        <time>2016-05-01T07:16:08Z</time>
      </trkpt>
      <trkpt lat="43.72959" lon="3.44871">
        <ele>512</ele>
        <time>2016-05-01T07:16:12Z</time>
      </trkpt>
      <trkpt lat="43.72952" lon="3.4487">
        <ele>512.7</ele>
        <time>2016-05-01T07:16:16Z</time>
      </trkpt>
      <trkpt lat="43.72944" lon="3.44866">
        <ele>513.7</ele>
        <time>2016-05-01T07:16:21Z</time>
      </trkpt>
      <trkpt lat="43.72936" lon="3.44863">
        <ele>514.1</ele>
        <time>2016-05-01T07:16:26Z</time>
      </trkpt>
      <trkpt lat="43.72928" lon="3.4486">
        <ele>514.1</ele>
        <time>2016-05-01T07:16:29Z</time>
      </trkpt>
      <trkpt lat="43.7292" lon="3.44856">
        <ele>514.6</ele>
        <time>2016-05-01T07:16:34Z</time>
      </trkpt>
      <trkpt lat="43.72912" lon="3.44854">
        <ele>515.1</ele>
        <time>2016-05-01T07:16:38Z</time>
      </trkpt>
      <trkpt lat="43.72904" lon="3.44852">
        <ele>515.6</ele>
        <time>2016-05-01T07:16:41Z</time>
      </trkpt>
      <trkpt lat="43.72894" lon="3.44849">
        <ele>516.3</ele>
        <time>2016-05-01T07:16:45Z</time>
      </trkpt>
      <trkpt lat="43.72885" lon="3.44848">
        <ele>516.9</ele>
        <time>2016-05-01T07:16:48Z</time>
      </trkpt>
      <trkpt lat="43.72877" lon="3.44848">
        <ele>518.7</ele>
        <time>2016-05-01T07:16:50Z</time>
      </trkpt>
      <trkpt lat="43.72866" lon="3.44851">
        <ele>518.8</ele>
        <time>2016-05-01T07:16:53Z</time>
      </trkpt>
      <trkpt lat="43.72859" lon="3.44852">
        <ele>518.4</ele>
        <time>2016-05-01T07:16:55Z</time>
      </trkpt>
      <trkpt lat="43.72848" lon="3.44852">
        <ele>517.2</ele>
        <time>2016-05-01T07:16:57Z</time>
      </trkpt>
      <trkpt lat="43.72837" lon="3.44853">
        <ele>515.9</ele>
        <time>2016-05-01T07:16:59Z</time>
      </trkpt>
      <trkpt lat="43.72825" lon="3.44852">
        <ele>514.8</ele>
        <time>2016-05-01T07:17:01Z</time>
      </trkpt>
      <trkpt lat="43.72812" lon="3.4485">
        <ele>514.2</ele>
        <time>2016-05-01T07:17:03Z</time>
      </trkpt>
      <trkpt lat="43.72799" lon="3.44849">
        <ele>513.3</ele>
        <time>2016-05-01T07:17:05Z</time>
      </trkpt>
      <trkpt lat="43.7279" lon="3.44847">
        <ele>512.8</ele>
        <time>2016-05-01T07:17:06Z</time>
      </trkpt>
      <trkpt lat="43.72783" lon="3.44846">
        <ele>512.4</ele>
        <time>2016-05-01T07:17:07Z</time>
      </trkpt>
      <trkpt lat="43.72775" lon="3.44845">
        <ele>512.4</ele>
        <time>2016-05-01T07:17:08Z</time>
      </trkpt>
      <trkpt lat="43.72767" lon="3.44844">
        <ele>512.1</ele>
        <time>2016-05-01T07:17:09Z</time>
      </trkpt>
      <trkpt lat="43.72755" lon="3.44844">
        <ele>512.2</ele>
        <time>2016-05-01T07:17:11Z</time>
      </trkpt>
      <trkpt lat="43.72746" lon="3.44846">
        <ele>512.2</ele>
        <time>2016-05-01T07:17:13Z</time>
      </trkpt>
      <trkpt lat="43.72736" lon="3.44848">
        <ele>512.7</ele>
        <time>2016-05-01T07:17:15Z</time>
      </trkpt>
      <trkpt lat="43.72726" lon="3.44847">
        <ele>512.6</ele>
        <time>2016-05-01T07:17:17Z</time>
      </trkpt>
      <trkpt lat="43.72716" lon="3.44845">
        <ele>512.9</ele>
        <time>2016-05-01T07:17:20Z</time>
      </trkpt>
      <trkpt lat="43.72709" lon="3.44844">
        <ele>512.6</ele>
        <time>2016-05-01T07:17:22Z</time>
      </trkpt>
      <trkpt lat="43.72698" lon="3.44842">
        <ele>512.7</ele>
        <time>2016-05-01T07:17:25Z</time>
      </trkpt>
      <trkpt lat="43.72689" lon="3.44841">
        <ele>512.8</ele>
        <time>2016-05-01T07:17:28Z</time>
      </trkpt>
      <trkpt lat="43.72679" lon="3.44841">
        <ele>512.7</ele>
        <time>2016-05-01T07:17:31Z</time>
      </trkpt>
      <trkpt lat="43.72672" lon="3.44841">
        <ele>512.8</ele>
        <time>2016-05-01T07:17:34Z</time>
      </trkpt>
      <trkpt lat="43.72663" lon="3.44844">
        <ele>512.8</ele>
        <time>2016-05-01T07:17:37Z</time>
      </trkpt>
      <trkpt lat="43.72656" lon="3.44844">
        <ele>512.8</ele>
        <time>2016-05-01T07:17:39Z</time>
      </trkpt>
      <trkpt lat="43.72647" lon="3.44844">
        <ele>514.4</ele>
        <time>2016-05-01T07:17:41Z</time>
      </trkpt>
      <trkpt lat="43.72638" lon="3.44844">
        <ele>516</ele>
        <time>2016-05-01T07:17:43Z</time>
      </trkpt>
      <trkpt lat="43.7263" lon="3.44843">
        <ele>516</ele>
        <time>2016-05-01T07:17:45Z</time>
      </trkpt>
      <trkpt lat="43.72619" lon="3.44842">
        <ele>515.6</ele>
        <time>2016-05-01T07:17:48Z</time>
      </trkpt>
      <trkpt lat="43.72612" lon="3.44842">
        <ele>515.6</ele>
        <time>2016-05-01T07:17:50Z</time>
      </trkpt>
      <trkpt lat="43.72603" lon="3.44843">
        <ele>515.9</ele>
        <time>2016-05-01T07:17:52Z</time>
      </trkpt>
      <trkpt lat="43.72594" lon="3.44844">
        <ele>516</ele>
        <time>2016-05-01T07:17:54Z</time>
      </trkpt>
      <trkpt lat="43.72585" lon="3.4484">
        <ele>516.1</ele>
        <time>2016-05-01T07:17:57Z</time>
      </trkpt>
      <trkpt lat="43.72575" lon="3.44835">
        <ele>516</ele>
        <time>2016-05-01T07:18:00Z</time>
      </trkpt>
      <trkpt lat="43.72567" lon="3.44835">
        <ele>515.8</ele>
        <time>2016-05-01T07:18:02Z</time>
      </trkpt>
      <trkpt lat="43.72559" lon="3.44832">
        <ele>515.9</ele>
        <time>2016-05-01T07:18:04Z</time>
      </trkpt>
      <trkpt lat="43.72552" lon="3.44829">
        <ele>515.8</ele>
        <time>2016-05-01T07:18:06Z</time>
      </trkpt>
      <trkpt lat="43.72542" lon="3.44831">
        <ele>515.9</ele>
        <time>2016-05-01T07:18:09Z</time>
      </trkpt>
      <trkpt lat="43.72531" lon="3.44832">
        <ele>515.8</ele>
        <time>2016-05-01T07:18:12Z</time>
      </trkpt>
      <trkpt lat="43.72523" lon="3.44834">
        <ele>515.8</ele>
        <time>2016-05-01T07:18:14Z</time>
      </trkpt>
      <trkpt lat="43.72513" lon="3.44832">
        <ele>515.7</ele>
        <time>2016-05-01T07:18:16Z</time>
      </trkpt>
      <trkpt lat="43.72504" lon="3.44832">
        <ele>515.5</ele>
        <time>2016-05-01T07:18:18Z</time>
      </trkpt>
      <trkpt lat="43.72495" lon="3.44832">
        <ele>515.1</ele>
        <time>2016-05-01T07:18:20Z</time>
      </trkpt>
      <trkpt lat="43.72487" lon="3.44831">
        <ele>514.4</ele>
        <time>2016-05-01T07:18:22Z</time>
      </trkpt>
      <trkpt lat="43.72477" lon="3.4483">
        <ele>514.8</ele>
        <time>2016-05-01T07:18:24Z</time>
      </trkpt>
      <trkpt lat="43.72468" lon="3.44828">
        <ele>514.5</ele>
        <time>2016-05-01T07:18:26Z</time>
      </trkpt>
      <trkpt lat="43.72459" lon="3.44827">
        <ele>514.6</ele>
        <time>2016-05-01T07:18:28Z</time>
      </trkpt>
      <trkpt lat="43.72451" lon="3.44826">
        <ele>514.2</ele>
        <time>2016-05-01T07:18:30Z</time>
      </trkpt>
      <trkpt lat="43.72442" lon="3.44822">
        <ele>513.9</ele>
        <time>2016-05-01T07:18:32Z</time>
      </trkpt>
      <trkpt lat="43.72435" lon="3.44826">
        <ele>513.7</ele>
        <time>2016-05-01T07:18:34Z</time>
      </trkpt>
      <trkpt lat="43.72425" lon="3.44829">
        <ele>513.6</ele>
        <time>2016-05-01T07:18:37Z</time>
      </trkpt>
      <trkpt lat="43.72416" lon="3.44833">
        <ele>513.4</ele>
        <time>2016-05-01T07:18:41Z</time>
      </trkpt>
      <trkpt lat="43.72408" lon="3.44836">
        <ele>513.2</ele>
        <time>2016-05-01T07:18:44Z</time>
      </trkpt>
      <trkpt lat="43.72399" lon="3.44839">
        <ele>512.8</ele>
        <time>2016-05-01T07:18:47Z</time>
      </trkpt>
      <trkpt lat="43.7239" lon="3.44842">
        <ele>511.2</ele>
        <time>2016-05-01T07:18:50Z</time>
      </trkpt>
      <trkpt lat="43.72382" lon="3.44844">
        <ele>511.2</ele>
        <time>2016-05-01T07:18:52Z</time>
      </trkpt>
      <trkpt lat="43.72375" lon="3.44844">
        <ele>511.3</ele>
        <time>2016-05-01T07:18:54Z</time>
      </trkpt>
      <trkpt lat="43.72367" lon="3.44845">
        <ele>511.2</ele>
        <time>2016-05-01T07:18:56Z</time>
      </trkpt>
      <trkpt lat="43.72359" lon="3.44845">
        <ele>511.1</ele>
        <time>2016-05-01T07:18:59Z</time>
      </trkpt>
      <trkpt lat="43.72349" lon="3.44846">
        <ele>511</ele>
        <time>2016-05-01T07:19:02Z</time>
      </trkpt>
      <trkpt lat="43.72341" lon="3.44844">
        <ele>511</ele>
        <time>2016-05-01T07:19:05Z</time>
      </trkpt>
      <trkpt lat="43.72332" lon="3.44842">
        <ele>511.2</ele>
        <time>2016-05-01T07:19:08Z</time>
      </trkpt>
      <trkpt lat="43.72324" lon="3.44841">
        <ele>511.5</ele>
        <time>2016-05-01T07:19:11Z</time>
      </trkpt>
      <trkpt lat="43.72315" lon="3.44838">
        <ele>511.8</ele>
        <time>2016-05-01T07:19:14Z</time>
      </trkpt>
      <trkpt lat="43.72306" lon="3.44835">
        <ele>512.2</ele>
        <time>2016-05-01T07:19:17Z</time>
      </trkpt>
      <trkpt lat="43.72299" lon="3.44831">
        <ele>512.4</ele>
        <time>2016-05-01T07:19:19Z</time>
      </trkpt>
      <trkpt lat="43.72293" lon="3.44825">
        <ele>512.7</ele>
        <time>2016-05-01T07:19:21Z</time>
      </trkpt>
      <trkpt lat="43.72287" lon="3.44817">
        <ele>513.3</ele>
        <time>2016-05-01T07:19:25Z</time>
      </trkpt>
      <trkpt lat="43.72278" lon="3.44817">
        <ele>513.8</ele>
        <time>2016-05-01T07:19:29Z</time>
      </trkpt>
      <trkpt lat="43.7227" lon="3.44823">
        <ele>514.5</ele>
        <time>2016-05-01T07:19:33Z</time>
      </trkpt>
      <trkpt lat="43.72261" lon="3.44829">
        <ele>515.3</ele>
        <time>2016-05-01T07:19:36Z</time>
      </trkpt>
      <trkpt lat="43.72254" lon="3.44833">
        <ele>515.8</ele>
        <time>2016-05-01T07:19:39Z</time>
      </trkpt>
      <trkpt lat="43.72246" lon="3.44838">
        <ele>516</ele>
        <time>2016-05-01T07:19:42Z</time>
      </trkpt>
      <trkpt lat="43.72239" lon="3.44841">
        <ele>516</ele>
        <time>2016-05-01T07:19:45Z</time>
      </trkpt>
      <trkpt lat="43.72232" lon="3.44846">
        <ele>516</ele>
        <time>2016-05-01T07:19:48Z</time>
      </trkpt>
      <trkpt lat="43.72226" lon="3.44853">
        <ele>516.1</ele>
        <time>2016-05-01T07:19:51Z</time>
      </trkpt>
      <trkpt lat="43.72219" lon="3.44862">
        <ele>516</ele>
        <time>2016-05-01T07:19:54Z</time>
      </trkpt>
      <trkpt lat="43.72211" lon="3.44868">
        <ele>516</ele>
        <time>2016-05-01T07:19:57Z</time>
      </trkpt>
      <trkpt lat="43.72205" lon="3.4487">
        <ele>516</ele>
        <time>2016-05-01T07:20:00Z</time>
      </trkpt>
      <trkpt lat="43.72196" lon="3.44873">
        <ele>516</ele>
        <time>2016-05-01T07:20:04Z</time>
      </trkpt>
      <trkpt lat="43.72189" lon="3.44877">
        <ele>516.3</ele>
        <time>2016-05-01T07:20:08Z</time>
      </trkpt>
      <trkpt lat="43.72181" lon="3.44883">
        <ele>516.6</ele>
        <time>2016-05-01T07:20:11Z</time>
      </trkpt>
      <trkpt lat="43.72174" lon="3.44886">
        <ele>516.8</ele>
        <time>2016-05-01T07:20:14Z</time>
      </trkpt>
      <trkpt lat="43.72165" lon="3.44888">
        <ele>517.2</ele>
        <time>2016-05-01T07:20:18Z</time>
      </trkpt>
      <trkpt lat="43.72156" lon="3.44887">
        <ele>517.6</ele>
        <time>2016-05-01T07:20:22Z</time>
      </trkpt>
      <trkpt lat="43.72148" lon="3.44886">
        <ele>518.2</ele>
        <time>2016-05-01T07:20:25Z</time>
      </trkpt>
      <trkpt lat="43.7214" lon="3.44885">
        <ele>519.2</ele>
        <time>2016-05-01T07:20:31Z</time>
      </trkpt>
      <trkpt lat="43.72131" lon="3.4488">
        <ele>520.2</ele>
        <time>2016-05-01T07:20:36Z</time>
      </trkpt>
      <trkpt lat="43.72125" lon="3.44876">
        <ele>523</ele>
        <time>2016-05-01T07:20:38Z</time>
      </trkpt>
      <trkpt lat="43.72113" lon="3.44873">
        <ele>524.7</ele>
        <time>2016-05-01T07:20:40Z</time>
      </trkpt>
      <trkpt lat="43.721" lon="3.4487">
        <ele>524.9</ele>
        <time>2016-05-01T07:20:42Z</time>
      </trkpt>
      <trkpt lat="43.72086" lon="3.44862">
        <ele>525.1</ele>
        <time>2016-05-01T07:20:44Z</time>
      </trkpt>
      <trkpt lat="43.72078" lon="3.44858">
        <ele>524.9</ele>
        <time>2016-05-01T07:20:45Z</time>
      </trkpt>
      <trkpt lat="43.7207" lon="3.44854">
        <ele>524.3</ele>
        <time>2016-05-01T07:20:46Z</time>
      </trkpt>
      <trkpt lat="43.72063" lon="3.44849">
        <ele>523.2</ele>
        <time>2016-05-01T07:20:47Z</time>
      </trkpt>
      <trkpt lat="43.72056" lon="3.44845">
        <ele>523</ele>
        <time>2016-05-01T07:20:48Z</time>
      </trkpt>
      <trkpt lat="43.72049" lon="3.44841">
        <ele>523.1</ele>
        <time>2016-05-01T07:20:49Z</time>
      </trkpt>
      <trkpt lat="43.72042" lon="3.44837">
        <ele>523.4</ele>
        <time>2016-05-01T07:20:50Z</time>
      </trkpt>
      <trkpt lat="43.72034" lon="3.44832">
        <ele>523.6</ele>
        <time>2016-05-01T07:20:51Z</time>
      </trkpt>
      <trkpt lat="43.72027" lon="3.44828">
        <ele>523.7</ele>
        <time>2016-05-01T07:20:52Z</time>
      </trkpt>
      <trkpt lat="43.72019" lon="3.44824">
        <ele>523.4</ele>
        <time>2016-05-01T07:20:53Z</time>
      </trkpt>
      <trkpt lat="43.72011" lon="3.44819">
        <ele>522.9</ele>
        <time>2016-05-01T07:20:54Z</time>
      </trkpt>
      <trkpt lat="43.72002" lon="3.44818">
        <ele>522.8</ele>
        <time>2016-05-01T07:20:55Z</time>
      </trkpt>
      <trkpt lat="43.71993" lon="3.44818">
        <ele>522.9</ele>
        <time>2016-05-01T07:20:56Z</time>
      </trkpt>
      <trkpt lat="43.71985" lon="3.44817">
        <ele>523.2</ele>
        <time>2016-05-01T07:20:57Z</time>
      </trkpt>
      <trkpt lat="43.71977" lon="3.4482">
        <ele>523.2</ele>
        <time>2016-05-01T07:20:58Z</time>
      </trkpt>
      <trkpt lat="43.71966" lon="3.44829">
        <ele>521.8</ele>
        <time>2016-05-01T07:21:00Z</time>
      </trkpt>
      <trkpt lat="43.7196" lon="3.44845">
        <ele>519.2</ele>
        <time>2016-05-01T07:21:02Z</time>
      </trkpt>
      <trkpt lat="43.71956" lon="3.44859">
        <ele>517.6</ele>
        <time>2016-05-01T07:21:04Z</time>
      </trkpt>
      <trkpt lat="43.71953" lon="3.4487">
        <ele>515.6</ele>
        <time>2016-05-01T07:21:06Z</time>
      </trkpt>
      <trkpt lat="43.7195" lon="3.44882">
        <ele>515</ele>
        <time>2016-05-01T07:21:08Z</time>
      </trkpt>
      <trkpt lat="43.71946" lon="3.44894">
        <ele>514.2</ele>
        <time>2016-05-01T07:21:10Z</time>
      </trkpt>
      <trkpt lat="43.71942" lon="3.44905">
        <ele>514.1</ele>
        <time>2016-05-01T07:21:12Z</time>
      </trkpt>
      <trkpt lat="43.71938" lon="3.44915">
        <ele>513.8</ele>
        <time>2016-05-01T07:21:14Z</time>
      </trkpt>
      <trkpt lat="43.71935" lon="3.44924">
        <ele>513.5</ele>
        <time>2016-05-01T07:21:16Z</time>
      </trkpt>
      <trkpt lat="43.71931" lon="3.44934">
        <ele>513.3</ele>
        <time>2016-05-01T07:21:18Z</time>
      </trkpt>
      <trkpt lat="43.71928" lon="3.44946">
        <ele>513.4</ele>
        <time>2016-05-01T07:21:21Z</time>
      </trkpt>
      <trkpt lat="43.71925" lon="3.44957">
        <ele>513.5</ele>
        <time>2016-05-01T07:21:24Z</time>
      </trkpt>
      <trkpt lat="43.71921" lon="3.44967">
        <ele>513.5</ele>
        <time>2016-05-01T07:21:27Z</time>
      </trkpt>
      <trkpt lat="43.71918" lon="3.44976">
        <ele>513.6</ele>
        <time>2016-05-01T07:21:30Z</time>
      </trkpt>
      <trkpt lat="43.71915" lon="3.44988">
        <ele>513.8</ele>
        <time>2016-05-01T07:21:34Z</time>
      </trkpt>
      <trkpt lat="43.71911" lon="3.44998">
        <ele>514.1</ele>
        <time>2016-05-01T07:21:38Z</time>
      </trkpt>
      <trkpt lat="43.71908" lon="3.4501">
        <ele>514.3</ele>
        <time>2016-05-01T07:21:42Z</time>
      </trkpt>
      <trkpt lat="43.71907" lon="3.45022">
        <ele>514.5</ele>
        <time>2016-05-01T07:21:46Z</time>
      </trkpt>
      <trkpt lat="43.71905" lon="3.45034">
        <ele>514.7</ele>
        <time>2016-05-01T07:21:50Z</time>
      </trkpt>
      <trkpt lat="43.71903" lon="3.45044">
        <ele>514.9</ele>
        <time>2016-05-01T07:21:53Z</time>
      </trkpt>
      <trkpt lat="43.719" lon="3.45056">
        <ele>515.2</ele>
        <time>2016-05-01T07:21:56Z</time>
      </trkpt>
      <trkpt lat="43.71898" lon="3.45068">
        <ele>515.5</ele>
        <time>2016-05-01T07:21:59Z</time>
      </trkpt>
      <trkpt lat="43.71897" lon="3.45078">
        <ele>515.5</ele>
        <time>2016-05-01T07:22:02Z</time>
      </trkpt>
      <trkpt lat="43.71896" lon="3.45089">
        <ele>516</ele>
        <time>2016-05-01T07:22:07Z</time>
      </trkpt>
      <trkpt lat="43.71894" lon="3.45096">
        <ele>516.7</ele>
        <time>2016-05-01T07:22:14Z</time>
      </trkpt>
      <trkpt lat="43.71895" lon="3.45107">
        <ele>518.1</ele>
        <time>2016-05-01T07:22:35Z</time>
      </trkpt>
      <trkpt lat="43.71895" lon="3.45119">
        <ele>518.4</ele>
        <time>2016-05-01T07:22:38Z</time>
      </trkpt>
      <trkpt lat="43.71894" lon="3.45132">
        <ele>520</ele>
        <time>2016-05-01T07:22:40Z</time>
      </trkpt>
      <trkpt lat="43.71893" lon="3.45142">
        <ele>521.4</ele>
        <time>2016-05-01T07:22:42Z</time>
      </trkpt>
      <trkpt lat="43.71892" lon="3.45155">
        <ele>523.3</ele>
        <time>2016-05-01T07:22:44Z</time>
      </trkpt>
      <trkpt lat="43.71889" lon="3.45168">
        <ele>523.9</ele>
        <time>2016-05-01T07:22:46Z</time>
      </trkpt>
      <trkpt lat="43.7189" lon="3.45185">
        <ele>524.6</ele>
        <time>2016-05-01T07:22:48Z</time>
      </trkpt>
      <trkpt lat="43.71889" lon="3.45201">
        <ele>524.4</ele>
        <time>2016-05-01T07:22:50Z</time>
      </trkpt>
      <trkpt lat="43.71888" lon="3.45214">
        <ele>524</ele>
        <time>2016-05-01T07:22:52Z</time>
      </trkpt>
      <trkpt lat="43.71888" lon="3.45228">
        <ele>523.9</ele>
        <time>2016-05-01T07:22:54Z</time>
      </trkpt>
      <trkpt lat="43.71888" lon="3.45245">
        <ele>524</ele>
        <time>2016-05-01T07:22:56Z</time>
      </trkpt>
      <trkpt lat="43.71887" lon="3.45255">
        <ele>523.8</ele>
        <time>2016-05-01T07:22:58Z</time>
      </trkpt>
      <trkpt lat="43.71887" lon="3.45269">
        <ele>522.8</ele>
        <time>2016-05-01T07:23:01Z</time>
      </trkpt>
      <trkpt lat="43.71887" lon="3.4528">
        <ele>522.6</ele>
        <time>2016-05-01T07:23:03Z</time>
      </trkpt>
      <trkpt lat="43.71887" lon="3.45291">
        <ele>522.6</ele>
        <time>2016-05-01T07:23:05Z</time>
      </trkpt>
      <trkpt lat="43.71885" lon="3.45301">
        <ele>522.6</ele>
        <time>2016-05-01T07:23:07Z</time>
      </trkpt>
      <trkpt lat="43.71884" lon="3.45311">
        <ele>522.6</ele>
        <time>2016-05-01T07:23:09Z</time>
      </trkpt>
      <trkpt lat="43.71884" lon="3.45325">
        <ele>522.6</ele>
        <time>2016-05-01T07:23:12Z</time>
      </trkpt>
      <trkpt lat="43.71885" lon="3.45336">
        <ele>522.7</ele>
        <time>2016-05-01T07:23:14Z</time>
      </trkpt>
      <trkpt lat="43.71883" lon="3.45349">
        <ele>523</ele>
        <time>2016-05-01T07:23:17Z</time>
      </trkpt>
      <trkpt lat="43.71882" lon="3.45361">
        <ele>523.2</ele>
        <time>2016-05-01T07:23:20Z</time>
      </trkpt>
      <trkpt lat="43.71882" lon="3.45372">
        <ele>523.6</ele>
        <time>2016-05-01T07:23:23Z</time>
      </trkpt>
      <trkpt lat="43.71882" lon="3.45382">
        <ele>524</ele>
        <time>2016-05-01T07:23:26Z</time>
      </trkpt>
      <trkpt lat="43.71881" lon="3.45393">
        <ele>524.4</ele>
        <time>2016-05-01T07:23:30Z</time>
      </trkpt>
      <trkpt lat="43.71878" lon="3.45406">
        <ele>525.3</ele>
        <time>2016-05-01T07:23:33Z</time>
      </trkpt>
      <trkpt lat="43.71875" lon="3.4542">
        <ele>525.7</ele>
        <time>2016-05-01T07:23:35Z</time>
      </trkpt>
      <trkpt lat="43.71874" lon="3.45435">
        <ele>526.9</ele>
        <time>2016-05-01T07:23:37Z</time>
      </trkpt>
      <trkpt lat="43.71875" lon="3.45448">
        <ele>527.8</ele>
        <time>2016-05-01T07:23:39Z</time>
      </trkpt>
      <trkpt lat="43.71876" lon="3.4546">
        <ele>527.9</ele>
        <time>2016-05-01T07:23:41Z</time>
      </trkpt>
      <trkpt lat="43.71872" lon="3.45477">
        <ele>527</ele>
        <time>2016-05-01T07:23:43Z</time>
      </trkpt>
      <trkpt lat="43.71864" lon="3.45488">
        <ele>526.2</ele>
        <time>2016-05-01T07:23:45Z</time>
      </trkpt>
      <trkpt lat="43.71855" lon="3.45495">
        <ele>526.1</ele>
        <time>2016-05-01T07:23:47Z</time>
      </trkpt>
      <trkpt lat="43.71847" lon="3.455">
        <ele>525.6</ele>
        <time>2016-05-01T07:23:49Z</time>
      </trkpt>
      <trkpt lat="43.71838" lon="3.45507">
        <ele>525.6</ele>
        <time>2016-05-01T07:23:51Z</time>
      </trkpt>
      <trkpt lat="43.71833" lon="3.45515">
        <ele>524.9</ele>
        <time>2016-05-01T07:23:53Z</time>
      </trkpt>
      <trkpt lat="43.71827" lon="3.45523">
        <ele>524.6</ele>
        <time>2016-05-01T07:23:57Z</time>
      </trkpt>
      <trkpt lat="43.7182" lon="3.45532">
        <ele>524.4</ele>
        <time>2016-05-01T07:24:01Z</time>
      </trkpt>
      <trkpt lat="43.71814" lon="3.45539">
        <ele>524.3</ele>
        <time>2016-05-01T07:24:05Z</time>
      </trkpt>
      <trkpt lat="43.71808" lon="3.4555">
        <ele>524.4</ele>
        <time>2016-05-01T07:24:08Z</time>
      </trkpt>
      <trkpt lat="43.71803" lon="3.45559">
        <ele>524.4</ele>
        <time>2016-05-01T07:24:10Z</time>
      </trkpt>
      <trkpt lat="43.71798" lon="3.45569">
        <ele>524.4</ele>
        <time>2016-05-01T07:24:12Z</time>
      </trkpt>
      <trkpt lat="43.7179" lon="3.4558">
        <ele>524.2</ele>
        <time>2016-05-01T07:24:14Z</time>
      </trkpt>
      <trkpt lat="43.71785" lon="3.45594">
        <ele>523.5</ele>
        <time>2016-05-01T07:24:16Z</time>
      </trkpt>
      <trkpt lat="43.7178" lon="3.4561">
        <ele>522.5</ele>
        <time>2016-05-01T07:24:18Z</time>
      </trkpt>
      <trkpt lat="43.71779" lon="3.45624">
        <ele>521.3</ele>
        <time>2016-05-01T07:24:20Z</time>
      </trkpt>
      <trkpt lat="43.7178" lon="3.45635">
        <ele>520.4</ele>
        <time>2016-05-01T07:24:22Z</time>
      </trkpt>
      <trkpt lat="43.71779" lon="3.4565">
        <ele>519.6</ele>
        <time>2016-05-01T07:24:25Z</time>
      </trkpt>
      <trkpt lat="43.71779" lon="3.45661">
        <ele>518.9</ele>
        <time>2016-05-01T07:24:27Z</time>
      </trkpt>
      <trkpt lat="43.71775" lon="3.45672">
        <ele>517</ele>
        <time>2016-05-01T07:24:29Z</time>
      </trkpt>
      <trkpt lat="43.71769" lon="3.45677">
        <ele>516</ele>
        <time>2016-05-01T07:24:31Z</time>
      </trkpt>
      <trkpt lat="43.71764" lon="3.45685">
        <ele>515.8</ele>
        <time>2016-05-01T07:24:33Z</time>
      </trkpt>
      <trkpt lat="43.71759" lon="3.45694">
        <ele>514.4</ele>
        <time>2016-05-01T07:24:35Z</time>
      </trkpt>
      <trkpt lat="43.71752" lon="3.45707">
        <ele>513.2</ele>
        <time>2016-05-01T07:24:38Z</time>
      </trkpt>
      <trkpt lat="43.71743" lon="3.4571">
        <ele>512.2</ele>
        <time>2016-05-01T07:24:40Z</time>
      </trkpt>
      <trkpt lat="43.71733" lon="3.45717">
        <ele>510.6</ele>
        <time>2016-05-01T07:24:43Z</time>
      </trkpt>
      <trkpt lat="43.71724" lon="3.45714">
        <ele>510.2</ele>
        <time>2016-05-01T07:24:46Z</time>
      </trkpt>
      <trkpt lat="43.71715" lon="3.45717">
        <ele>509.7</ele>
        <time>2016-05-01T07:24:49Z</time>
      </trkpt>
      <trkpt lat="43.71709" lon="3.45728">
        <ele>508.7</ele>
        <time>2016-05-01T07:24:54Z</time>
      </trkpt>
      <trkpt lat="43.71706" lon="3.45738">
        <ele>508.3</ele>
        <time>2016-05-01T07:24:56Z</time>
      </trkpt>
      <trkpt lat="43.71698" lon="3.45745">
        <ele>507.8</ele>
        <time>2016-05-01T07:24:59Z</time>
      </trkpt>
      <trkpt lat="43.71691" lon="3.45749">
        <ele>507</ele>
        <time>2016-05-01T07:25:03Z</time>
      </trkpt>
      <trkpt lat="43.7169" lon="3.45752">
        <ele>506.3</ele>
        <time>2016-05-01T07:25:10Z</time>
      </trkpt>
      <trkpt lat="43.7169" lon="3.45757">
        <ele>504.9</ele>
        <time>2016-05-01T07:25:22Z</time>
      </trkpt>
      <trkpt lat="43.71681" lon="3.45763">
        <ele>503.1</ele>
        <time>2016-05-01T07:25:31Z</time>
      </trkpt>
      <trkpt lat="43.71675" lon="3.45766">
        <ele>501.6</ele>
        <time>2016-05-01T07:25:46Z</time>
      </trkpt>
      <trkpt lat="43.71675" lon="3.45777">
        <ele>500.7</ele>
        <time>2016-05-01T07:25:53Z</time>
      </trkpt>
      <trkpt lat="43.7167" lon="3.45788">
        <ele>499.9</ele>
        <time>2016-05-01T07:25:57Z</time>
      </trkpt>
      <trkpt lat="43.71665" lon="3.45799">
        <ele>499.1</ele>
        <time>2016-05-01T07:26:01Z</time>
      </trkpt>
      <trkpt lat="43.71657" lon="3.45805">
        <ele>498.5</ele>
        <time>2016-05-01T07:26:05Z</time>
      </trkpt>
      <trkpt lat="43.7165" lon="3.45806">
        <ele>497</ele>
        <time>2016-05-01T07:26:15Z</time>
      </trkpt>
      <trkpt lat="43.71642" lon="3.45803">
        <ele>496.5</ele>
        <time>2016-05-01T07:26:20Z</time>
      </trkpt>
      <trkpt lat="43.71635" lon="3.45806">
        <ele>495.8</ele>
        <time>2016-05-01T07:26:26Z</time>
      </trkpt>
      <trkpt lat="43.71627" lon="3.45812">
        <ele>495.2</ele>
        <time>2016-05-01T07:26:31Z</time>
      </trkpt>
      <trkpt lat="43.71621" lon="3.45817">
        <ele>494.8</ele>
        <time>2016-05-01T07:26:35Z</time>
      </trkpt>
      <trkpt lat="43.71614" lon="3.45824">
        <ele>494.5</ele>
        <time>2016-05-01T07:26:40Z</time>
      </trkpt>
      <trkpt lat="43.71607" lon="3.45828">
        <ele>494.4</ele>
        <time>2016-05-01T07:26:43Z</time>
      </trkpt>
      <trkpt lat="43.71604" lon="3.45832">
        <ele>494.4</ele>
        <time>2016-05-01T07:26:50Z</time>
      </trkpt>
      <trkpt lat="43.71597" lon="3.45842">
        <ele>494.6</ele>
        <time>2016-05-01T07:27:04Z</time>
      </trkpt>
      <trkpt lat="43.71595" lon="3.45849">
        <ele>496.2</ele>
        <time>2016-05-01T07:27:20Z</time>
      </trkpt>
      <trkpt lat="43.71593" lon="3.45866">
        <ele>497.4</ele>
        <time>2016-05-01T07:27:28Z</time>
      </trkpt>
      <trkpt lat="43.71592" lon="3.45872">
        <ele>498.4</ele>
        <time>2016-05-01T07:27:35Z</time>
      </trkpt>
      <trkpt lat="43.71599" lon="3.4588">
        <ele>499.1</ele>
        <time>2016-05-01T07:27:53Z</time>
      </trkpt>
      <trkpt lat="43.71604" lon="3.45888">
        <ele>500</ele>
        <time>2016-05-01T07:27:58Z</time>
      </trkpt>
      <trkpt lat="43.71608" lon="3.459">
        <ele>500.3</ele>
        <time>2016-05-01T07:28:02Z</time>
      </trkpt>
      <trkpt lat="43.71611" lon="3.45912">
        <ele>500.5</ele>
        <time>2016-05-01T07:28:04Z</time>
      </trkpt>
      <trkpt lat="43.71611" lon="3.45923">
        <ele>500.3</ele>
        <time>2016-05-01T07:28:06Z</time>
      </trkpt>
      <trkpt lat="43.71612" lon="3.45937">
        <ele>500.7</ele>
        <time>2016-05-01T07:28:08Z</time>
      </trkpt>
      <trkpt lat="43.71609" lon="3.45953">
        <ele>499.8</ele>
        <time>2016-05-01T07:28:10Z</time>
      </trkpt>
      <trkpt lat="43.71605" lon="3.45965">
        <ele>498.7</ele>
        <time>2016-05-01T07:28:12Z</time>
      </trkpt>
      <trkpt lat="43.71605" lon="3.45977">
        <ele>498.8</ele>
        <time>2016-05-01T07:28:15Z</time>
      </trkpt>
      <trkpt lat="43.71605" lon="3.45992">
        <ele>498.4</ele>
        <time>2016-05-01T07:28:17Z</time>
      </trkpt>
      <trkpt lat="43.71607" lon="3.46009">
        <ele>496.9</ele>
        <time>2016-05-01T07:28:19Z</time>
      </trkpt>
      <trkpt lat="43.71607" lon="3.46025">
        <ele>494.3</ele>
        <time>2016-05-01T07:28:21Z</time>
      </trkpt>
      <trkpt lat="43.71604" lon="3.46044">
        <ele>492</ele>
        <time>2016-05-01T07:28:23Z</time>
      </trkpt>
      <trkpt lat="43.716" lon="3.46058">
        <ele>491.2</ele>
        <time>2016-05-01T07:28:25Z</time>
      </trkpt>
      <trkpt lat="43.71596" lon="3.46073">
        <ele>490.6</ele>
        <time>2016-05-01T07:28:27Z</time>
      </trkpt>
      <trkpt lat="43.71595" lon="3.4609">
        <ele>489.9</ele>
        <time>2016-05-01T07:28:29Z</time>
      </trkpt>
      <trkpt lat="43.71593" lon="3.46102">
        <ele>489.2</ele>
        <time>2016-05-01T07:28:31Z</time>
      </trkpt>
      <trkpt lat="43.71591" lon="3.46114">
        <ele>487.3</ele>
        <time>2016-05-01T07:28:33Z</time>
      </trkpt>
      <trkpt lat="43.71591" lon="3.46125">
        <ele>485.5</ele>
        <time>2016-05-01T07:28:35Z</time>
      </trkpt>
      <trkpt lat="43.71586" lon="3.4614">
        <ele>484.8</ele>
        <time>2016-05-01T07:28:37Z</time>
      </trkpt>
      <trkpt lat="43.71581" lon="3.46151">
        <ele>484.7</ele>
        <time>2016-05-01T07:28:39Z</time>
      </trkpt>
      <trkpt lat="43.7158" lon="3.46162">
        <ele>484.6</ele>
        <time>2016-05-01T07:28:41Z</time>
      </trkpt>
      <trkpt lat="43.7158" lon="3.46173">
        <ele>484.6</ele>
        <time>2016-05-01T07:28:43Z</time>
      </trkpt>
      <trkpt lat="43.71576" lon="3.46186">
        <ele>484.5</ele>
        <time>2016-05-01T07:28:46Z</time>
      </trkpt>
      <trkpt lat="43.7157" lon="3.46199">
        <ele>484.2</ele>
        <time>2016-05-01T07:28:49Z</time>
      </trkpt>
      <trkpt lat="43.71565" lon="3.46209">
        <ele>484</ele>
        <time>2016-05-01T07:28:52Z</time>
      </trkpt>
      <trkpt lat="43.71561" lon="3.46221">
        <ele>483.7</ele>
        <time>2016-05-01T07:28:55Z</time>
      </trkpt>
      <trkpt lat="43.71559" lon="3.46232">
        <ele>483.3</ele>
        <time>2016-05-01T07:28:58Z</time>
      </trkpt>
      <trkpt lat="43.71558" lon="3.46243">
        <ele>482.8</ele>
        <time>2016-05-01T07:29:01Z</time>
      </trkpt>
      <trkpt lat="43.7156" lon="3.46252">
        <ele>482.6</ele>
        <time>2016-05-01T07:29:03Z</time>
      </trkpt>
      <trkpt lat="43.71558" lon="3.46265">
        <ele>481</ele>
        <time>2016-05-01T07:29:05Z</time>
      </trkpt>
      <trkpt lat="43.71557" lon="3.46277">
        <ele>480.4</ele>
        <time>2016-05-01T07:29:07Z</time>
      </trkpt>
      <trkpt lat="43.71553" lon="3.46289">
        <ele>480</ele>
        <time>2016-05-01T07:29:10Z</time>
      </trkpt>
      <trkpt lat="43.71547" lon="3.463">
        <ele>477.8</ele>
        <time>2016-05-01T07:29:13Z</time>
      </trkpt>
      <trkpt lat="43.71539" lon="3.46303">
        <ele>476</ele>
        <time>2016-05-01T07:29:15Z</time>
      </trkpt>
      <trkpt lat="43.71531" lon="3.46306">
        <ele>475.5</ele>
        <time>2016-05-01T07:29:18Z</time>
      </trkpt>
      <trkpt lat="43.71523" lon="3.4631">
        <ele>474.3</ele>
        <time>2016-05-01T07:29:20Z</time>
      </trkpt>
      <trkpt lat="43.71516" lon="3.46313">
        <ele>474.1</ele>
        <time>2016-05-01T07:29:23Z</time>
      </trkpt>
      <trkpt lat="43.71508" lon="3.4632">
        <ele>472.1</ele>
        <time>2016-05-01T07:29:25Z</time>
      </trkpt>
      <trkpt lat="43.71501" lon="3.46325">
        <ele>471.6</ele>
        <time>2016-05-01T07:29:32Z</time>
      </trkpt>
      <trkpt lat="43.71493" lon="3.46335">
        <ele>471.4</ele>
        <time>2016-05-01T07:29:35Z</time>
      </trkpt>
      <trkpt lat="43.71486" lon="3.46341">
        <ele>471.2</ele>
        <time>2016-05-01T07:29:37Z</time>
      </trkpt>
      <trkpt lat="43.71488" lon="3.46351">
        <ele>470.9</ele>
        <time>2016-05-01T07:29:40Z</time>
      </trkpt>
      <trkpt lat="43.71485" lon="3.46364">
        <ele>470.5</ele>
        <time>2016-05-01T07:29:43Z</time>
      </trkpt>
      <trkpt lat="43.71482" lon="3.46368">
        <ele>469.1</ele>
        <time>2016-05-01T07:29:50Z</time>
      </trkpt>
      <trkpt lat="43.71481" lon="3.46366">
        <ele>468.4</ele>
        <time>2016-05-01T07:29:56Z</time>
      </trkpt>
      <trkpt lat="43.7148" lon="3.46364">
        <ele>466.9</ele>
        <time>2016-05-01T07:30:09Z</time>
      </trkpt>
      <trkpt lat="43.71482" lon="3.46361">
        <ele>466.2</ele>
        <time>2016-05-01T07:30:16Z</time>
      </trkpt>
      <trkpt lat="43.71477" lon="3.46375">
        <ele>464.9</ele>
        <time>2016-05-01T07:30:36Z</time>
      </trkpt>
      <trkpt lat="43.71468" lon="3.46383">
        <ele>462.7</ele>
        <time>2016-05-01T07:30:38Z</time>
      </trkpt>
      <trkpt lat="43.7146" lon="3.46387">
        <ele>461.1</ele>
        <time>2016-05-01T07:30:40Z</time>
      </trkpt>
      <trkpt lat="43.71453" lon="3.46395">
        <ele>459.8</ele>
        <time>2016-05-01T07:30:42Z</time>
      </trkpt>
      <trkpt lat="43.7145" lon="3.46411">
        <ele>457.4</ele>
        <time>2016-05-01T07:30:45Z</time>
      </trkpt>
      <trkpt lat="43.71444" lon="3.46423">
        <ele>455.1</ele>
        <time>2016-05-01T07:30:47Z</time>
      </trkpt>
      <trkpt lat="43.71434" lon="3.46433">
        <ele>452.2</ele>
        <time>2016-05-01T07:30:49Z</time>
      </trkpt>
      <trkpt lat="43.71429" lon="3.46444">
        <ele>449.8</ele>
        <time>2016-05-01T07:30:51Z</time>
      </trkpt>
      <trkpt lat="43.71428" lon="3.46455">
        <ele>447.3</ele>
        <time>2016-05-01T07:30:53Z</time>
      </trkpt>
      <trkpt lat="43.71426" lon="3.46465">
        <ele>446.1</ele>
        <time>2016-05-01T07:30:55Z</time>
      </trkpt>
      <trkpt lat="43.71423" lon="3.46475">
        <ele>445.7</ele>
        <time>2016-05-01T07:31:01Z</time>
      </trkpt>
      <trkpt lat="43.71417" lon="3.46483">
        <ele>445.7</ele>
        <time>2016-05-01T07:31:04Z</time>
      </trkpt>
      <trkpt lat="43.71408" lon="3.46489">
        <ele>445.6</ele>
        <time>2016-05-01T07:31:07Z</time>
      </trkpt>
      <trkpt lat="43.714" lon="3.46498">
        <ele>445.1</ele>
        <time>2016-05-01T07:31:09Z</time>
      </trkpt>
      <trkpt lat="43.71392" lon="3.46505">
        <ele>444.4</ele>
        <time>2016-05-01T07:31:11Z</time>
      </trkpt>
      <trkpt lat="43.71382" lon="3.46512">
        <ele>442.8</ele>
        <time>2016-05-01T07:31:13Z</time>
      </trkpt>
      <trkpt lat="43.71373" lon="3.4652">
        <ele>440.9</ele>
        <time>2016-05-01T07:31:15Z</time>
      </trkpt>
      <trkpt lat="43.71363" lon="3.46526">
        <ele>439.8</ele>
        <time>2016-05-01T07:31:17Z</time>
      </trkpt>
      <trkpt lat="43.71353" lon="3.46527">
        <ele>438.6</ele>
        <time>2016-05-01T07:31:19Z</time>
      </trkpt>
      <trkpt lat="43.71343" lon="3.46528">
        <ele>436.8</ele>
        <time>2016-05-01T07:31:21Z</time>
      </trkpt>
      <trkpt lat="43.71332" lon="3.46529">
        <ele>435.7</ele>
        <time>2016-05-01T07:31:23Z</time>
      </trkpt>
      <trkpt lat="43.71318" lon="3.46533">
        <ele>435.3</ele>
        <time>2016-05-01T07:31:25Z</time>
      </trkpt>
      <trkpt lat="43.71311" lon="3.46535">
        <ele>435.5</ele>
        <time>2016-05-01T07:31:26Z</time>
      </trkpt>
      <trkpt lat="43.71303" lon="3.46537">
        <ele>435.7</ele>
        <time>2016-05-01T07:31:27Z</time>
      </trkpt>
      <trkpt lat="43.71296" lon="3.4654">
        <ele>435.6</ele>
        <time>2016-05-01T07:31:28Z</time>
      </trkpt>
      <trkpt lat="43.71287" lon="3.46544">
        <ele>435.3</ele>
        <time>2016-05-01T07:31:29Z</time>
      </trkpt>
      <trkpt lat="43.7128" lon="3.46547">
        <ele>434.7</ele>
        <time>2016-05-01T07:31:30Z</time>
      </trkpt>
      <trkpt lat="43.71272" lon="3.4655">
        <ele>433.9</ele>
        <time>2016-05-01T07:31:31Z</time>
      </trkpt>
      <trkpt lat="43.71265" lon="3.46554">
        <ele>432.9</ele>
        <time>2016-05-01T07:31:32Z</time>
      </trkpt>
      <trkpt lat="43.71258" lon="3.46566">
        <ele>431.1</ele>
        <time>2016-05-01T07:31:34Z</time>
      </trkpt>
      <trkpt lat="43.71251" lon="3.46573">
        <ele>430.6</ele>
        <time>2016-05-01T07:31:36Z</time>
      </trkpt>
      <trkpt lat="43.71246" lon="3.46585">
        <ele>429.6</ele>
        <time>2016-05-01T07:31:39Z</time>
      </trkpt>
      <trkpt lat="43.71242" lon="3.46596">
        <ele>428.7</ele>
        <time>2016-05-01T07:31:41Z</time>
      </trkpt>
      <trkpt lat="43.71239" lon="3.46606">
        <ele>428.5</ele>
        <time>2016-05-01T07:31:43Z</time>
      </trkpt>
      <trkpt lat="43.71239" lon="3.4662">
        <ele>427.5</ele>
        <time>2016-05-01T07:31:46Z</time>
      </trkpt>
      <trkpt lat="43.71236" lon="3.4663">
        <ele>426.4</ele>
        <time>2016-05-01T07:31:48Z</time>
      </trkpt>
      <trkpt lat="43.71232" lon="3.46638">
        <ele>426.2</ele>
        <time>2016-05-01T07:31:50Z</time>
      </trkpt>
      <trkpt lat="43.7123" lon="3.46649">
        <ele>426.1</ele>
        <time>2016-05-01T07:31:53Z</time>
      </trkpt>
      <trkpt lat="43.71223" lon="3.46656">
        <ele>425.8</ele>
        <time>2016-05-01T07:31:58Z</time>
      </trkpt>
      <trkpt lat="43.71218" lon="3.46664">
        <ele>425.6</ele>
        <time>2016-05-01T07:32:02Z</time>
      </trkpt>
      <trkpt lat="43.71213" lon="3.46674">
        <ele>425.6</ele>
        <time>2016-05-01T07:32:06Z</time>
      </trkpt>
      <trkpt lat="43.71211" lon="3.46676">
        <ele>425.6</ele>
        <time>2016-05-01T07:32:13Z</time>
      </trkpt>
      <trkpt lat="43.71203" lon="3.4668">
        <ele>424.9</ele>
        <time>2016-05-01T07:32:16Z</time>
      </trkpt>
      <trkpt lat="43.71193" lon="3.46682">
        <ele>423.8</ele>
        <time>2016-05-01T07:32:18Z</time>
      </trkpt>
      <trkpt lat="43.71181" lon="3.46685">
        <ele>422.6</ele>
        <time>2016-05-01T07:32:20Z</time>
      </trkpt>
      <trkpt lat="43.7117" lon="3.46689">
        <ele>420.6</ele>
        <time>2016-05-01T07:32:22Z</time>
      </trkpt>
      <trkpt lat="43.71164" lon="3.46695">
        <ele>419.9</ele>
        <time>2016-05-01T07:32:23Z</time>
      </trkpt>
      <trkpt lat="43.71154" lon="3.46706">
        <ele>418</ele>
        <time>2016-05-01T07:32:25Z</time>
      </trkpt>
      <trkpt lat="43.71143" lon="3.46715">
        <ele>417.1</ele>
        <time>2016-05-01T07:32:27Z</time>
      </trkpt>
      <trkpt lat="43.71135" lon="3.46724">
        <ele>416.9</ele>
        <time>2016-05-01T07:32:29Z</time>
      </trkpt>
      <trkpt lat="43.71126" lon="3.4673">
        <ele>416.3</ele>
        <time>2016-05-01T07:32:31Z</time>
      </trkpt>
      <trkpt lat="43.71117" lon="3.46727">
        <ele>414.7</ele>
        <time>2016-05-01T07:32:33Z</time>
      </trkpt>
      <trkpt lat="43.71108" lon="3.46723">
        <ele>412.7</ele>
        <time>2016-05-01T07:32:35Z</time>
      </trkpt>
      <trkpt lat="43.71097" lon="3.46726">
        <ele>410.8</ele>
        <time>2016-05-01T07:32:37Z</time>
      </trkpt>
      <trkpt lat="43.7109" lon="3.46738">
        <ele>407.3</ele>
        <time>2016-05-01T07:32:39Z</time>
      </trkpt>
      <trkpt lat="43.71083" lon="3.46748">
        <ele>405.5</ele>
        <time>2016-05-01T07:32:41Z</time>
      </trkpt>
      <trkpt lat="43.71072" lon="3.46754">
        <ele>404.7</ele>
        <time>2016-05-01T07:32:43Z</time>
      </trkpt>
      <trkpt lat="43.71065" lon="3.46764">
        <ele>402.2</ele>
        <time>2016-05-01T07:32:45Z</time>
      </trkpt>
      <trkpt lat="43.71055" lon="3.4677">
        <ele>399.1</ele>
        <time>2016-05-01T07:32:47Z</time>
      </trkpt>
      <trkpt lat="43.71047" lon="3.46777">
        <ele>395.8</ele>
        <time>2016-05-01T07:32:49Z</time>
      </trkpt>
      <trkpt lat="43.71037" lon="3.46788">
        <ele>394.1</ele>
        <time>2016-05-01T07:32:51Z</time>
      </trkpt>
      <trkpt lat="43.71032" lon="3.468">
        <ele>390.7</ele>
        <time>2016-05-01T07:32:53Z</time>
      </trkpt>
      <trkpt lat="43.71026" lon="3.46813">
        <ele>388.5</ele>
        <time>2016-05-01T07:32:55Z</time>
      </trkpt>
      <trkpt lat="43.71019" lon="3.46824">
        <ele>387.4</ele>
        <time>2016-05-01T07:32:57Z</time>
      </trkpt>
      <trkpt lat="43.71011" lon="3.46837">
        <ele>385.8</ele>
        <time>2016-05-01T07:32:59Z</time>
      </trkpt>
      <trkpt lat="43.71004" lon="3.46843">
        <ele>384.3</ele>
        <time>2016-05-01T07:33:00Z</time>
      </trkpt>
      <trkpt lat="43.70998" lon="3.46849">
        <ele>383.1</ele>
        <time>2016-05-01T07:33:01Z</time>
      </trkpt>
      <trkpt lat="43.70992" lon="3.46854">
        <ele>381.8</ele>
        <time>2016-05-01T07:33:02Z</time>
      </trkpt>
      <trkpt lat="43.70986" lon="3.46862">
        <ele>380.5</ele>
        <time>2016-05-01T07:33:03Z</time>
      </trkpt>
      <trkpt lat="43.70976" lon="3.46874">
        <ele>379.2</ele>
        <time>2016-05-01T07:33:05Z</time>
      </trkpt>
      <trkpt lat="43.70969" lon="3.46882">
        <ele>378.3</ele>
        <time>2016-05-01T07:33:07Z</time>
      </trkpt>
      <trkpt lat="43.70964" lon="3.46889">
        <ele>377.6</ele>
        <time>2016-05-01T07:33:09Z</time>
      </trkpt>
      <trkpt lat="43.70956" lon="3.46889">
        <ele>376.4</ele>
        <time>2016-05-01T07:33:11Z</time>
      </trkpt>
      <trkpt lat="43.70948" lon="3.46878">
        <ele>375.6</ele>
        <time>2016-05-01T07:33:14Z</time>
      </trkpt>
      <trkpt lat="43.70936" lon="3.46877">
        <ele>374.3</ele>
        <time>2016-05-01T07:33:16Z</time>
      </trkpt>
      <trkpt lat="43.70927" lon="3.46869">
        <ele>372.4</ele>
        <time>2016-05-01T07:33:18Z</time>
      </trkpt>
      <trkpt lat="43.70918" lon="3.46864">
        <ele>370.9</ele>
        <time>2016-05-01T07:33:20Z</time>
      </trkpt>
      <trkpt lat="43.7091" lon="3.46862">
        <ele>370.3</ele>
        <time>2016-05-01T07:33:22Z</time>
      </trkpt>
      <trkpt lat="43.70902" lon="3.46861">
        <ele>369.8</ele>
        <time>2016-05-01T07:33:24Z</time>
      </trkpt>
      <trkpt lat="43.70891" lon="3.46859">
        <ele>367.1</ele>
        <time>2016-05-01T07:33:26Z</time>
      </trkpt>
      <trkpt lat="43.70883" lon="3.46856">
        <ele>366.3</ele>
        <time>2016-05-01T07:33:28Z</time>
      </trkpt>
      <trkpt lat="43.70875" lon="3.46847">
        <ele>363.5</ele>
        <time>2016-05-01T07:33:30Z</time>
      </trkpt>
      <trkpt lat="43.70867" lon="3.46839">
        <ele>361.9</ele>
        <time>2016-05-01T07:33:32Z</time>
      </trkpt>
      <trkpt lat="43.70855" lon="3.46837">
        <ele>358.9</ele>
        <time>2016-05-01T07:33:34Z</time>
      </trkpt>
      <trkpt lat="43.70844" lon="3.46834">
        <ele>356.4</ele>
        <time>2016-05-01T07:33:36Z</time>
      </trkpt>
      <trkpt lat="43.70833" lon="3.46832">
        <ele>355</ele>
        <time>2016-05-01T07:33:38Z</time>
      </trkpt>
      <trkpt lat="43.70824" lon="3.46831">
        <ele>354.5</ele>
        <time>2016-05-01T07:33:40Z</time>
      </trkpt>
      <trkpt lat="43.70816" lon="3.46829">
        <ele>354.1</ele>
        <time>2016-05-01T07:33:42Z</time>
      </trkpt>
      <trkpt lat="43.70804" lon="3.46827">
        <ele>353</ele>
        <time>2016-05-01T07:33:44Z</time>
      </trkpt>
      <trkpt lat="43.70792" lon="3.46827">
        <ele>351.9</ele>
        <time>2016-05-01T07:33:46Z</time>
      </trkpt>
      <trkpt lat="43.70785" lon="3.46821">
        <ele>351.3</ele>
        <time>2016-05-01T07:33:48Z</time>
      </trkpt>
      <trkpt lat="43.70775" lon="3.4681">
        <ele>348.3</ele>
        <time>2016-05-01T07:33:50Z</time>
      </trkpt>
      <trkpt lat="43.70762" lon="3.46802">
        <ele>345.9</ele>
        <time>2016-05-01T07:33:52Z</time>
      </trkpt>
      <trkpt lat="43.7075" lon="3.46793">
        <ele>343.7</ele>
        <time>2016-05-01T07:33:54Z</time>
      </trkpt>
      <trkpt lat="43.70738" lon="3.46789">
        <ele>342</ele>
        <time>2016-05-01T07:33:56Z</time>
      </trkpt>
      <trkpt lat="43.70727" lon="3.46784">
        <ele>341.7</ele>
        <time>2016-05-01T07:33:58Z</time>
      </trkpt>
      <trkpt lat="43.70717" lon="3.46779">
        <ele>341.6</ele>
        <time>2016-05-01T07:34:00Z</time>
      </trkpt>
      <trkpt lat="43.70709" lon="3.46775">
        <ele>342.2</ele>
        <time>2016-05-01T07:34:02Z</time>
      </trkpt>
      <trkpt lat="43.70701" lon="3.46772">
        <ele>343.3</ele>
        <time>2016-05-01T07:34:04Z</time>
      </trkpt>
      <trkpt lat="43.70693" lon="3.46773">
        <ele>343.4</ele>
        <time>2016-05-01T07:34:06Z</time>
      </trkpt>
      <trkpt lat="43.70683" lon="3.46776">
        <ele>343.4</ele>
        <time>2016-05-01T07:34:09Z</time>
      </trkpt>
      <trkpt lat="43.70675" lon="3.46779">
        <ele>343.2</ele>
        <time>2016-05-01T07:34:12Z</time>
      </trkpt>
      <trkpt lat="43.70672" lon="3.46776">
        <ele>341.6</ele>
        <time>2016-05-01T07:39:03Z</time>
      </trkpt>
      <trkpt lat="43.70673" lon="3.46773">
        <ele>341.7</ele>
        <time>2016-05-01T07:39:10Z</time>
      </trkpt>
      <trkpt lat="43.70672" lon="3.46771">
        <ele>341.8</ele>
        <time>2016-05-01T07:39:17Z</time>
      </trkpt>
      <trkpt lat="43.70674" lon="3.46771">
        <ele>342.4</ele>
        <time>2016-05-01T07:40:31Z</time>
      </trkpt>
      <trkpt lat="43.70675" lon="3.46766">
        <ele>343</ele>
        <time>2016-05-01T07:41:00Z</time>
      </trkpt>
      <trkpt lat="43.70675" lon="3.46771">
        <ele>343.1</ele>
        <time>2016-05-01T07:41:14Z</time>
      </trkpt>
      <trkpt lat="43.70675" lon="3.46769">
        <ele>341.1</ele>
        <time>2016-05-01T07:41:34Z</time>
      </trkpt>
      <trkpt lat="43.70678" lon="3.4676">
        <ele>340.5</ele>
        <time>2016-05-01T07:41:40Z</time>
      </trkpt>
      <trkpt lat="43.70681" lon="3.46754">
        <ele>340.7</ele>
        <time>2016-05-01T07:41:47Z</time>
      </trkpt>
      <trkpt lat="43.70677" lon="3.46747">
        <ele>340.9</ele>
        <time>2016-05-01T07:41:54Z</time>
      </trkpt>
      <trkpt lat="43.70674" lon="3.46738">
        <ele>341</ele>
        <time>2016-05-01T07:41:59Z</time>
      </trkpt>
      <trkpt lat="43.70672" lon="3.46727">
        <ele>341.3</ele>
        <time>2016-05-01T07:42:02Z</time>
      </trkpt>
      <trkpt lat="43.70667" lon="3.46716">
        <ele>341.5</ele>
        <time>2016-05-01T07:42:05Z</time>
      </trkpt>
      <trkpt lat="43.7066" lon="3.4671">
        <ele>342.7</ele>
        <time>2016-05-01T07:42:07Z</time>
      </trkpt>
      <trkpt lat="43.70651" lon="3.46706">
        <ele>343.3</ele>
        <time>2016-05-01T07:42:09Z</time>
      </trkpt>
      <trkpt lat="43.70642" lon="3.467">
        <ele>343.2</ele>
        <time>2016-05-01T07:42:11Z</time>
      </trkpt>
      <trkpt lat="43.70632" lon="3.46695">
        <ele>343.8</ele>
        <time>2016-05-01T07:42:13Z</time>
      </trkpt>
      <trkpt lat="43.7062" lon="3.46688">
        <ele>344.4</ele>
        <time>2016-05-01T07:42:15Z</time>
      </trkpt>
      <trkpt lat="43.70608" lon="3.4668">
        <ele>343.1</ele>
        <time>2016-05-01T07:42:17Z</time>
      </trkpt>
      <trkpt lat="43.70596" lon="3.46673">
        <ele>340.6</ele>
        <time>2016-05-01T07:42:19Z</time>
      </trkpt>
      <trkpt lat="43.70585" lon="3.46668">
        <ele>338.4</ele>
        <time>2016-05-01T07:42:21Z</time>
      </trkpt>
      <trkpt lat="43.70573" lon="3.46666">
        <ele>336.6</ele>
        <time>2016-05-01T07:42:23Z</time>
      </trkpt>
      <trkpt lat="43.70561" lon="3.46664">
        <ele>335.2</ele>
        <time>2016-05-01T07:42:25Z</time>
      </trkpt>
      <trkpt lat="43.70549" lon="3.46662">
        <ele>334.9</ele>
        <time>2016-05-01T07:42:27Z</time>
      </trkpt>
      <trkpt lat="43.70537" lon="3.4666">
        <ele>335.1</ele>
        <time>2016-05-01T07:42:29Z</time>
      </trkpt>
      <trkpt lat="43.70526" lon="3.4666">
        <ele>335.5</ele>
        <time>2016-05-01T07:42:31Z</time>
      </trkpt>
      <trkpt lat="43.70515" lon="3.46659">
        <ele>336.2</ele>
        <time>2016-05-01T07:42:33Z</time>
      </trkpt>
      <trkpt lat="43.70508" lon="3.46655">
        <ele>336.5</ele>
        <time>2016-05-01T07:42:35Z</time>
      </trkpt>
      <trkpt lat="43.70504" lon="3.46646">
        <ele>336.2</ele>
        <time>2016-05-01T07:42:39Z</time>
      </trkpt>
      <trkpt lat="43.70498" lon="3.46638">
        <ele>336.2</ele>
        <time>2016-05-01T07:42:42Z</time>
      </trkpt>
      <trkpt lat="43.70493" lon="3.46629">
        <ele>336.5</ele>
        <time>2016-05-01T07:42:46Z</time>
      </trkpt>
      <trkpt lat="43.70486" lon="3.4662">
        <ele>336.7</ele>
        <time>2016-05-01T07:42:52Z</time>
      </trkpt>
      <trkpt lat="43.7048" lon="3.46611">
        <ele>336.9</ele>
        <time>2016-05-01T07:42:57Z</time>
      </trkpt>
      <trkpt lat="43.70474" lon="3.46605">
        <ele>337.1</ele>
        <time>2016-05-01T07:43:01Z</time>
      </trkpt>
      <trkpt lat="43.70468" lon="3.46598">
        <ele>337.3</ele>
        <time>2016-05-01T07:43:04Z</time>
      </trkpt>
      <trkpt lat="43.70462" lon="3.4659">
        <ele>337.4</ele>
        <time>2016-05-01T07:43:08Z</time>
      </trkpt>
      <trkpt lat="43.70459" lon="3.46578">
        <ele>337.5</ele>
        <time>2016-05-01T07:43:12Z</time>
      </trkpt>
      <trkpt lat="43.70454" lon="3.46567">
        <ele>337.5</ele>
        <time>2016-05-01T07:43:15Z</time>
      </trkpt>
      <trkpt lat="43.70449" lon="3.46556">
        <ele>337.5</ele>
        <time>2016-05-01T07:43:18Z</time>
      </trkpt>
      <trkpt lat="43.70444" lon="3.46548">
        <ele>336.8</ele>
        <time>2016-05-01T07:43:20Z</time>
      </trkpt>
      <trkpt lat="43.70439" lon="3.4654">
        <ele>336.5</ele>
        <time>2016-05-01T07:43:22Z</time>
      </trkpt>
      <trkpt lat="43.70433" lon="3.46534">
        <ele>337</ele>
        <time>2016-05-01T07:43:24Z</time>
      </trkpt>
      <trkpt lat="43.70427" lon="3.46526">
        <ele>338.9</ele>
        <time>2016-05-01T07:43:26Z</time>
      </trkpt>
      <trkpt lat="43.70419" lon="3.46522">
        <ele>339.6</ele>
        <time>2016-05-01T07:43:28Z</time>
      </trkpt>
      <trkpt lat="43.70412" lon="3.46519">
        <ele>340.2</ele>
        <time>2016-05-01T07:43:30Z</time>
      </trkpt>
      <trkpt lat="43.70404" lon="3.46517">
        <ele>341</ele>
        <time>2016-05-01T07:43:32Z</time>
      </trkpt>
      <trkpt lat="43.70395" lon="3.46516">
        <ele>341.6</ele>
        <time>2016-05-01T07:43:34Z</time>
      </trkpt>
      <trkpt lat="43.70385" lon="3.46514">
        <ele>342</ele>
        <time>2016-05-01T07:43:36Z</time>
      </trkpt>
      <trkpt lat="43.70375" lon="3.46512">
        <ele>342.3</ele>
        <time>2016-05-01T07:43:38Z</time>
      </trkpt>
      <trkpt lat="43.70364" lon="3.46508">
        <ele>341.9</ele>
        <time>2016-05-01T07:43:40Z</time>
      </trkpt>
      <trkpt lat="43.70353" lon="3.46503">
        <ele>341.6</ele>
        <time>2016-05-01T07:43:42Z</time>
      </trkpt>
      <trkpt lat="43.70343" lon="3.46499">
        <ele>341.5</ele>
        <time>2016-05-01T07:43:44Z</time>
      </trkpt>
      <trkpt lat="43.70333" lon="3.46496">
        <ele>341.9</ele>
        <time>2016-05-01T07:43:46Z</time>
      </trkpt>
      <trkpt lat="43.70323" lon="3.46495">
        <ele>340.7</ele>
        <time>2016-05-01T07:43:48Z</time>
      </trkpt>
      <trkpt lat="43.70312" lon="3.46494">
        <ele>340.5</ele>
        <time>2016-05-01T07:43:50Z</time>
      </trkpt>
      <trkpt lat="43.70303" lon="3.46493">
        <ele>341.5</ele>
        <time>2016-05-01T07:43:52Z</time>
      </trkpt>
      <trkpt lat="43.70295" lon="3.46492">
        <ele>341.9</ele>
        <time>2016-05-01T07:43:54Z</time>
      </trkpt>
      <trkpt lat="43.70285" lon="3.46493">
        <ele>342.2</ele>
        <time>2016-05-01T07:43:56Z</time>
      </trkpt>
      <trkpt lat="43.70277" lon="3.46494">
        <ele>342.3</ele>
        <time>2016-05-01T07:43:58Z</time>
      </trkpt>
      <trkpt lat="43.70268" lon="3.46497">
        <ele>341.4</ele>
        <time>2016-05-01T07:44:00Z</time>
      </trkpt>
      <trkpt lat="43.70259" lon="3.46499">
        <ele>340.3</ele>
        <time>2016-05-01T07:44:02Z</time>
      </trkpt>
      <trkpt lat="43.7025" lon="3.46501">
        <ele>339.8</ele>
        <time>2016-05-01T07:44:04Z</time>
      </trkpt>
      <trkpt lat="43.70241" lon="3.46501">
        <ele>339.4</ele>
        <time>2016-05-01T07:44:06Z</time>
      </trkpt>
      <trkpt lat="43.70233" lon="3.46501">
        <ele>338.9</ele>
        <time>2016-05-01T07:44:08Z</time>
      </trkpt>
      <trkpt lat="43.70225" lon="3.46501">
        <ele>338.5</ele>
        <time>2016-05-01T07:44:10Z</time>
      </trkpt>
      <trkpt lat="43.70216" lon="3.465">
        <ele>338.6</ele>
        <time>2016-05-01T07:44:12Z</time>
      </trkpt>
      <trkpt lat="43.70207" lon="3.465">
        <ele>339</ele>
        <time>2016-05-01T07:44:14Z</time>
      </trkpt>
      <trkpt lat="43.70199" lon="3.46499">
        <ele>339.2</ele>
        <time>2016-05-01T07:44:16Z</time>
      </trkpt>
      <trkpt lat="43.70189" lon="3.46499">
        <ele>339.3</ele>
        <time>2016-05-01T07:44:18Z</time>
      </trkpt>
      <trkpt lat="43.70181" lon="3.46498">
        <ele>340.1</ele>
        <time>2016-05-01T07:44:20Z</time>
      </trkpt>
      <trkpt lat="43.70174" lon="3.46498">
        <ele>340.7</ele>
        <time>2016-05-01T07:44:22Z</time>
      </trkpt>
      <trkpt lat="43.70163" lon="3.46498">
        <ele>340.8</ele>
        <time>2016-05-01T07:44:25Z</time>
      </trkpt>
      <trkpt lat="43.70155" lon="3.46497">
        <ele>340.9</ele>
        <time>2016-05-01T07:44:27Z</time>
      </trkpt>
      <trkpt lat="43.70147" lon="3.46497">
        <ele>341</ele>
        <time>2016-05-01T07:44:29Z</time>
      </trkpt>
      <trkpt lat="43.70139" lon="3.46495">
        <ele>341.9</ele>
        <time>2016-05-01T07:44:31Z</time>
      </trkpt>
      <trkpt lat="43.70132" lon="3.46493">
        <ele>342</ele>
        <time>2016-05-01T07:44:33Z</time>
      </trkpt>
      <trkpt lat="43.70123" lon="3.4649">
        <ele>342.1</ele>
        <time>2016-05-01T07:44:36Z</time>
      </trkpt>
      <trkpt lat="43.70114" lon="3.46486">
        <ele>342.3</ele>
        <time>2016-05-01T07:44:39Z</time>
      </trkpt>
      <trkpt lat="43.70105" lon="3.4648">
        <ele>342.5</ele>
        <time>2016-05-01T07:44:42Z</time>
      </trkpt>
      <trkpt lat="43.70097" lon="3.46474">
        <ele>344.2</ele>
        <time>2016-05-01T07:44:44Z</time>
      </trkpt>
      <trkpt lat="43.70089" lon="3.46468">
        <ele>344.2</ele>
        <time>2016-05-01T07:44:47Z</time>
      </trkpt>
      <trkpt lat="43.70082" lon="3.46463">
        <ele>344.2</ele>
        <time>2016-05-01T07:44:49Z</time>
      </trkpt>
      <trkpt lat="43.70076" lon="3.46454">
        <ele>344.4</ele>
        <time>2016-05-01T07:44:52Z</time>
      </trkpt>
      <trkpt lat="43.70072" lon="3.46442">
        <ele>344.3</ele>
        <time>2016-05-01T07:44:55Z</time>
      </trkpt>
      <trkpt lat="43.70072" lon="3.46428">
        <ele>344.3</ele>
        <time>2016-05-01T07:44:58Z</time>
      </trkpt>
      <trkpt lat="43.70073" lon="3.46412">
        <ele>344.2</ele>
        <time>2016-05-01T07:45:01Z</time>
      </trkpt>
      <trkpt lat="43.70074" lon="3.46401">
        <ele>342.6</ele>
        <time>2016-05-01T07:45:03Z</time>
      </trkpt>
      <trkpt lat="43.70074" lon="3.46391">
        <ele>342.5</ele>
        <time>2016-05-01T07:45:05Z</time>
      </trkpt>
      <trkpt lat="43.70076" lon="3.46381">
        <ele>342</ele>
        <time>2016-05-01T07:45:07Z</time>
      </trkpt>
      <trkpt lat="43.70076" lon="3.4637">
        <ele>341.3</ele>
        <time>2016-05-01T07:45:09Z</time>
      </trkpt>
      <trkpt lat="43.70075" lon="3.46358">
        <ele>341.8</ele>
        <time>2016-05-01T07:45:11Z</time>
      </trkpt>
      <trkpt lat="43.70073" lon="3.46346">
        <ele>341.8</ele>
        <time>2016-05-01T07:45:13Z</time>
      </trkpt>
      <trkpt lat="43.70067" lon="3.46333">
        <ele>341</ele>
        <time>2016-05-01T07:45:15Z</time>
      </trkpt>
      <trkpt lat="43.70062" lon="3.46321">
        <ele>341.2</ele>
        <time>2016-05-01T07:45:17Z</time>
      </trkpt>
      <trkpt lat="43.70058" lon="3.46311">
        <ele>341.4</ele>
        <time>2016-05-01T07:45:18Z</time>
      </trkpt>
      <trkpt lat="43.70052" lon="3.46298">
        <ele>341.5</ele>
        <time>2016-05-01T07:45:20Z</time>
      </trkpt>
      <trkpt lat="43.70046" lon="3.46283">
        <ele>340.2</ele>
        <time>2016-05-01T07:45:22Z</time>
      </trkpt>
      <trkpt lat="43.70039" lon="3.46271">
        <ele>338.8</ele>
        <time>2016-05-01T07:45:24Z</time>
      </trkpt>
      <trkpt lat="43.70029" lon="3.46265">
        <ele>337.5</ele>
        <time>2016-05-01T07:45:26Z</time>
      </trkpt>
      <trkpt lat="43.70018" lon="3.46265">
        <ele>336.8</ele>
        <time>2016-05-01T07:45:28Z</time>
      </trkpt>
      <trkpt lat="43.70007" lon="3.46267">
        <ele>336.6</ele>
        <time>2016-05-01T07:45:30Z</time>
      </trkpt>
      <trkpt lat="43.69996" lon="3.4627">
        <ele>336.8</ele>
        <time>2016-05-01T07:45:32Z</time>
      </trkpt>
      <trkpt lat="43.69983" lon="3.46271">
        <ele>336.8</ele>
        <time>2016-05-01T07:45:34Z</time>
      </trkpt>
      <trkpt lat="43.69971" lon="3.46269">
        <ele>336.6</ele>
        <time>2016-05-01T07:45:36Z</time>
      </trkpt>
      <trkpt lat="43.69958" lon="3.46266">
        <ele>336.2</ele>
        <time>2016-05-01T07:45:38Z</time>
      </trkpt>
      <trkpt lat="43.69946" lon="3.46261">
        <ele>335.6</ele>
        <time>2016-05-01T07:45:40Z</time>
      </trkpt>
      <trkpt lat="43.69934" lon="3.46254">
        <ele>335</ele>
        <time>2016-05-01T07:45:42Z</time>
      </trkpt>
      <trkpt lat="43.69922" lon="3.46248">
        <ele>334.2</ele>
        <time>2016-05-01T07:45:44Z</time>
      </trkpt>
      <trkpt lat="43.69911" lon="3.46241">
        <ele>333.5</ele>
        <time>2016-05-01T07:45:46Z</time>
      </trkpt>
      <trkpt lat="43.69901" lon="3.46234">
        <ele>333.2</ele>
        <time>2016-05-01T07:45:48Z</time>
      </trkpt>
      <trkpt lat="43.69892" lon="3.46225">
        <ele>333.4</ele>
        <time>2016-05-01T07:45:50Z</time>
      </trkpt>
      <trkpt lat="43.69883" lon="3.46214">
        <ele>333.4</ele>
        <time>2016-05-01T07:45:52Z</time>
      </trkpt>
      <trkpt lat="43.69877" lon="3.46197">
        <ele>332.6</ele>
        <time>2016-05-01T07:45:54Z</time>
      </trkpt>
      <trkpt lat="43.6987" lon="3.4618">
        <ele>330.7</ele>
        <time>2016-05-01T07:45:56Z</time>
      </trkpt>
      <trkpt lat="43.69868" lon="3.4617">
        <ele>329.6</ele>
        <time>2016-05-01T07:45:57Z</time>
      </trkpt>
      <trkpt lat="43.69864" lon="3.46159">
        <ele>328.9</ele>
        <time>2016-05-01T07:45:58Z</time>
      </trkpt>
      <trkpt lat="43.69861" lon="3.46148">
        <ele>327.9</ele>
        <time>2016-05-01T07:45:59Z</time>
      </trkpt>
      <trkpt lat="43.69857" lon="3.46137">
        <ele>327</ele>
        <time>2016-05-01T07:46:00Z</time>
      </trkpt>
      <trkpt lat="43.69854" lon="3.46125">
        <ele>326.4</ele>
        <time>2016-05-01T07:46:01Z</time>
      </trkpt>
      <trkpt lat="43.6985" lon="3.46113">
        <ele>325.8</ele>
        <time>2016-05-01T07:46:02Z</time>
      </trkpt>
      <trkpt lat="43.69845" lon="3.46104">
        <ele>325.2</ele>
        <time>2016-05-01T07:46:03Z</time>
      </trkpt>
      <trkpt lat="43.69839" lon="3.46095">
        <ele>324.7</ele>
        <time>2016-05-01T07:46:04Z</time>
      </trkpt>
      <trkpt lat="43.69834" lon="3.46088">
        <ele>324.3</ele>
        <time>2016-05-01T07:46:05Z</time>
      </trkpt>
      <trkpt lat="43.69828" lon="3.4608">
        <ele>324</ele>
        <time>2016-05-01T07:46:06Z</time>
      </trkpt>
      <trkpt lat="43.69821" lon="3.46073">
        <ele>323.5</ele>
        <time>2016-05-01T07:46:07Z</time>
      </trkpt>
      <trkpt lat="43.69813" lon="3.46065">
        <ele>322.9</ele>
        <time>2016-05-01T07:46:08Z</time>
      </trkpt>
      <trkpt lat="43.69806" lon="3.46058">
        <ele>322.1</ele>
        <time>2016-05-01T07:46:09Z</time>
      </trkpt>
      <trkpt lat="43.69798" lon="3.4605">
        <ele>321.1</ele>
        <time>2016-05-01T07:46:10Z</time>
      </trkpt>
      <trkpt lat="43.69789" lon="3.46043">
        <ele>320.1</ele>
        <time>2016-05-01T07:46:11Z</time>
      </trkpt>
      <trkpt lat="43.6978" lon="3.46036">
        <ele>319.5</ele>
        <time>2016-05-01T07:46:12Z</time>
      </trkpt>
      <trkpt lat="43.6977" lon="3.4603">
        <ele>319</ele>
        <time>2016-05-01T07:46:13Z</time>
      </trkpt>
      <trkpt lat="43.6976" lon="3.46025">
        <ele>318.6</ele>
        <time>2016-05-01T07:46:14Z</time>
      </trkpt>
      <trkpt lat="43.6975" lon="3.46022">
        <ele>318.5</ele>
        <time>2016-05-01T07:46:15Z</time>
      </trkpt>
      <trkpt lat="43.69741" lon="3.46019">
        <ele>318.4</ele>
        <time>2016-05-01T07:46:16Z</time>
      </trkpt>
      <trkpt lat="43.69732" lon="3.46017">
        <ele>318.7</ele>
        <time>2016-05-01T07:46:17Z</time>
      </trkpt>
      <trkpt lat="43.69724" lon="3.46016">
        <ele>319</ele>
        <time>2016-05-01T07:46:18Z</time>
      </trkpt>
      <trkpt lat="43.69717" lon="3.46016">
        <ele>319.3</ele>
        <time>2016-05-01T07:46:19Z</time>
      </trkpt>
      <trkpt lat="43.69704" lon="3.46016">
        <ele>320.4</ele>
        <time>2016-05-01T07:46:21Z</time>
      </trkpt>
      <trkpt lat="43.69692" lon="3.46017">
        <ele>321.1</ele>
        <time>2016-05-01T07:46:23Z</time>
      </trkpt>
      <trkpt lat="43.6968" lon="3.46019">
        <ele>321</ele>
        <time>2016-05-01T07:46:25Z</time>
      </trkpt>
      <trkpt lat="43.69669" lon="3.46024">
        <ele>319.9</ele>
        <time>2016-05-01T07:46:27Z</time>
      </trkpt>
      <trkpt lat="43.69659" lon="3.46028">
        <ele>319.5</ele>
        <time>2016-05-01T07:46:29Z</time>
      </trkpt>
      <trkpt lat="43.69649" lon="3.46032">
        <ele>319.6</ele>
        <time>2016-05-01T07:46:31Z</time>
      </trkpt>
      <trkpt lat="43.6964" lon="3.46037">
        <ele>319.4</ele>
        <time>2016-05-01T07:46:33Z</time>
      </trkpt>
      <trkpt lat="43.69632" lon="3.46041">
        <ele>319.7</ele>
        <time>2016-05-01T07:46:35Z</time>
      </trkpt>
      <trkpt lat="43.69622" lon="3.46046">
        <ele>319.8</ele>
        <time>2016-05-01T07:46:37Z</time>
      </trkpt>
      <trkpt lat="43.69612" lon="3.4605">
        <ele>320.1</ele>
        <time>2016-05-01T07:46:39Z</time>
      </trkpt>
      <trkpt lat="43.69603" lon="3.46052">
        <ele>319.4</ele>
        <time>2016-05-01T07:46:41Z</time>
      </trkpt>
      <trkpt lat="43.69595" lon="3.46049">
        <ele>319.7</ele>
        <time>2016-05-01T07:46:43Z</time>
      </trkpt>
      <trkpt lat="43.69585" lon="3.46042">
        <ele>319.9</ele>
        <time>2016-05-01T07:46:45Z</time>
      </trkpt>
      <trkpt lat="43.69575" lon="3.46033">
        <ele>319.7</ele>
        <time>2016-05-01T07:46:47Z</time>
      </trkpt>
      <trkpt lat="43.69565" lon="3.46023">
        <ele>319.7</ele>
        <time>2016-05-01T07:46:49Z</time>
      </trkpt>
      <trkpt lat="43.69559" lon="3.46016">
        <ele>319.5</ele>
        <time>2016-05-01T07:46:50Z</time>
      </trkpt>
      <trkpt lat="43.69553" lon="3.46009">
        <ele>319.2</ele>
        <time>2016-05-01T07:46:51Z</time>
      </trkpt>
      <trkpt lat="43.69547" lon="3.46001">
        <ele>318.6</ele>
        <time>2016-05-01T07:46:52Z</time>
      </trkpt>
      <trkpt lat="43.69541" lon="3.45992">
        <ele>317.8</ele>
        <time>2016-05-01T07:46:53Z</time>
      </trkpt>
      <trkpt lat="43.69535" lon="3.45983">
        <ele>317</ele>
        <time>2016-05-01T07:46:54Z</time>
      </trkpt>
      <trkpt lat="43.69529" lon="3.45974">
        <ele>316.1</ele>
        <time>2016-05-01T07:46:55Z</time>
      </trkpt>
      <trkpt lat="43.69523" lon="3.45964">
        <ele>315.3</ele>
        <time>2016-05-01T07:46:56Z</time>
      </trkpt>
      <trkpt lat="43.69518" lon="3.45954">
        <ele>314.5</ele>
        <time>2016-05-01T07:46:57Z</time>
      </trkpt>
      <trkpt lat="43.69513" lon="3.45945">
        <ele>313.6</ele>
        <time>2016-05-01T07:46:58Z</time>
      </trkpt>
      <trkpt lat="43.69507" lon="3.45936">
        <ele>312.7</ele>
        <time>2016-05-01T07:46:59Z</time>
      </trkpt>
      <trkpt lat="43.69502" lon="3.45928">
        <ele>311.9</ele>
        <time>2016-05-01T07:47:00Z</time>
      </trkpt>
      <trkpt lat="43.69496" lon="3.45919">
        <ele>311.1</ele>
        <time>2016-05-01T07:47:01Z</time>
      </trkpt>
      <trkpt lat="43.6949" lon="3.45912">
        <ele>309.9</ele>
        <time>2016-05-01T07:47:02Z</time>
      </trkpt>
      <trkpt lat="43.69483" lon="3.45903">
        <ele>308.7</ele>
        <time>2016-05-01T07:47:03Z</time>
      </trkpt>
      <trkpt lat="43.69476" lon="3.45895">
        <ele>307.6</ele>
        <time>2016-05-01T07:47:04Z</time>
      </trkpt>
      <trkpt lat="43.69469" lon="3.45887">
        <ele>306.7</ele>
        <time>2016-05-01T07:47:05Z</time>
      </trkpt>
      <trkpt lat="43.69462" lon="3.45879">
        <ele>306</ele>
        <time>2016-05-01T07:47:06Z</time>
      </trkpt>
      <trkpt lat="43.69454" lon="3.4587">
        <ele>304.9</ele>
        <time>2016-05-01T07:47:07Z</time>
      </trkpt>
      <trkpt lat="43.69446" lon="3.45862">
        <ele>303.8</ele>
        <time>2016-05-01T07:47:08Z</time>
      </trkpt>
      <trkpt lat="43.69438" lon="3.45853">
        <ele>302.7</ele>
        <time>2016-05-01T07:47:09Z</time>
      </trkpt>
      <trkpt lat="43.6943" lon="3.45844">
        <ele>302</ele>
        <time>2016-05-01T07:47:10Z</time>
      </trkpt>
      <trkpt lat="43.69422" lon="3.45836">
        <ele>301.7</ele>
        <time>2016-05-01T07:47:11Z</time>
      </trkpt>
      <trkpt lat="43.69414" lon="3.45829">
        <ele>301.6</ele>
        <time>2016-05-01T07:47:12Z</time>
      </trkpt>
      <trkpt lat="43.69406" lon="3.45822">
        <ele>301.3</ele>
        <time>2016-05-01T07:47:13Z</time>
      </trkpt>
      <trkpt lat="43.69397" lon="3.45819">
        <ele>300.9</ele>
        <time>2016-05-01T07:47:14Z</time>
      </trkpt>
      <trkpt lat="43.69389" lon="3.45817">
        <ele>300.5</ele>
        <time>2016-05-01T07:47:15Z</time>
      </trkpt>
      <trkpt lat="43.69381" lon="3.45814">
        <ele>300.4</ele>
        <time>2016-05-01T07:47:16Z</time>
      </trkpt>
      <trkpt lat="43.69374" lon="3.45812">
        <ele>300.1</ele>
        <time>2016-05-01T07:47:17Z</time>
      </trkpt>
      <trkpt lat="43.69362" lon="3.45807">
        <ele>299.8</ele>
        <time>2016-05-01T07:47:19Z</time>
      </trkpt>
      <trkpt lat="43.6935" lon="3.458">
        <ele>298.5</ele>
        <time>2016-05-01T07:47:21Z</time>
      </trkpt>
      <trkpt lat="43.69337" lon="3.45793">
        <ele>297.9</ele>
        <time>2016-05-01T07:47:23Z</time>
      </trkpt>
      <trkpt lat="43.69325" lon="3.45787">
        <ele>297.9</ele>
        <time>2016-05-01T07:47:25Z</time>
      </trkpt>
      <trkpt lat="43.69317" lon="3.45782">
        <ele>298</ele>
        <time>2016-05-01T07:47:27Z</time>
      </trkpt>
      <trkpt lat="43.69312" lon="3.45774">
        <ele>297.9</ele>
        <time>2016-05-01T07:47:32Z</time>
      </trkpt>
      <trkpt lat="43.69308" lon="3.45765">
        <ele>297.7</ele>
        <time>2016-05-01T07:47:36Z</time>
      </trkpt>
      <trkpt lat="43.69302" lon="3.45757">
        <ele>297.5</ele>
        <time>2016-05-01T07:47:39Z</time>
      </trkpt>
      <trkpt lat="43.693" lon="3.45747">
        <ele>297.2</ele>
        <time>2016-05-01T07:47:42Z</time>
      </trkpt>
      <trkpt lat="43.69306" lon="3.45741">
        <ele>296.8</ele>
        <time>2016-05-01T07:47:45Z</time>
      </trkpt>
      <trkpt lat="43.69317" lon="3.45736">
        <ele>296.4</ele>
        <time>2016-05-01T07:47:48Z</time>
      </trkpt>
      <trkpt lat="43.69323" lon="3.45731">
        <ele>295.2</ele>
        <time>2016-05-01T07:47:50Z</time>
      </trkpt>
      <trkpt lat="43.6933" lon="3.45724">
        <ele>293.2</ele>
        <time>2016-05-01T07:47:52Z</time>
      </trkpt>
      <trkpt lat="43.69338" lon="3.45716">
        <ele>290.2</ele>
        <time>2016-05-01T07:47:55Z</time>
      </trkpt>
      <trkpt lat="43.69346" lon="3.45708">
        <ele>286.3</ele>
        <time>2016-05-01T07:47:57Z</time>
      </trkpt>
      <trkpt lat="43.69353" lon="3.45701">
        <ele>284.5</ele>
        <time>2016-05-01T07:47:59Z</time>
      </trkpt>
      <trkpt lat="43.69359" lon="3.45696">
        <ele>283.5</ele>
        <time>2016-05-01T07:48:01Z</time>
      </trkpt>
      <trkpt lat="43.69367" lon="3.45691">
        <ele>281.9</ele>
        <time>2016-05-01T07:48:03Z</time>
      </trkpt>
      <trkpt lat="43.69372" lon="3.45681">
        <ele>280.6</ele>
        <time>2016-05-01T07:48:05Z</time>
      </trkpt>
      <trkpt lat="43.69379" lon="3.45673">
        <ele>278.6</ele>
        <time>2016-05-01T07:48:07Z</time>
      </trkpt>
      <trkpt lat="43.69385" lon="3.45661">
        <ele>273.9</ele>
        <time>2016-05-01T07:48:10Z</time>
      </trkpt>
      <trkpt lat="43.69392" lon="3.45653">
        <ele>272.2</ele>
        <time>2016-05-01T07:48:12Z</time>
      </trkpt>
      <trkpt lat="43.694" lon="3.45645">
        <ele>271.5</ele>
        <time>2016-05-01T07:48:14Z</time>
      </trkpt>
      <trkpt lat="43.69406" lon="3.45637">
        <ele>271.4</ele>
        <time>2016-05-01T07:48:16Z</time>
      </trkpt>
      <trkpt lat="43.69403" lon="3.45626">
        <ele>271.6</ele>
        <time>2016-05-01T07:48:18Z</time>
      </trkpt>
      <trkpt lat="43.69393" lon="3.45629">
        <ele>271.2</ele>
        <time>2016-05-01T07:48:20Z</time>
      </trkpt>
      <trkpt lat="43.69384" lon="3.45632">
        <ele>269.4</ele>
        <time>2016-05-01T07:48:22Z</time>
      </trkpt>
      <trkpt lat="43.69374" lon="3.45633">
        <ele>267.5</ele>
        <time>2016-05-01T07:48:24Z</time>
      </trkpt>
      <trkpt lat="43.69365" lon="3.45634">
        <ele>265.2</ele>
        <time>2016-05-01T07:48:26Z</time>
      </trkpt>
      <trkpt lat="43.69353" lon="3.45637">
        <ele>263.9</ele>
        <time>2016-05-01T07:48:28Z</time>
      </trkpt>
      <trkpt lat="43.69341" lon="3.45637">
        <ele>262.7</ele>
        <time>2016-05-01T07:48:30Z</time>
      </trkpt>
      <trkpt lat="43.69331" lon="3.45638">
        <ele>262.6</ele>
        <time>2016-05-01T07:48:32Z</time>
      </trkpt>
      <trkpt lat="43.69323" lon="3.45637">
        <ele>262.1</ele>
        <time>2016-05-01T07:48:34Z</time>
      </trkpt>
      <trkpt lat="43.69315" lon="3.45633">
        <ele>262</ele>
        <time>2016-05-01T07:48:36Z</time>
      </trkpt>
      <trkpt lat="43.69309" lon="3.45629">
        <ele>261.6</ele>
        <time>2016-05-01T07:48:39Z</time>
      </trkpt>
      <trkpt lat="43.69307" lon="3.45616">
        <ele>261</ele>
        <time>2016-05-01T07:48:44Z</time>
      </trkpt>
      <trkpt lat="43.69313" lon="3.45608">
        <ele>260.6</ele>
        <time>2016-05-01T07:48:47Z</time>
      </trkpt>
      <trkpt lat="43.69321" lon="3.456">
        <ele>260.2</ele>
        <time>2016-05-01T07:48:51Z</time>
      </trkpt>
      <trkpt lat="43.69329" lon="3.45593">
        <ele>259.7</ele>
        <time>2016-05-01T07:48:54Z</time>
      </trkpt>
      <trkpt lat="43.69337" lon="3.4559">
        <ele>259.2</ele>
        <time>2016-05-01T07:48:58Z</time>
      </trkpt>
      <trkpt lat="43.69343" lon="3.45581">
        <ele>257.9</ele>
        <time>2016-05-01T07:49:03Z</time>
      </trkpt>
      <trkpt lat="43.69349" lon="3.45573">
        <ele>256.9</ele>
        <time>2016-05-01T07:49:07Z</time>
      </trkpt>
      <trkpt lat="43.69354" lon="3.45564">
        <ele>256.5</ele>
        <time>2016-05-01T07:49:10Z</time>
      </trkpt>
      <trkpt lat="43.69362" lon="3.45557">
        <ele>255.8</ele>
        <time>2016-05-01T07:49:13Z</time>
      </trkpt>
      <trkpt lat="43.6937" lon="3.45558">
        <ele>255.3</ele>
        <time>2016-05-01T07:49:15Z</time>
      </trkpt>
      <trkpt lat="43.69378" lon="3.45558">
        <ele>251.7</ele>
        <time>2016-05-01T07:49:17Z</time>
      </trkpt>
      <trkpt lat="43.69387" lon="3.45557">
        <ele>251.3</ele>
        <time>2016-05-01T07:49:19Z</time>
      </trkpt>
      <trkpt lat="43.69395" lon="3.45563">
        <ele>247.4</ele>
        <time>2016-05-01T07:49:21Z</time>
      </trkpt>
      <trkpt lat="43.69402" lon="3.45558">
        <ele>246.8</ele>
        <time>2016-05-01T07:49:25Z</time>
      </trkpt>
      <trkpt lat="43.69393" lon="3.45554">
        <ele>246.1</ele>
        <time>2016-05-01T07:49:29Z</time>
      </trkpt>
      <trkpt lat="43.69384" lon="3.45549">
        <ele>245.6</ele>
        <time>2016-05-01T07:49:32Z</time>
      </trkpt>
      <trkpt lat="43.69376" lon="3.45544">
        <ele>244.8</ele>
        <time>2016-05-01T07:49:35Z</time>
      </trkpt>
      <trkpt lat="43.6937" lon="3.45537">
        <ele>244.2</ele>
        <time>2016-05-01T07:49:37Z</time>
      </trkpt>
      <trkpt lat="43.69367" lon="3.45525">
        <ele>243.4</ele>
        <time>2016-05-01T07:49:40Z</time>
      </trkpt>
      <trkpt lat="43.69367" lon="3.45515">
        <ele>240.1</ele>
        <time>2016-05-01T07:49:42Z</time>
      </trkpt>
      <trkpt lat="43.69367" lon="3.45503">
        <ele>237.3</ele>
        <time>2016-05-01T07:49:44Z</time>
      </trkpt>
      <trkpt lat="43.69365" lon="3.45492">
        <ele>233.5</ele>
        <time>2016-05-01T07:49:46Z</time>
      </trkpt>
      <trkpt lat="43.6936" lon="3.45478">
        <ele>232.6</ele>
        <time>2016-05-01T07:49:49Z</time>
      </trkpt>
      <trkpt lat="43.69356" lon="3.45468">
        <ele>232.1</ele>
        <time>2016-05-01T07:49:55Z</time>
      </trkpt>
      <trkpt lat="43.69354" lon="3.45456">
        <ele>230.1</ele>
        <time>2016-05-01T07:49:57Z</time>
      </trkpt>
      <trkpt lat="43.69353" lon="3.45445">
        <ele>229.7</ele>
        <time>2016-05-01T07:49:59Z</time>
      </trkpt>
      <trkpt lat="43.69354" lon="3.45434">
        <ele>229.1</ele>
        <time>2016-05-01T07:50:02Z</time>
      </trkpt>
      <trkpt lat="43.69357" lon="3.45421">
        <ele>227.4</ele>
        <time>2016-05-01T07:50:33Z</time>
      </trkpt>
      <trkpt lat="43.69358" lon="3.45405">
        <ele>223.5</ele>
        <time>2016-05-01T07:50:36Z</time>
      </trkpt>
      <trkpt lat="43.6936" lon="3.45393">
        <ele>221.4</ele>
        <time>2016-05-01T07:50:38Z</time>
      </trkpt>
      <trkpt lat="43.69361" lon="3.4538">
        <ele>220.2</ele>
        <time>2016-05-01T07:50:40Z</time>
      </trkpt>
      <trkpt lat="43.69364" lon="3.45364">
        <ele>218.5</ele>
        <time>2016-05-01T07:50:42Z</time>
      </trkpt>
      <trkpt lat="43.69369" lon="3.4535">
        <ele>215.6</ele>
        <time>2016-05-01T07:50:44Z</time>
      </trkpt>
      <trkpt lat="43.69373" lon="3.45337">
        <ele>213.5</ele>
        <time>2016-05-01T07:50:46Z</time>
      </trkpt>
      <trkpt lat="43.69375" lon="3.45323">
        <ele>212.8</ele>
        <time>2016-05-01T07:50:48Z</time>
      </trkpt>
      <trkpt lat="43.69375" lon="3.45311">
        <ele>213.2</ele>
        <time>2016-05-01T07:50:50Z</time>
      </trkpt>
      <trkpt lat="43.69374" lon="3.45299">
        <ele>213.2</ele>
        <time>2016-05-01T07:50:52Z</time>
      </trkpt>
      <trkpt lat="43.69373" lon="3.45285">
        <ele>213.3</ele>
        <time>2016-05-01T07:50:54Z</time>
      </trkpt>
      <trkpt lat="43.69374" lon="3.45273">
        <ele>213.3</ele>
        <time>2016-05-01T07:50:56Z</time>
      </trkpt>
      <trkpt lat="43.69381" lon="3.45264">
        <ele>213.3</ele>
        <time>2016-05-01T07:50:59Z</time>
      </trkpt>
      <trkpt lat="43.69388" lon="3.45254">
        <ele>212.3</ele>
        <time>2016-05-01T07:51:02Z</time>
      </trkpt>
      <trkpt lat="43.69396" lon="3.45247">
        <ele>211</ele>
        <time>2016-05-01T07:51:04Z</time>
      </trkpt>
      <trkpt lat="43.694" lon="3.45236">
        <ele>207.9</ele>
        <time>2016-05-01T07:51:06Z</time>
      </trkpt>
      <trkpt lat="43.69393" lon="3.45226">
        <ele>206.2</ele>
        <time>2016-05-01T07:51:11Z</time>
      </trkpt>
      <trkpt lat="43.69389" lon="3.45212">
        <ele>205.9</ele>
        <time>2016-05-01T07:51:14Z</time>
      </trkpt>
      <trkpt lat="43.69385" lon="3.45204">
        <ele>204.7</ele>
        <time>2016-05-01T07:51:16Z</time>
      </trkpt>
      <trkpt lat="43.69381" lon="3.45194">
        <ele>204.2</ele>
        <time>2016-05-01T07:51:21Z</time>
      </trkpt>
      <trkpt lat="43.69386" lon="3.45181">
        <ele>204</ele>
        <time>2016-05-01T07:51:25Z</time>
      </trkpt>
      <trkpt lat="43.69387" lon="3.45163">
        <ele>203.5</ele>
        <time>2016-05-01T07:51:27Z</time>
      </trkpt>
      <trkpt lat="43.69384" lon="3.45152">
        <ele>202.1</ele>
        <time>2016-05-01T07:51:30Z</time>
      </trkpt>
      <trkpt lat="43.69382" lon="3.45138">
        <ele>198.3</ele>
        <time>2016-05-01T07:51:33Z</time>
      </trkpt>
      <trkpt lat="43.69378" lon="3.45124">
        <ele>197.6</ele>
        <time>2016-05-01T07:51:36Z</time>
      </trkpt>
      <trkpt lat="43.69377" lon="3.45112">
        <ele>197.5</ele>
        <time>2016-05-01T07:51:39Z</time>
      </trkpt>
      <trkpt lat="43.69376" lon="3.45101">
        <ele>196.3</ele>
        <time>2016-05-01T07:51:41Z</time>
      </trkpt>
      <trkpt lat="43.69371" lon="3.45086">
        <ele>195.9</ele>
        <time>2016-05-01T07:51:43Z</time>
      </trkpt>
      <trkpt lat="43.69367" lon="3.45076">
        <ele>195.7</ele>
        <time>2016-05-01T07:51:48Z</time>
      </trkpt>
      <trkpt lat="43.69367" lon="3.45064">
        <ele>195.3</ele>
        <time>2016-05-01T07:51:53Z</time>
      </trkpt>
      <trkpt lat="43.69367" lon="3.45054">
        <ele>194.9</ele>
        <time>2016-05-01T07:51:56Z</time>
      </trkpt>
      <trkpt lat="43.69369" lon="3.45041">
        <ele>193.2</ele>
        <time>2016-05-01T07:51:58Z</time>
      </trkpt>
      <trkpt lat="43.69376" lon="3.45032">
        <ele>192.9</ele>
        <time>2016-05-01T07:52:00Z</time>
      </trkpt>
      <trkpt lat="43.69377" lon="3.45019">
        <ele>192.2</ele>
        <time>2016-05-01T07:52:03Z</time>
      </trkpt>
      <trkpt lat="43.69372" lon="3.45008">
        <ele>191.1</ele>
        <time>2016-05-01T07:52:05Z</time>
      </trkpt>
      <trkpt lat="43.69365" lon="3.44993">
        <ele>190.2</ele>
        <time>2016-05-01T07:52:07Z</time>
      </trkpt>
      <trkpt lat="43.69361" lon="3.44983">
        <ele>189.8</ele>
        <time>2016-05-01T07:52:08Z</time>
      </trkpt>
      <trkpt lat="43.69357" lon="3.44966">
        <ele>188.4</ele>
        <time>2016-05-01T07:52:10Z</time>
      </trkpt>
      <trkpt lat="43.69351" lon="3.44952">
        <ele>187.7</ele>
        <time>2016-05-01T07:52:12Z</time>
      </trkpt>
      <trkpt lat="43.69344" lon="3.44951">
        <ele>187.3</ele>
        <time>2016-05-01T07:52:14Z</time>
      </trkpt>
      <trkpt lat="43.69335" lon="3.44958">
        <ele>186.2</ele>
        <time>2016-05-01T07:52:16Z</time>
      </trkpt>
      <trkpt lat="43.69327" lon="3.44963">
        <ele>186.2</ele>
        <time>2016-05-01T07:52:18Z</time>
      </trkpt>
      <trkpt lat="43.69319" lon="3.44957">
        <ele>185.3</ele>
        <time>2016-05-01T07:52:20Z</time>
      </trkpt>
      <trkpt lat="43.69312" lon="3.44948">
        <ele>184.4</ele>
        <time>2016-05-01T07:52:22Z</time>
      </trkpt>
      <trkpt lat="43.69302" lon="3.44936">
        <ele>184.1</ele>
        <time>2016-05-01T07:52:24Z</time>
      </trkpt>
      <trkpt lat="43.69293" lon="3.44928">
        <ele>182.8</ele>
        <time>2016-05-01T07:52:26Z</time>
      </trkpt>
      <trkpt lat="43.69285" lon="3.4492">
        <ele>183</ele>
        <time>2016-05-01T07:52:28Z</time>
      </trkpt>
      <trkpt lat="43.69278" lon="3.44911">
        <ele>183.6</ele>
        <time>2016-05-01T07:52:30Z</time>
      </trkpt>
      <trkpt lat="43.69271" lon="3.44901">
        <ele>183.8</ele>
        <time>2016-05-01T07:52:32Z</time>
      </trkpt>
      <trkpt lat="43.69263" lon="3.44894">
        <ele>183.2</ele>
        <time>2016-05-01T07:52:34Z</time>
      </trkpt>
      <trkpt lat="43.69254" lon="3.44885">
        <ele>181.8</ele>
        <time>2016-05-01T07:52:36Z</time>
      </trkpt>
      <trkpt lat="43.69244" lon="3.44879">
        <ele>181.1</ele>
        <time>2016-05-01T07:52:38Z</time>
      </trkpt>
      <trkpt lat="43.69238" lon="3.44874">
        <ele>180.6</ele>
        <time>2016-05-01T07:52:40Z</time>
      </trkpt>
      <trkpt lat="43.6923" lon="3.44868">
        <ele>179.5</ele>
        <time>2016-05-01T07:52:42Z</time>
      </trkpt>
      <trkpt lat="43.6922" lon="3.44861">
        <ele>178.9</ele>
        <time>2016-05-01T07:52:44Z</time>
      </trkpt>
      <trkpt lat="43.69212" lon="3.44853">
        <ele>178.7</ele>
        <time>2016-05-01T07:52:47Z</time>
      </trkpt>
      <trkpt lat="43.69206" lon="3.44847">
        <ele>178.8</ele>
        <time>2016-05-01T07:52:49Z</time>
      </trkpt>
      <trkpt lat="43.692" lon="3.4484">
        <ele>178.7</ele>
        <time>2016-05-01T07:52:51Z</time>
      </trkpt>
      <trkpt lat="43.69193" lon="3.44833">
        <ele>178.3</ele>
        <time>2016-05-01T07:52:53Z</time>
      </trkpt>
      <trkpt lat="43.69186" lon="3.44823">
        <ele>178.6</ele>
        <time>2016-05-01T07:52:55Z</time>
      </trkpt>
      <trkpt lat="43.69181" lon="3.44815">
        <ele>178.9</ele>
        <time>2016-05-01T07:52:58Z</time>
      </trkpt>
      <trkpt lat="43.69184" lon="3.44801">
        <ele>181.8</ele>
        <time>2016-05-01T07:53:01Z</time>
      </trkpt>
      <trkpt lat="43.69186" lon="3.44791">
        <ele>182.5</ele>
        <time>2016-05-01T07:53:03Z</time>
      </trkpt>
      <trkpt lat="43.6919" lon="3.44781">
        <ele>182.3</ele>
        <time>2016-05-01T07:53:05Z</time>
      </trkpt>
      <trkpt lat="43.69196" lon="3.44769">
        <ele>183.1</ele>
        <time>2016-05-01T07:53:07Z</time>
      </trkpt>
      <trkpt lat="43.69203" lon="3.44754">
        <ele>181.9</ele>
        <time>2016-05-01T07:53:09Z</time>
      </trkpt>
      <trkpt lat="43.69211" lon="3.44742">
        <ele>180.3</ele>
        <time>2016-05-01T07:53:11Z</time>
      </trkpt>
      <trkpt lat="43.69217" lon="3.44735">
        <ele>179.7</ele>
        <time>2016-05-01T07:53:12Z</time>
      </trkpt>
      <trkpt lat="43.69225" lon="3.44724">
        <ele>177.9</ele>
        <time>2016-05-01T07:53:14Z</time>
      </trkpt>
      <trkpt lat="43.69227" lon="3.44711">
        <ele>175.3</ele>
        <time>2016-05-01T07:53:16Z</time>
      </trkpt>
      <trkpt lat="43.69224" lon="3.44697">
        <ele>174</ele>
        <time>2016-05-01T07:53:18Z</time>
      </trkpt>
      <trkpt lat="43.69217" lon="3.44683">
        <ele>173.1</ele>
        <time>2016-05-01T07:53:20Z</time>
      </trkpt>
      <trkpt lat="43.6921" lon="3.44671">
        <ele>171.8</ele>
        <time>2016-05-01T07:53:22Z</time>
      </trkpt>
      <trkpt lat="43.69201" lon="3.44663">
        <ele>170.8</ele>
        <time>2016-05-01T07:53:24Z</time>
      </trkpt>
      <trkpt lat="43.69191" lon="3.44654">
        <ele>170.1</ele>
        <time>2016-05-01T07:53:26Z</time>
      </trkpt>
      <trkpt lat="43.69187" lon="3.44642">
        <ele>169</ele>
        <time>2016-05-01T07:53:28Z</time>
      </trkpt>
      <trkpt lat="43.69184" lon="3.44632">
        <ele>168.8</ele>
        <time>2016-05-01T07:53:30Z</time>
      </trkpt>
      <trkpt lat="43.69177" lon="3.44622">
        <ele>167</ele>
        <time>2016-05-01T07:53:32Z</time>
      </trkpt>
      <trkpt lat="43.69169" lon="3.44615">
        <ele>166.3</ele>
        <time>2016-05-01T07:53:34Z</time>
      </trkpt>
      <trkpt lat="43.69163" lon="3.44606">
        <ele>166.1</ele>
        <time>2016-05-01T07:53:36Z</time>
      </trkpt>
      <trkpt lat="43.6916" lon="3.44596">
        <ele>165.3</ele>
        <time>2016-05-01T07:53:38Z</time>
      </trkpt>
      <trkpt lat="43.69152" lon="3.44587">
        <ele>165.4</ele>
        <time>2016-05-01T07:53:41Z</time>
      </trkpt>
      <trkpt lat="43.69145" lon="3.44583">
        <ele>166.5</ele>
        <time>2016-05-01T07:53:43Z</time>
      </trkpt>
      <trkpt lat="43.69137" lon="3.44576">
        <ele>167.8</ele>
        <time>2016-05-01T07:53:46Z</time>
      </trkpt>
      <trkpt lat="43.6913" lon="3.44573">
        <ele>168.6</ele>
        <time>2016-05-01T07:53:49Z</time>
      </trkpt>
      <trkpt lat="43.69121" lon="3.44571">
        <ele>168.4</ele>
        <time>2016-05-01T07:53:51Z</time>
      </trkpt>
      <trkpt lat="43.69114" lon="3.4457">
        <ele>168.6</ele>
        <time>2016-05-01T07:53:53Z</time>
      </trkpt>
      <trkpt lat="43.69106" lon="3.44561">
        <ele>168.8</ele>
        <time>2016-05-01T07:53:56Z</time>
      </trkpt>
      <trkpt lat="43.69101" lon="3.4455">
        <ele>169.8</ele>
        <time>2016-05-01T07:53:58Z</time>
      </trkpt>
      <trkpt lat="43.69093" lon="3.44538">
        <ele>168.6</ele>
        <time>2016-05-01T07:54:00Z</time>
      </trkpt>
      <trkpt lat="43.69085" lon="3.44525">
        <ele>167.9</ele>
        <time>2016-05-01T07:54:02Z</time>
      </trkpt>
      <trkpt lat="43.69076" lon="3.44512">
        <ele>166.6</ele>
        <time>2016-05-01T07:54:04Z</time>
      </trkpt>
      <trkpt lat="43.69068" lon="3.445">
        <ele>166.1</ele>
        <time>2016-05-01T07:54:06Z</time>
      </trkpt>
      <trkpt lat="43.69058" lon="3.44488">
        <ele>165.5</ele>
        <time>2016-05-01T07:54:08Z</time>
      </trkpt>
      <trkpt lat="43.69046" lon="3.44476">
        <ele>164.6</ele>
        <time>2016-05-01T07:54:10Z</time>
      </trkpt>
      <trkpt lat="43.69036" lon="3.44464">
        <ele>165.3</ele>
        <time>2016-05-01T07:54:12Z</time>
      </trkpt>
      <trkpt lat="43.69028" lon="3.4445">
        <ele>165.2</ele>
        <time>2016-05-01T07:54:14Z</time>
      </trkpt>
      <trkpt lat="43.69019" lon="3.44437">
        <ele>165.5</ele>
        <time>2016-05-01T07:54:16Z</time>
      </trkpt>
      <trkpt lat="43.6901" lon="3.44424">
        <ele>165.9</ele>
        <time>2016-05-01T07:54:18Z</time>
      </trkpt>
      <trkpt lat="43.69002" lon="3.44412">
        <ele>165.2</ele>
        <time>2016-05-01T07:54:20Z</time>
      </trkpt>
      <trkpt lat="43.68997" lon="3.44401">
        <ele>164.9</ele>
        <time>2016-05-01T07:54:23Z</time>
      </trkpt>
      <trkpt lat="43.68997" lon="3.44391">
        <ele>164.1</ele>
        <time>2016-05-01T07:54:25Z</time>
      </trkpt>
      <trkpt lat="43.68995" lon="3.44379">
        <ele>163.6</ele>
        <time>2016-05-01T07:54:28Z</time>
      </trkpt>
      <trkpt lat="43.6899" lon="3.44366">
        <ele>162</ele>
        <time>2016-05-01T07:54:31Z</time>
      </trkpt>
      <trkpt lat="43.68983" lon="3.44359">
        <ele>161.8</ele>
        <time>2016-05-01T07:54:35Z</time>
      </trkpt>
      <trkpt lat="43.68975" lon="3.44362">
        <ele>161.7</ele>
        <time>2016-05-01T07:54:38Z</time>
      </trkpt>
      <trkpt lat="43.68968" lon="3.44365">
        <ele>161.4</ele>
        <time>2016-05-01T07:54:41Z</time>
      </trkpt>
      <trkpt lat="43.68959" lon="3.44367">
        <ele>161.1</ele>
        <time>2016-05-01T07:54:44Z</time>
      </trkpt>
      <trkpt lat="43.6895" lon="3.44371">
        <ele>160.9</ele>
        <time>2016-05-01T07:54:47Z</time>
      </trkpt>
      <trkpt lat="43.68942" lon="3.44374">
        <ele>160.6</ele>
        <time>2016-05-01T07:54:50Z</time>
      </trkpt>
      <trkpt lat="43.68934" lon="3.44377">
        <ele>160.4</ele>
        <time>2016-05-01T07:54:53Z</time>
      </trkpt>
      <trkpt lat="43.68925" lon="3.44378">
        <ele>160.3</ele>
        <time>2016-05-01T07:54:56Z</time>
      </trkpt>
      <trkpt lat="43.68918" lon="3.44379">
        <ele>159.9</ele>
        <time>2016-05-01T07:54:59Z</time>
      </trkpt>
      <trkpt lat="43.68909" lon="3.44379">
        <ele>159.4</ele>
        <time>2016-05-01T07:55:02Z</time>
      </trkpt>
      <trkpt lat="43.68901" lon="3.44376">
        <ele>158.9</ele>
        <time>2016-05-01T07:55:05Z</time>
      </trkpt>
      <trkpt lat="43.68892" lon="3.44371">
        <ele>158.7</ele>
        <time>2016-05-01T07:55:08Z</time>
      </trkpt>
      <trkpt lat="43.68885" lon="3.44368">
        <ele>158.4</ele>
        <time>2016-05-01T07:55:10Z</time>
      </trkpt>
      <trkpt lat="43.68878" lon="3.44364">
        <ele>158.4</ele>
        <time>2016-05-01T07:55:12Z</time>
      </trkpt>
      <trkpt lat="43.68869" lon="3.44359">
        <ele>158.5</ele>
        <time>2016-05-01T07:55:15Z</time>
      </trkpt>
      <trkpt lat="43.68861" lon="3.44357">
        <ele>158.6</ele>
        <time>2016-05-01T07:55:18Z</time>
      </trkpt>
      <trkpt lat="43.68852" lon="3.4436">
        <ele>158.5</ele>
        <time>2016-05-01T07:55:21Z</time>
      </trkpt>
      <trkpt lat="43.68842" lon="3.44359">
        <ele>157.8</ele>
        <time>2016-05-01T07:55:24Z</time>
      </trkpt>
      <trkpt lat="43.68834" lon="3.44358">
        <ele>157.6</ele>
        <time>2016-05-01T07:55:27Z</time>
      </trkpt>
      <trkpt lat="43.68827" lon="3.44353">
        <ele>157.5</ele>
        <time>2016-05-01T07:55:30Z</time>
      </trkpt>
      <trkpt lat="43.6882" lon="3.44349">
        <ele>157.4</ele>
        <time>2016-05-01T07:55:33Z</time>
      </trkpt>
      <trkpt lat="43.68813" lon="3.44344">
        <ele>157.2</ele>
        <time>2016-05-01T07:55:36Z</time>
      </trkpt>
      <trkpt lat="43.68803" lon="3.44341">
        <ele>157.2</ele>
        <time>2016-05-01T07:55:39Z</time>
      </trkpt>
      <trkpt lat="43.68795" lon="3.44339">
        <ele>157.2</ele>
        <time>2016-05-01T07:55:41Z</time>
      </trkpt>
      <trkpt lat="43.68785" lon="3.44338">
        <ele>157.1</ele>
        <time>2016-05-01T07:55:44Z</time>
      </trkpt>
      <trkpt lat="43.68778" lon="3.44336">
        <ele>156.2</ele>
        <time>2016-05-01T07:55:46Z</time>
      </trkpt>
      <trkpt lat="43.68771" lon="3.4433">
        <ele>156</ele>
        <time>2016-05-01T07:55:48Z</time>
      </trkpt>
      <trkpt lat="43.68764" lon="3.44324">
        <ele>155.7</ele>
        <time>2016-05-01T07:55:50Z</time>
      </trkpt>
      <trkpt lat="43.68757" lon="3.44318">
        <ele>155.2</ele>
        <time>2016-05-01T07:55:54Z</time>
      </trkpt>
      <trkpt lat="43.68749" lon="3.44313">
        <ele>155</ele>
        <time>2016-05-01T07:55:57Z</time>
      </trkpt>
      <trkpt lat="43.6874" lon="3.44308">
        <ele>154.9</ele>
        <time>2016-05-01T07:56:00Z</time>
      </trkpt>
      <trkpt lat="43.68731" lon="3.44307">
        <ele>154.7</ele>
        <time>2016-05-01T07:56:03Z</time>
      </trkpt>
      <trkpt lat="43.68723" lon="3.44311">
        <ele>154.5</ele>
        <time>2016-05-01T07:56:06Z</time>
      </trkpt>
      <trkpt lat="43.68714" lon="3.44313">
        <ele>154.2</ele>
        <time>2016-05-01T07:56:09Z</time>
      </trkpt>
      <trkpt lat="43.68705" lon="3.44311">
        <ele>154</ele>
        <time>2016-05-01T07:56:12Z</time>
      </trkpt>
      <trkpt lat="43.68695" lon="3.44306">
        <ele>153.9</ele>
        <time>2016-05-01T07:56:15Z</time>
      </trkpt>
      <trkpt lat="43.68687" lon="3.44303">
        <ele>153.8</ele>
        <time>2016-05-01T07:56:17Z</time>
      </trkpt>
      <trkpt lat="43.68678" lon="3.44299">
        <ele>153.8</ele>
        <time>2016-05-01T07:56:20Z</time>
      </trkpt>
      <trkpt lat="43.68669" lon="3.44294">
        <ele>153.6</ele>
        <time>2016-05-01T07:56:23Z</time>
      </trkpt>
      <trkpt lat="43.68659" lon="3.44288">
        <ele>153.6</ele>
        <time>2016-05-01T07:56:26Z</time>
      </trkpt>
      <trkpt lat="43.68651" lon="3.44281">
        <ele>153.5</ele>
        <time>2016-05-01T07:56:29Z</time>
      </trkpt>
      <trkpt lat="43.68643" lon="3.44271">
        <ele>153.1</ele>
        <time>2016-05-01T07:56:32Z</time>
      </trkpt>
      <trkpt lat="43.68636" lon="3.4426">
        <ele>153</ele>
        <time>2016-05-01T07:56:35Z</time>
      </trkpt>
      <trkpt lat="43.6863" lon="3.44252">
        <ele>153</ele>
        <time>2016-05-01T07:56:37Z</time>
      </trkpt>
      <trkpt lat="43.68623" lon="3.44248">
        <ele>152</ele>
        <time>2016-05-01T07:56:39Z</time>
      </trkpt>
      <trkpt lat="43.68615" lon="3.44243">
        <ele>151.9</ele>
        <time>2016-05-01T07:56:42Z</time>
      </trkpt>
      <trkpt lat="43.68605" lon="3.44239">
        <ele>151.7</ele>
        <time>2016-05-01T07:56:45Z</time>
      </trkpt>
      <trkpt lat="43.68595" lon="3.44238">
        <ele>151.7</ele>
        <time>2016-05-01T07:56:48Z</time>
      </trkpt>
      <trkpt lat="43.68587" lon="3.44238">
        <ele>152</ele>
        <time>2016-05-01T07:56:50Z</time>
      </trkpt>
      <trkpt lat="43.68577" lon="3.44238">
        <ele>152.5</ele>
        <time>2016-05-01T07:56:53Z</time>
      </trkpt>
      <trkpt lat="43.68567" lon="3.44237">
        <ele>152</ele>
        <time>2016-05-01T07:56:55Z</time>
      </trkpt>
      <trkpt lat="43.68558" lon="3.44237">
        <ele>151.4</ele>
        <time>2016-05-01T07:56:57Z</time>
      </trkpt>
      <trkpt lat="43.6855" lon="3.44237">
        <ele>151.7</ele>
        <time>2016-05-01T07:56:59Z</time>
      </trkpt>
      <trkpt lat="43.6854" lon="3.44236">
        <ele>151.3</ele>
        <time>2016-05-01T07:57:02Z</time>
      </trkpt>
      <trkpt lat="43.68531" lon="3.44233">
        <ele>151.2</ele>
        <time>2016-05-01T07:57:05Z</time>
      </trkpt>
      <trkpt lat="43.68523" lon="3.44231">
        <ele>151.1</ele>
        <time>2016-05-01T07:57:08Z</time>
      </trkpt>
      <trkpt lat="43.68514" lon="3.44231">
        <ele>150.9</ele>
        <time>2016-05-01T07:57:11Z</time>
      </trkpt>
      <trkpt lat="43.68505" lon="3.44225">
        <ele>150.7</ele>
        <time>2016-05-01T07:57:14Z</time>
      </trkpt>
      <trkpt lat="43.68497" lon="3.44221">
        <ele>150.7</ele>
        <time>2016-05-01T07:57:17Z</time>
      </trkpt>
      <trkpt lat="43.68487" lon="3.44217">
        <ele>150.6</ele>
        <time>2016-05-01T07:57:20Z</time>
      </trkpt>
      <trkpt lat="43.68479" lon="3.44211">
        <ele>150.6</ele>
        <time>2016-05-01T07:57:23Z</time>
      </trkpt>
      <trkpt lat="43.6847" lon="3.44207">
        <ele>150.5</ele>
        <time>2016-05-01T07:57:26Z</time>
      </trkpt>
      <trkpt lat="43.68463" lon="3.44203">
        <ele>150.3</ele>
        <time>2016-05-01T07:57:28Z</time>
      </trkpt>
      <trkpt lat="43.68456" lon="3.44198">
        <ele>150.4</ele>
        <time>2016-05-01T07:57:30Z</time>
      </trkpt>
      <trkpt lat="43.68445" lon="3.44198">
        <ele>150.1</ele>
        <time>2016-05-01T07:57:33Z</time>
      </trkpt>
      <trkpt lat="43.68437" lon="3.442">
        <ele>150.1</ele>
        <time>2016-05-01T07:57:36Z</time>
      </trkpt>
      <trkpt lat="43.68426" lon="3.44205">
        <ele>149.7</ele>
        <time>2016-05-01T07:57:40Z</time>
      </trkpt>
      <trkpt lat="43.68419" lon="3.44205">
        <ele>149.5</ele>
        <time>2016-05-01T07:57:42Z</time>
      </trkpt>
      <trkpt lat="43.68411" lon="3.44205">
        <ele>149</ele>
        <time>2016-05-01T07:57:44Z</time>
      </trkpt>
      <trkpt lat="43.68401" lon="3.44198">
        <ele>147.3</ele>
        <time>2016-05-01T07:57:47Z</time>
      </trkpt>
      <trkpt lat="43.68391" lon="3.44192">
        <ele>146.7</ele>
        <time>2016-05-01T07:57:50Z</time>
      </trkpt>
      <trkpt lat="43.68383" lon="3.44187">
        <ele>146.7</ele>
        <time>2016-05-01T07:57:52Z</time>
      </trkpt>
      <trkpt lat="43.68373" lon="3.4418">
        <ele>146.9</ele>
        <time>2016-05-01T07:57:55Z</time>
      </trkpt>
      <trkpt lat="43.68364" lon="3.44176">
        <ele>146.6</ele>
        <time>2016-05-01T07:57:57Z</time>
      </trkpt>
      <trkpt lat="43.68356" lon="3.44171">
        <ele>147.2</ele>
        <time>2016-05-01T07:57:59Z</time>
      </trkpt>
      <trkpt lat="43.68347" lon="3.44167">
        <ele>147.7</ele>
        <time>2016-05-01T07:58:01Z</time>
      </trkpt>
      <trkpt lat="43.68339" lon="3.44161">
        <ele>148.2</ele>
        <time>2016-05-01T07:58:03Z</time>
      </trkpt>
      <trkpt lat="43.6833" lon="3.44157">
        <ele>148.6</ele>
        <time>2016-05-01T07:58:05Z</time>
      </trkpt>
      <trkpt lat="43.68321" lon="3.44151">
        <ele>148.7</ele>
        <time>2016-05-01T07:58:07Z</time>
      </trkpt>
      <trkpt lat="43.68315" lon="3.44144">
        <ele>148.7</ele>
        <time>2016-05-01T07:58:09Z</time>
      </trkpt>
      <trkpt lat="43.6831" lon="3.44136">
        <ele>148.9</ele>
        <time>2016-05-01T07:58:12Z</time>
      </trkpt>
      <trkpt lat="43.68305" lon="3.44123">
        <ele>148.6</ele>
        <time>2016-05-01T07:58:14Z</time>
      </trkpt>
      <trkpt lat="43.68303" lon="3.44107">
        <ele>148.3</ele>
        <time>2016-05-01T07:58:16Z</time>
      </trkpt>
      <trkpt lat="43.68302" lon="3.44092">
        <ele>147.9</ele>
        <time>2016-05-01T07:58:18Z</time>
      </trkpt>
      <trkpt lat="43.68301" lon="3.44081">
        <ele>147.4</ele>
        <time>2016-05-01T07:58:20Z</time>
      </trkpt>
      <trkpt lat="43.68301" lon="3.44069">
        <ele>146.9</ele>
        <time>2016-05-01T07:58:23Z</time>
      </trkpt>
      <trkpt lat="43.68301" lon="3.44055">
        <ele>146.6</ele>
        <time>2016-05-01T07:58:26Z</time>
      </trkpt>
      <trkpt lat="43.68299" lon="3.44044">
        <ele>146.4</ele>
        <time>2016-05-01T07:58:29Z</time>
      </trkpt>
      <trkpt lat="43.68295" lon="3.44031">
        <ele>146</ele>
        <time>2016-05-01T07:58:32Z</time>
      </trkpt>
      <trkpt lat="43.68292" lon="3.44019">
        <ele>145.4</ele>
        <time>2016-05-01T07:58:35Z</time>
      </trkpt>
      <trkpt lat="43.68289" lon="3.44009">
        <ele>143.4</ele>
        <time>2016-05-01T07:58:37Z</time>
      </trkpt>
      <trkpt lat="43.68286" lon="3.43996">
        <ele>143.4</ele>
        <time>2016-05-01T07:58:40Z</time>
      </trkpt>
      <trkpt lat="43.68283" lon="3.43983">
        <ele>143.4</ele>
        <time>2016-05-01T07:58:43Z</time>
      </trkpt>
      <trkpt lat="43.68281" lon="3.43973">
        <ele>143.4</ele>
        <time>2016-05-01T07:58:45Z</time>
      </trkpt>
      <trkpt lat="43.68277" lon="3.4396">
        <ele>143.4</ele>
        <time>2016-05-01T07:58:48Z</time>
      </trkpt>
      <trkpt lat="43.68272" lon="3.43953">
        <ele>143.4</ele>
        <time>2016-05-01T07:58:50Z</time>
      </trkpt>
      <trkpt lat="43.68265" lon="3.43946">
        <ele>143.5</ele>
        <time>2016-05-01T07:58:53Z</time>
      </trkpt>
      <trkpt lat="43.68259" lon="3.43936">
        <ele>143.4</ele>
        <time>2016-05-01T07:58:56Z</time>
      </trkpt>
      <trkpt lat="43.68256" lon="3.43921">
        <ele>142.7</ele>
        <time>2016-05-01T07:58:59Z</time>
      </trkpt>
      <trkpt lat="43.68255" lon="3.43909">
        <ele>141.7</ele>
        <time>2016-05-01T07:59:01Z</time>
      </trkpt>
      <trkpt lat="43.68252" lon="3.43899">
        <ele>141.7</ele>
        <time>2016-05-01T07:59:03Z</time>
      </trkpt>
      <trkpt lat="43.68249" lon="3.43888">
        <ele>141.8</ele>
        <time>2016-05-01T07:59:06Z</time>
      </trkpt>
      <trkpt lat="43.68243" lon="3.43879">
        <ele>141.7</ele>
        <time>2016-05-01T07:59:10Z</time>
      </trkpt>
      <trkpt lat="43.68237" lon="3.43871">
        <ele>141.5</ele>
        <time>2016-05-01T07:59:13Z</time>
      </trkpt>
      <trkpt lat="43.68232" lon="3.43863">
        <ele>141.4</ele>
        <time>2016-05-01T07:59:16Z</time>
      </trkpt>
      <trkpt lat="43.68225" lon="3.43854">
        <ele>141.5</ele>
        <time>2016-05-01T07:59:20Z</time>
      </trkpt>
      <trkpt lat="43.6822" lon="3.43844">
        <ele>141.5</ele>
        <time>2016-05-01T07:59:23Z</time>
      </trkpt>
      <trkpt lat="43.68216" lon="3.43835">
        <ele>141.6</ele>
        <time>2016-05-01T07:59:26Z</time>
      </trkpt>
      <trkpt lat="43.68211" lon="3.43825">
        <ele>141.8</ele>
        <time>2016-05-01T07:59:29Z</time>
      </trkpt>
      <trkpt lat="43.68206" lon="3.43814">
        <ele>142.1</ele>
        <time>2016-05-01T07:59:32Z</time>
      </trkpt>
      <trkpt lat="43.68199" lon="3.43806">
        <ele>142.2</ele>
        <time>2016-05-01T07:59:35Z</time>
      </trkpt>
      <trkpt lat="43.68193" lon="3.43797">
        <ele>142.2</ele>
        <time>2016-05-01T07:59:38Z</time>
      </trkpt>
      <trkpt lat="43.68186" lon="3.43788">
        <ele>142.4</ele>
        <time>2016-05-01T07:59:41Z</time>
      </trkpt>
      <trkpt lat="43.68179" lon="3.43781">
        <ele>142.7</ele>
        <time>2016-05-01T07:59:44Z</time>
      </trkpt>
      <trkpt lat="43.68174" lon="3.43772">
        <ele>143.9</ele>
        <time>2016-05-01T07:59:46Z</time>
      </trkpt>
      <trkpt lat="43.68171" lon="3.43764">
        <ele>144</ele>
        <time>2016-05-01T07:59:48Z</time>
      </trkpt>
      <trkpt lat="43.68167" lon="3.43752">
        <ele>144</ele>
        <time>2016-05-01T07:59:51Z</time>
      </trkpt>
      <trkpt lat="43.68161" lon="3.43741">
        <ele>144</ele>
        <time>2016-05-01T07:59:54Z</time>
      </trkpt>
      <trkpt lat="43.68157" lon="3.43732">
        <ele>144.4</ele>
        <time>2016-05-01T07:59:57Z</time>
      </trkpt>
      <trkpt lat="43.68153" lon="3.43722">
        <ele>144.5</ele>
        <time>2016-05-01T08:00:02Z</time>
      </trkpt>
      <trkpt lat="43.68149" lon="3.43713">
        <ele>144.3</ele>
        <time>2016-05-01T08:00:07Z</time>
      </trkpt>
      <trkpt lat="43.68145" lon="3.43702">
        <ele>144</ele>
        <time>2016-05-01T08:00:11Z</time>
      </trkpt>
      <trkpt lat="43.68138" lon="3.43695">
        <ele>143.9</ele>
        <time>2016-05-01T08:00:16Z</time>
      </trkpt>
      <trkpt lat="43.68131" lon="3.43689">
        <ele>144.2</ele>
        <time>2016-05-01T08:00:20Z</time>
      </trkpt>
      <trkpt lat="43.68125" lon="3.43683">
        <ele>144.3</ele>
        <time>2016-05-01T08:00:24Z</time>
      </trkpt>
      <trkpt lat="43.68117" lon="3.43682">
        <ele>144.4</ele>
        <time>2016-05-01T08:00:30Z</time>
      </trkpt>
      <trkpt lat="43.68109" lon="3.43675">
        <ele>144.6</ele>
        <time>2016-05-01T08:00:35Z</time>
      </trkpt>
      <trkpt lat="43.68103" lon="3.43669">
        <ele>144.5</ele>
        <time>2016-05-01T08:00:38Z</time>
      </trkpt>
      <trkpt lat="43.68098" lon="3.43662">
        <ele>144.6</ele>
        <time>2016-05-01T08:00:41Z</time>
      </trkpt>
      <trkpt lat="43.68092" lon="3.43656">
        <ele>144.6</ele>
        <time>2016-05-01T08:00:44Z</time>
      </trkpt>
      <trkpt lat="43.68088" lon="3.43649">
        <ele>144.2</ele>
        <time>2016-05-01T08:00:51Z</time>
      </trkpt>
      <trkpt lat="43.68089" lon="3.43642">
        <ele>143.9</ele>
        <time>2016-05-01T08:00:58Z</time>
      </trkpt>
      <trkpt lat="43.68092" lon="3.43644">
        <ele>143.6</ele>
        <time>2016-05-01T08:01:17Z</time>
      </trkpt>
      <trkpt lat="43.68096" lon="3.43652">
        <ele>143.4</ele>
        <time>2016-05-01T08:01:19Z</time>
      </trkpt>
      <trkpt lat="43.68103" lon="3.43658">
        <ele>143.2</ele>
        <time>2016-05-01T08:01:23Z</time>
      </trkpt>
      <trkpt lat="43.6811" lon="3.43662">
        <ele>142.8</ele>
        <time>2016-05-01T08:01:26Z</time>
      </trkpt>
      <trkpt lat="43.68118" lon="3.43666">
        <ele>142.5</ele>
        <time>2016-05-01T08:01:30Z</time>
      </trkpt>
      <trkpt lat="43.68126" lon="3.4367">
        <ele>142.5</ele>
        <time>2016-05-01T08:01:34Z</time>
      </trkpt>
      <trkpt lat="43.68133" lon="3.43677">
        <ele>142.7</ele>
        <time>2016-05-01T08:01:38Z</time>
      </trkpt>
      <trkpt lat="43.6814" lon="3.43682">
        <ele>142.8</ele>
        <time>2016-05-01T08:01:42Z</time>
      </trkpt>
      <trkpt lat="43.68145" lon="3.43689">
        <ele>142.7</ele>
        <time>2016-05-01T08:01:46Z</time>
      </trkpt>
      <trkpt lat="43.68149" lon="3.43704">
        <ele>142.3</ele>
        <time>2016-05-01T08:01:49Z</time>
      </trkpt>
      <trkpt lat="43.68152" lon="3.43713">
        <ele>141.8</ele>
        <time>2016-05-01T08:01:53Z</time>
      </trkpt>
      <trkpt lat="43.68158" lon="3.43722">
        <ele>141.5</ele>
        <time>2016-05-01T08:01:58Z</time>
      </trkpt>
      <trkpt lat="43.6816" lon="3.43732">
        <ele>141.3</ele>
        <time>2016-05-01T08:02:01Z</time>
      </trkpt>
      <trkpt lat="43.6816" lon="3.43744">
        <ele>141</ele>
        <time>2016-05-01T08:02:04Z</time>
      </trkpt>
      <trkpt lat="43.68163" lon="3.43753">
        <ele>140.7</ele>
        <time>2016-05-01T08:02:08Z</time>
      </trkpt>
      <trkpt lat="43.68167" lon="3.43763">
        <ele>140.3</ele>
        <time>2016-05-01T08:02:12Z</time>
      </trkpt>
      <trkpt lat="43.68172" lon="3.43771">
        <ele>139.9</ele>
        <time>2016-05-01T08:02:16Z</time>
      </trkpt>
      <trkpt lat="43.6818" lon="3.43775">
        <ele>139.8</ele>
        <time>2016-05-01T08:02:21Z</time>
      </trkpt>
      <trkpt lat="43.68186" lon="3.43783">
        <ele>139.6</ele>
        <time>2016-05-01T08:02:24Z</time>
      </trkpt>
      <trkpt lat="43.68193" lon="3.43791">
        <ele>139.4</ele>
        <time>2016-05-01T08:02:27Z</time>
      </trkpt>
      <trkpt lat="43.68198" lon="3.43799">
        <ele>139.2</ele>
        <time>2016-05-01T08:02:30Z</time>
      </trkpt>
      <trkpt lat="43.68203" lon="3.43809">
        <ele>139.1</ele>
        <time>2016-05-01T08:02:34Z</time>
      </trkpt>
      <trkpt lat="43.68209" lon="3.43818">
        <ele>138.9</ele>
        <time>2016-05-01T08:02:37Z</time>
      </trkpt>
      <trkpt lat="43.68217" lon="3.43827">
        <ele>138.9</ele>
        <time>2016-05-01T08:02:41Z</time>
      </trkpt>
      <trkpt lat="43.68223" lon="3.43836">
        <ele>139.1</ele>
        <time>2016-05-01T08:02:45Z</time>
      </trkpt>
      <trkpt lat="43.68228" lon="3.43845">
        <ele>139.2</ele>
        <time>2016-05-01T08:02:48Z</time>
      </trkpt>
      <trkpt lat="43.68233" lon="3.43853">
        <ele>139.2</ele>
        <time>2016-05-01T08:02:51Z</time>
      </trkpt>
      <trkpt lat="43.6824" lon="3.43861">
        <ele>139.3</ele>
        <time>2016-05-01T08:02:55Z</time>
      </trkpt>
      <trkpt lat="43.68246" lon="3.43869">
        <ele>139.5</ele>
        <time>2016-05-01T08:02:59Z</time>
      </trkpt>
      <trkpt lat="43.6825" lon="3.43879">
        <ele>139.6</ele>
        <time>2016-05-01T08:03:03Z</time>
      </trkpt>
      <trkpt lat="43.68251" lon="3.4389">
        <ele>139.7</ele>
        <time>2016-05-01T08:03:07Z</time>
      </trkpt>
      <trkpt lat="43.68252" lon="3.43901">
        <ele>139.7</ele>
        <time>2016-05-01T08:03:11Z</time>
      </trkpt>
      <trkpt lat="43.68256" lon="3.43912">
        <ele>139.6</ele>
        <time>2016-05-01T08:03:15Z</time>
      </trkpt>
      <trkpt lat="43.68259" lon="3.43925">
        <ele>139.5</ele>
        <time>2016-05-01T08:03:18Z</time>
      </trkpt>
      <trkpt lat="43.68262" lon="3.43934">
        <ele>139.4</ele>
        <time>2016-05-01T08:03:21Z</time>
      </trkpt>
      <trkpt lat="43.68266" lon="3.43944">
        <ele>139.3</ele>
        <time>2016-05-01T08:03:24Z</time>
      </trkpt>
      <trkpt lat="43.68271" lon="3.43952">
        <ele>139.2</ele>
        <time>2016-05-01T08:03:27Z</time>
      </trkpt>
      <trkpt lat="43.68276" lon="3.43963">
        <ele>139.2</ele>
        <time>2016-05-01T08:03:30Z</time>
      </trkpt>
      <trkpt lat="43.6828" lon="3.43976">
        <ele>139.3</ele>
        <time>2016-05-01T08:03:33Z</time>
      </trkpt>
      <trkpt lat="43.68284" lon="3.43989">
        <ele>139.3</ele>
        <time>2016-05-01T08:03:36Z</time>
      </trkpt>
      <trkpt lat="43.68288" lon="3.44002">
        <ele>140.4</ele>
        <time>2016-05-01T08:03:39Z</time>
      </trkpt>
      <trkpt lat="43.68291" lon="3.44012">
        <ele>140.5</ele>
        <time>2016-05-01T08:03:42Z</time>
      </trkpt>
      <trkpt lat="43.68294" lon="3.44023">
        <ele>140.7</ele>
        <time>2016-05-01T08:03:45Z</time>
      </trkpt>
      <trkpt lat="43.68295" lon="3.44034">
        <ele>140.7</ele>
        <time>2016-05-01T08:03:48Z</time>
      </trkpt>
      <trkpt lat="43.68297" lon="3.44045">
        <ele>140.6</ele>
        <time>2016-05-01T08:03:51Z</time>
      </trkpt>
      <trkpt lat="43.68299" lon="3.44056">
        <ele>140.4</ele>
        <time>2016-05-01T08:03:54Z</time>
      </trkpt>
      <trkpt lat="43.68302" lon="3.44068">
        <ele>140.2</ele>
        <time>2016-05-01T08:03:58Z</time>
      </trkpt>
      <trkpt lat="43.68307" lon="3.44078">
        <ele>140</ele>
        <time>2016-05-01T08:04:05Z</time>
      </trkpt>
      <trkpt lat="43.68312" lon="3.44087">
        <ele>140.4</ele>
        <time>2016-05-01T08:04:11Z</time>
      </trkpt>
      <trkpt lat="43.68313" lon="3.44101">
        <ele>140.6</ele>
        <time>2016-05-01T08:04:14Z</time>
      </trkpt>
      <trkpt lat="43.68314" lon="3.44113">
        <ele>140.8</ele>
        <time>2016-05-01T08:04:18Z</time>
      </trkpt>
      <trkpt lat="43.68317" lon="3.44123">
        <ele>140.7</ele>
        <time>2016-05-01T08:04:21Z</time>
      </trkpt>
      <trkpt lat="43.68321" lon="3.44134">
        <ele>140.7</ele>
        <time>2016-05-01T08:04:25Z</time>
      </trkpt>
      <trkpt lat="43.68325" lon="3.44144">
        <ele>140.8</ele>
        <time>2016-05-01T08:04:29Z</time>
      </trkpt>
      <trkpt lat="43.68332" lon="3.44148">
        <ele>141.1</ele>
        <time>2016-05-01T08:04:33Z</time>
      </trkpt>
      <trkpt lat="43.68341" lon="3.44151">
        <ele>141.4</ele>
        <time>2016-05-01T08:04:37Z</time>
      </trkpt>
      <trkpt lat="43.68348" lon="3.44155">
        <ele>141.6</ele>
        <time>2016-05-01T08:04:40Z</time>
      </trkpt>
      <trkpt lat="43.68354" lon="3.4416">
        <ele>141.8</ele>
        <time>2016-05-01T08:04:43Z</time>
      </trkpt>
      <trkpt lat="43.68363" lon="3.44163">
        <ele>142</ele>
        <time>2016-05-01T08:04:47Z</time>
      </trkpt>
      <trkpt lat="43.68372" lon="3.44168">
        <ele>142.3</ele>
        <time>2016-05-01T08:04:51Z</time>
      </trkpt>
      <trkpt lat="43.68379" lon="3.44176">
        <ele>142.5</ele>
        <time>2016-05-01T08:04:55Z</time>
      </trkpt>
      <trkpt lat="43.68387" lon="3.44181">
        <ele>142.5</ele>
        <time>2016-05-01T08:05:00Z</time>
      </trkpt>
      <trkpt lat="43.68393" lon="3.44189">
        <ele>142.5</ele>
        <time>2016-05-01T08:05:07Z</time>
      </trkpt>
      <trkpt lat="43.68393" lon="3.44193">
        <ele>143.1</ele>
        <time>2016-05-01T08:05:14Z</time>
      </trkpt>
      <trkpt lat="43.68395" lon="3.44193">
        <ele>144.2</ele>
        <time>2016-05-01T08:06:12Z</time>
      </trkpt>
      <trkpt lat="43.68403" lon="3.44197">
        <ele>144.9</ele>
        <time>2016-05-01T08:06:35Z</time>
      </trkpt>
      <trkpt lat="43.68411" lon="3.44197">
        <ele>144.9</ele>
        <time>2016-05-01T08:06:38Z</time>
      </trkpt>
      <trkpt lat="43.68418" lon="3.442">
        <ele>144.9</ele>
        <time>2016-05-01T08:06:43Z</time>
      </trkpt>
      <trkpt lat="43.68426" lon="3.442">
        <ele>145.1</ele>
        <time>2016-05-01T08:06:47Z</time>
      </trkpt>
      <trkpt lat="43.68434" lon="3.44194">
        <ele>145.2</ele>
        <time>2016-05-01T08:06:52Z</time>
      </trkpt>
      <trkpt lat="43.68442" lon="3.44189">
        <ele>145.2</ele>
        <time>2016-05-01T08:06:56Z</time>
      </trkpt>
      <trkpt lat="43.68452" lon="3.44187">
        <ele>145.3</ele>
        <time>2016-05-01T08:07:01Z</time>
      </trkpt>
      <trkpt lat="43.6846" lon="3.4419">
        <ele>145.4</ele>
        <time>2016-05-01T08:07:06Z</time>
      </trkpt>
      <trkpt lat="43.68469" lon="3.44193">
        <ele>145.4</ele>
        <time>2016-05-01T08:07:11Z</time>
      </trkpt>
      <trkpt lat="43.68477" lon="3.44194">
        <ele>145</ele>
        <time>2016-05-01T08:07:16Z</time>
      </trkpt>
      <trkpt lat="43.68486" lon="3.44196">
        <ele>145</ele>
        <time>2016-05-01T08:07:20Z</time>
      </trkpt>
      <trkpt lat="43.68495" lon="3.442">
        <ele>144.9</ele>
        <time>2016-05-01T08:07:24Z</time>
      </trkpt>
      <trkpt lat="43.68502" lon="3.44203">
        <ele>145</ele>
        <time>2016-05-01T08:07:27Z</time>
      </trkpt>
      <trkpt lat="43.6851" lon="3.44207">
        <ele>144.9</ele>
        <time>2016-05-01T08:07:30Z</time>
      </trkpt>
      <trkpt lat="43.68516" lon="3.44216">
        <ele>144.8</ele>
        <time>2016-05-01T08:07:33Z</time>
      </trkpt>
      <trkpt lat="43.68523" lon="3.44219">
        <ele>144.7</ele>
        <time>2016-05-01T08:07:37Z</time>
      </trkpt>
      <trkpt lat="43.6853" lon="3.44221">
        <ele>144.7</ele>
        <time>2016-05-01T08:07:41Z</time>
      </trkpt>
      <trkpt lat="43.6854" lon="3.44223">
        <ele>144.7</ele>
        <time>2016-05-01T08:07:46Z</time>
      </trkpt>
      <trkpt lat="43.68547" lon="3.44225">
        <ele>144.7</ele>
        <time>2016-05-01T08:07:49Z</time>
      </trkpt>
      <trkpt lat="43.68554" lon="3.44227">
        <ele>144.8</ele>
        <time>2016-05-01T08:07:53Z</time>
      </trkpt>
      <trkpt lat="43.68562" lon="3.44228">
        <ele>144.7</ele>
        <time>2016-05-01T08:07:56Z</time>
      </trkpt>
      <trkpt lat="43.68569" lon="3.44224">
        <ele>144.9</ele>
        <time>2016-05-01T08:08:02Z</time>
      </trkpt>
      <trkpt lat="43.68578" lon="3.44222">
        <ele>144.9</ele>
        <time>2016-05-01T08:08:07Z</time>
      </trkpt>
      <trkpt lat="43.68586" lon="3.44225">
        <ele>145</ele>
        <time>2016-05-01T08:08:11Z</time>
      </trkpt>
      <trkpt lat="43.68594" lon="3.44225">
        <ele>145</ele>
        <time>2016-05-01T08:08:15Z</time>
      </trkpt>
      <trkpt lat="43.68602" lon="3.44228">
        <ele>145.1</ele>
        <time>2016-05-01T08:08:19Z</time>
      </trkpt>
      <trkpt lat="43.68611" lon="3.44231">
        <ele>145.3</ele>
        <time>2016-05-01T08:08:24Z</time>
      </trkpt>
      <trkpt lat="43.68618" lon="3.44236">
        <ele>145.1</ele>
        <time>2016-05-01T08:08:27Z</time>
      </trkpt>
      <trkpt lat="43.68626" lon="3.44241">
        <ele>144.9</ele>
        <time>2016-05-01T08:08:30Z</time>
      </trkpt>
      <trkpt lat="43.68634" lon="3.44249">
        <ele>144.9</ele>
        <time>2016-05-01T08:08:34Z</time>
      </trkpt>
      <trkpt lat="43.6864" lon="3.44257">
        <ele>145</ele>
        <time>2016-05-01T08:08:38Z</time>
      </trkpt>
      <trkpt lat="43.68648" lon="3.44262">
        <ele>145.5</ele>
        <time>2016-05-01T08:08:43Z</time>
      </trkpt>
      <trkpt lat="43.68655" lon="3.44268">
        <ele>146</ele>
        <time>2016-05-01T08:08:46Z</time>
      </trkpt>
      <trkpt lat="43.68662" lon="3.44274">
        <ele>146.4</ele>
        <time>2016-05-01T08:08:51Z</time>
      </trkpt>
      <trkpt lat="43.6867" lon="3.44277">
        <ele>146.8</ele>
        <time>2016-05-01T08:08:57Z</time>
      </trkpt>
      <trkpt lat="43.68676" lon="3.44283">
        <ele>147</ele>
        <time>2016-05-01T08:09:01Z</time>
      </trkpt>
      <trkpt lat="43.68681" lon="3.4429">
        <ele>147.1</ele>
        <time>2016-05-01T08:09:03Z</time>
      </trkpt>
      <trkpt lat="43.68688" lon="3.44296">
        <ele>147.3</ele>
        <time>2016-05-01T08:09:07Z</time>
      </trkpt>
      <trkpt lat="43.68695" lon="3.44296">
        <ele>147.5</ele>
        <time>2016-05-01T08:09:10Z</time>
      </trkpt>
      <trkpt lat="43.68704" lon="3.44297">
        <ele>147.6</ele>
        <time>2016-05-01T08:09:13Z</time>
      </trkpt>
      <trkpt lat="43.68711" lon="3.44299">
        <ele>147.5</ele>
        <time>2016-05-01T08:09:16Z</time>
      </trkpt>
      <trkpt lat="43.6872" lon="3.44301">
        <ele>147.7</ele>
        <time>2016-05-01T08:09:21Z</time>
      </trkpt>
      <trkpt lat="43.68729" lon="3.443">
        <ele>147.7</ele>
        <time>2016-05-01T08:09:24Z</time>
      </trkpt>
      <trkpt lat="43.68737" lon="3.44297">
        <ele>147.9</ele>
        <time>2016-05-01T08:09:28Z</time>
      </trkpt>
      <trkpt lat="43.68745" lon="3.443">
        <ele>148.4</ele>
        <time>2016-05-01T08:09:31Z</time>
      </trkpt>
      <trkpt lat="43.68754" lon="3.44303">
        <ele>148.9</ele>
        <time>2016-05-01T08:09:35Z</time>
      </trkpt>
      <trkpt lat="43.68762" lon="3.44305">
        <ele>149.3</ele>
        <time>2016-05-01T08:09:39Z</time>
      </trkpt>
      <trkpt lat="43.6877" lon="3.4431">
        <ele>149.7</ele>
        <time>2016-05-01T08:09:43Z</time>
      </trkpt>
      <trkpt lat="43.68778" lon="3.44317">
        <ele>149.7</ele>
        <time>2016-05-01T08:09:46Z</time>
      </trkpt>
      <trkpt lat="43.68786" lon="3.44324">
        <ele>149.9</ele>
        <time>2016-05-01T08:09:50Z</time>
      </trkpt>
      <trkpt lat="43.68794" lon="3.44328">
        <ele>150</ele>
        <time>2016-05-01T08:09:54Z</time>
      </trkpt>
      <trkpt lat="43.68801" lon="3.44333">
        <ele>150</ele>
        <time>2016-05-01T08:09:57Z</time>
      </trkpt>
      <trkpt lat="43.68809" lon="3.44337">
        <ele>150</ele>
        <time>2016-05-01T08:10:01Z</time>
      </trkpt>
      <trkpt lat="43.68818" lon="3.44338">
        <ele>149.9</ele>
        <time>2016-05-01T08:10:06Z</time>
      </trkpt>
      <trkpt lat="43.68825" lon="3.44341">
        <ele>150.2</ele>
        <time>2016-05-01T08:10:11Z</time>
      </trkpt>
      <trkpt lat="43.68832" lon="3.44343">
        <ele>150.2</ele>
        <time>2016-05-01T08:10:15Z</time>
      </trkpt>
      <trkpt lat="43.6884" lon="3.44344">
        <ele>150.1</ele>
        <time>2016-05-01T08:10:20Z</time>
      </trkpt>
      <trkpt lat="43.68846" lon="3.4434">
        <ele>150.1</ele>
        <time>2016-05-01T08:10:25Z</time>
      </trkpt>
      <trkpt lat="43.68856" lon="3.44337">
        <ele>150</ele>
        <time>2016-05-01T08:10:30Z</time>
      </trkpt>
      <trkpt lat="43.68863" lon="3.44341">
        <ele>150</ele>
        <time>2016-05-01T08:10:32Z</time>
      </trkpt>
      <trkpt lat="43.6887" lon="3.44347">
        <ele>150</ele>
        <time>2016-05-01T08:10:34Z</time>
      </trkpt>
      <trkpt lat="43.68878" lon="3.4435">
        <ele>150</ele>
        <time>2016-05-01T08:10:38Z</time>
      </trkpt>
      <trkpt lat="43.68885" lon="3.44351">
        <ele>150.1</ele>
        <time>2016-05-01T08:10:41Z</time>
      </trkpt>
      <trkpt lat="43.68892" lon="3.44354">
        <ele>150.2</ele>
        <time>2016-05-01T08:10:45Z</time>
      </trkpt>
      <trkpt lat="43.68901" lon="3.44359">
        <ele>150.4</ele>
        <time>2016-05-01T08:10:49Z</time>
      </trkpt>
      <trkpt lat="43.68908" lon="3.44364">
        <ele>150.7</ele>
        <time>2016-05-01T08:10:53Z</time>
      </trkpt>
      <trkpt lat="43.68916" lon="3.44364">
        <ele>150.8</ele>
        <time>2016-05-01T08:10:57Z</time>
      </trkpt>
      <trkpt lat="43.68924" lon="3.44362">
        <ele>150.8</ele>
        <time>2016-05-01T08:11:01Z</time>
      </trkpt>
      <trkpt lat="43.68932" lon="3.44361">
        <ele>151</ele>
        <time>2016-05-01T08:11:04Z</time>
      </trkpt>
      <trkpt lat="43.68941" lon="3.44358">
        <ele>151.1</ele>
        <time>2016-05-01T08:11:08Z</time>
      </trkpt>
      <trkpt lat="43.6895" lon="3.44357">
        <ele>151.2</ele>
        <time>2016-05-01T08:11:12Z</time>
      </trkpt>
      <trkpt lat="43.68958" lon="3.44358">
        <ele>151.4</ele>
        <time>2016-05-01T08:11:15Z</time>
      </trkpt>
      <trkpt lat="43.68968" lon="3.44354">
        <ele>151.6</ele>
        <time>2016-05-01T08:11:19Z</time>
      </trkpt>
      <trkpt lat="43.68975" lon="3.44351">
        <ele>151.8</ele>
        <time>2016-05-01T08:11:23Z</time>
      </trkpt>
      <trkpt lat="43.68983" lon="3.44351">
        <ele>152</ele>
        <time>2016-05-01T08:11:27Z</time>
      </trkpt>
      <trkpt lat="43.6899" lon="3.44352">
        <ele>152.4</ele>
        <time>2016-05-01T08:11:30Z</time>
      </trkpt>
      <trkpt lat="43.68997" lon="3.44356">
        <ele>153</ele>
        <time>2016-05-01T08:11:34Z</time>
      </trkpt>
      <trkpt lat="43.69005" lon="3.4436">
        <ele>153.6</ele>
        <time>2016-05-01T08:11:39Z</time>
      </trkpt>
      <trkpt lat="43.69012" lon="3.44364">
        <ele>154</ele>
        <time>2016-05-01T08:11:43Z</time>
      </trkpt>
      <trkpt lat="43.69013" lon="3.44355">
        <ele>154.3</ele>
        <time>2016-05-01T08:11:50Z</time>
      </trkpt>
      <trkpt lat="43.69016" lon="3.44344">
        <ele>154.2</ele>
        <time>2016-05-01T08:11:54Z</time>
      </trkpt>
      <trkpt lat="43.69019" lon="3.44333">
        <ele>154</ele>
        <time>2016-05-01T08:12:00Z</time>
      </trkpt>
      <trkpt lat="43.69026" lon="3.44328">
        <ele>154.4</ele>
        <time>2016-05-01T08:12:06Z</time>
      </trkpt>
      <trkpt lat="43.69033" lon="3.4433">
        <ele>154.8</ele>
        <time>2016-05-01T08:12:10Z</time>
      </trkpt>
      <trkpt lat="43.69041" lon="3.44336">
        <ele>155.2</ele>
        <time>2016-05-01T08:12:14Z</time>
      </trkpt>
      <trkpt lat="43.69048" lon="3.44335">
        <ele>155.8</ele>
        <time>2016-05-01T08:12:20Z</time>
      </trkpt>
      <trkpt lat="43.69049" lon="3.44324">
        <ele>156.3</ele>
        <time>2016-05-01T08:12:25Z</time>
      </trkpt>
      <trkpt lat="43.69047" lon="3.44313">
        <ele>157</ele>
        <time>2016-05-01T08:12:32Z</time>
      </trkpt>
      <trkpt lat="43.69046" lon="3.44303">
        <ele>157.1</ele>
        <time>2016-05-01T08:12:36Z</time>
      </trkpt>
      <trkpt lat="43.69046" lon="3.44292">
        <ele>157.6</ele>
        <time>2016-05-01T08:12:42Z</time>
      </trkpt>
      <trkpt lat="43.69048" lon="3.44282">
        <ele>158.7</ele>
        <time>2016-05-01T08:12:49Z</time>
      </trkpt>
      <trkpt lat="43.69051" lon="3.4427">
        <ele>159.2</ele>
        <time>2016-05-01T08:12:54Z</time>
      </trkpt>
      <trkpt lat="43.69051" lon="3.4426">
        <ele>159.7</ele>
        <time>2016-05-01T08:12:59Z</time>
      </trkpt>
      <trkpt lat="43.69054" lon="3.44249">
        <ele>160.4</ele>
        <time>2016-05-01T08:13:04Z</time>
      </trkpt>
      <trkpt lat="43.69057" lon="3.44239">
        <ele>160.5</ele>
        <time>2016-05-01T08:13:09Z</time>
      </trkpt>
      <trkpt lat="43.69059" lon="3.44228">
        <ele>160.7</ele>
        <time>2016-05-01T08:13:13Z</time>
      </trkpt>
      <trkpt lat="43.69057" lon="3.44215">
        <ele>161.5</ele>
        <time>2016-05-01T08:13:16Z</time>
      </trkpt>
      <trkpt lat="43.69055" lon="3.44201">
        <ele>162.2</ele>
        <time>2016-05-01T08:13:19Z</time>
      </trkpt>
      <trkpt lat="43.69052" lon="3.44192">
        <ele>162.3</ele>
        <time>2016-05-01T08:13:21Z</time>
      </trkpt>
      <trkpt lat="43.69048" lon="3.44179">
        <ele>162.6</ele>
        <time>2016-05-01T08:13:24Z</time>
      </trkpt>
      <trkpt lat="43.69043" lon="3.44168">
        <ele>163</ele>
        <time>2016-05-01T08:13:27Z</time>
      </trkpt>
      <trkpt lat="43.69038" lon="3.44155">
        <ele>163.3</ele>
        <time>2016-05-01T08:13:30Z</time>
      </trkpt>
      <trkpt lat="43.69032" lon="3.44144">
        <ele>163.4</ele>
        <time>2016-05-01T08:13:33Z</time>
      </trkpt>
      <trkpt lat="43.69026" lon="3.44132">
        <ele>162.2</ele>
        <time>2016-05-01T08:13:36Z</time>
      </trkpt>
      <trkpt lat="43.69023" lon="3.44123">
        <ele>162.1</ele>
        <time>2016-05-01T08:13:38Z</time>
      </trkpt>
      <trkpt lat="43.69018" lon="3.44111">
        <ele>162.1</ele>
        <time>2016-05-01T08:13:41Z</time>
      </trkpt>
      <trkpt lat="43.69015" lon="3.441">
        <ele>161.9</ele>
        <time>2016-05-01T08:13:43Z</time>
      </trkpt>
      <trkpt lat="43.69012" lon="3.4409">
        <ele>160.9</ele>
        <time>2016-05-01T08:13:45Z</time>
      </trkpt>
      <trkpt lat="43.69009" lon="3.44079">
        <ele>159.7</ele>
        <time>2016-05-01T08:13:47Z</time>
      </trkpt>
      <trkpt lat="43.69006" lon="3.44068">
        <ele>159.6</ele>
        <time>2016-05-01T08:13:49Z</time>
      </trkpt>
      <trkpt lat="43.69001" lon="3.44056">
        <ele>159.6</ele>
        <time>2016-05-01T08:13:52Z</time>
      </trkpt>
      <trkpt lat="43.68992" lon="3.44052">
        <ele>159.6</ele>
        <time>2016-05-01T08:13:55Z</time>
      </trkpt>
      <trkpt lat="43.68984" lon="3.44047">
        <ele>159.6</ele>
        <time>2016-05-01T08:13:58Z</time>
      </trkpt>
      <trkpt lat="43.68974" lon="3.44043">
        <ele>159.3</ele>
        <time>2016-05-01T08:14:01Z</time>
      </trkpt>
      <trkpt lat="43.68966" lon="3.44039">
        <ele>159</ele>
        <time>2016-05-01T08:14:03Z</time>
      </trkpt>
      <trkpt lat="43.68959" lon="3.44035">
        <ele>158.6</ele>
        <time>2016-05-01T08:14:05Z</time>
      </trkpt>
      <trkpt lat="43.68952" lon="3.44032">
        <ele>158.6</ele>
        <time>2016-05-01T08:14:07Z</time>
      </trkpt>
      <trkpt lat="43.68945" lon="3.44028">
        <ele>159.7</ele>
        <time>2016-05-01T08:14:09Z</time>
      </trkpt>
      <trkpt lat="43.68937" lon="3.44025">
        <ele>159.6</ele>
        <time>2016-05-01T08:14:11Z</time>
      </trkpt>
      <trkpt lat="43.6893" lon="3.44021">
        <ele>160.4</ele>
        <time>2016-05-01T08:14:13Z</time>
      </trkpt>
      <trkpt lat="43.68922" lon="3.44017">
        <ele>160.6</ele>
        <time>2016-05-01T08:14:15Z</time>
      </trkpt>
      <trkpt lat="43.68914" lon="3.44013">
        <ele>160.7</ele>
        <time>2016-05-01T08:14:17Z</time>
      </trkpt>
      <trkpt lat="43.68904" lon="3.44007">
        <ele>160.7</ele>
        <time>2016-05-01T08:14:20Z</time>
      </trkpt>
      <trkpt lat="43.68896" lon="3.44001">
        <ele>162.6</ele>
        <time>2016-05-01T08:14:22Z</time>
      </trkpt>
      <trkpt lat="43.68886" lon="3.43995">
        <ele>162.1</ele>
        <time>2016-05-01T08:14:25Z</time>
      </trkpt>
      <trkpt lat="43.68879" lon="3.43988">
        <ele>162</ele>
        <time>2016-05-01T08:14:27Z</time>
      </trkpt>
      <trkpt lat="43.68872" lon="3.43982">
        <ele>162.1</ele>
        <time>2016-05-01T08:14:29Z</time>
      </trkpt>
      <trkpt lat="43.68863" lon="3.43976">
        <ele>163.1</ele>
        <time>2016-05-01T08:14:31Z</time>
      </trkpt>
      <trkpt lat="43.68856" lon="3.43969">
        <ele>163.1</ele>
        <time>2016-05-01T08:14:33Z</time>
      </trkpt>
      <trkpt lat="43.68853" lon="3.43958">
        <ele>162.4</ele>
        <time>2016-05-01T08:14:35Z</time>
      </trkpt>
      <trkpt lat="43.68853" lon="3.43945">
        <ele>161.3</ele>
        <time>2016-05-01T08:14:37Z</time>
      </trkpt>
      <trkpt lat="43.68854" lon="3.43934">
        <ele>160.4</ele>
        <time>2016-05-01T08:14:39Z</time>
      </trkpt>
      <trkpt lat="43.6886" lon="3.43922">
        <ele>158.8</ele>
        <time>2016-05-01T08:14:41Z</time>
      </trkpt>
      <trkpt lat="43.68865" lon="3.43914">
        <ele>157.3</ele>
        <time>2016-05-01T08:14:43Z</time>
      </trkpt>
      <trkpt lat="43.68869" lon="3.43903">
        <ele>156.8</ele>
        <time>2016-05-01T08:14:45Z</time>
      </trkpt>
      <trkpt lat="43.68875" lon="3.43894">
        <ele>157.9</ele>
        <time>2016-05-01T08:14:47Z</time>
      </trkpt>
      <trkpt lat="43.68879" lon="3.43885">
        <ele>158.2</ele>
        <time>2016-05-01T08:14:49Z</time>
      </trkpt>
      <trkpt lat="43.68883" lon="3.43876">
        <ele>158</ele>
        <time>2016-05-01T08:14:51Z</time>
      </trkpt>
      <trkpt lat="43.68888" lon="3.43865">
        <ele>157.8</ele>
        <time>2016-05-01T08:14:56Z</time>
      </trkpt>
      <trkpt lat="43.68895" lon="3.43859">
        <ele>157.6</ele>
        <time>2016-05-01T08:15:00Z</time>
      </trkpt>
      <trkpt lat="43.689" lon="3.4385">
        <ele>156.7</ele>
        <time>2016-05-01T08:15:06Z</time>
      </trkpt>
      <trkpt lat="43.68905" lon="3.43842">
        <ele>156.5</ele>
        <time>2016-05-01T08:15:09Z</time>
      </trkpt>
      <trkpt lat="43.68911" lon="3.43833">
        <ele>156.6</ele>
        <time>2016-05-01T08:15:13Z</time>
      </trkpt>
      <trkpt lat="43.68915" lon="3.43824">
        <ele>156.7</ele>
        <time>2016-05-01T08:15:16Z</time>
      </trkpt>
      <trkpt lat="43.68921" lon="3.43814">
        <ele>156.9</ele>
        <time>2016-05-01T08:15:20Z</time>
      </trkpt>
      <trkpt lat="43.68928" lon="3.43805">
        <ele>156.8</ele>
        <time>2016-05-01T08:15:23Z</time>
      </trkpt>
      <trkpt lat="43.68934" lon="3.43798">
        <ele>156.8</ele>
        <time>2016-05-01T08:15:27Z</time>
      </trkpt>
      <trkpt lat="43.68941" lon="3.43794">
        <ele>156.9</ele>
        <time>2016-05-01T08:15:30Z</time>
      </trkpt>
      <trkpt lat="43.68948" lon="3.4379">
        <ele>156.9</ele>
        <time>2016-05-01T08:15:33Z</time>
      </trkpt>
      <trkpt lat="43.68956" lon="3.43785">
        <ele>156.8</ele>
        <time>2016-05-01T08:15:37Z</time>
      </trkpt>
      <trkpt lat="43.68965" lon="3.43781">
        <ele>156.8</ele>
        <time>2016-05-01T08:15:40Z</time>
      </trkpt>
      <trkpt lat="43.68973" lon="3.43773">
        <ele>156.1</ele>
        <time>2016-05-01T08:15:44Z</time>
      </trkpt>
      <trkpt lat="43.68984" lon="3.43774">
        <ele>156.1</ele>
        <time>2016-05-01T08:15:47Z</time>
      </trkpt>
      <trkpt lat="43.68994" lon="3.43774">
        <ele>155.9</ele>
        <time>2016-05-01T08:15:50Z</time>
      </trkpt>
      <trkpt lat="43.69004" lon="3.43772">
        <ele>156</ele>
        <time>2016-05-01T08:15:53Z</time>
      </trkpt>
      <trkpt lat="43.69011" lon="3.4377">
        <ele>156.1</ele>
        <time>2016-05-01T08:15:56Z</time>
      </trkpt>
      <trkpt lat="43.69019" lon="3.43768">
        <ele>156.4</ele>
        <time>2016-05-01T08:15:59Z</time>
      </trkpt>
      <trkpt lat="43.69029" lon="3.43765">
        <ele>157.5</ele>
        <time>2016-05-01T08:16:02Z</time>
      </trkpt>
      <trkpt lat="43.69037" lon="3.43762">
        <ele>157.3</ele>
        <time>2016-05-01T08:16:05Z</time>
      </trkpt>
      <trkpt lat="43.69044" lon="3.43758">
        <ele>156.9</ele>
        <time>2016-05-01T08:16:09Z</time>
      </trkpt>
      <trkpt lat="43.69051" lon="3.43749">
        <ele>156.3</ele>
        <time>2016-05-01T08:16:14Z</time>
      </trkpt>
      <trkpt lat="43.69058" lon="3.43737">
        <ele>156</ele>
        <time>2016-05-01T08:16:17Z</time>
      </trkpt>
      <trkpt lat="43.69063" lon="3.43729">
        <ele>156</ele>
        <time>2016-05-01T08:16:20Z</time>
      </trkpt>
      <trkpt lat="43.69068" lon="3.43721">
        <ele>156</ele>
        <time>2016-05-01T08:16:23Z</time>
      </trkpt>
      <trkpt lat="43.69075" lon="3.43717">
        <ele>156.1</ele>
        <time>2016-05-01T08:16:26Z</time>
      </trkpt>
      <trkpt lat="43.69083" lon="3.43713">
        <ele>156.1</ele>
        <time>2016-05-01T08:16:30Z</time>
      </trkpt>
      <trkpt lat="43.6909" lon="3.43707">
        <ele>156.1</ele>
        <time>2016-05-01T08:16:34Z</time>
      </trkpt>
      <trkpt lat="43.69095" lon="3.43698">
        <ele>156.1</ele>
        <time>2016-05-01T08:16:39Z</time>
      </trkpt>
      <trkpt lat="43.69098" lon="3.43688">
        <ele>156.1</ele>
        <time>2016-05-01T08:16:43Z</time>
      </trkpt>
      <trkpt lat="43.691" lon="3.43677">
        <ele>156.2</ele>
        <time>2016-05-01T08:16:48Z</time>
      </trkpt>
      <trkpt lat="43.69104" lon="3.43667">
        <ele>156.1</ele>
        <time>2016-05-01T08:16:52Z</time>
      </trkpt>
      <trkpt lat="43.69108" lon="3.43657">
        <ele>155.9</ele>
        <time>2016-05-01T08:16:56Z</time>
      </trkpt>
      <trkpt lat="43.69113" lon="3.43648">
        <ele>155.9</ele>
        <time>2016-05-01T08:17:01Z</time>
      </trkpt>
      <trkpt lat="43.69116" lon="3.43637">
        <ele>156.2</ele>
        <time>2016-05-01T08:17:06Z</time>
      </trkpt>
      <trkpt lat="43.69117" lon="3.43627">
        <ele>156.5</ele>
        <time>2016-05-01T08:17:10Z</time>
      </trkpt>
      <trkpt lat="43.6912" lon="3.43617">
        <ele>156.6</ele>
        <time>2016-05-01T08:17:14Z</time>
      </trkpt>
      <trkpt lat="43.69124" lon="3.43607">
        <ele>157</ele>
        <time>2016-05-01T08:17:18Z</time>
      </trkpt>
      <trkpt lat="43.69127" lon="3.43596">
        <ele>157.7</ele>
        <time>2016-05-01T08:17:22Z</time>
      </trkpt>
      <trkpt lat="43.6913" lon="3.43586">
        <ele>158.8</ele>
        <time>2016-05-01T08:17:27Z</time>
      </trkpt>
      <trkpt lat="43.69133" lon="3.43577">
        <ele>159.4</ele>
        <time>2016-05-01T08:17:31Z</time>
      </trkpt>
      <trkpt lat="43.69134" lon="3.43567">
        <ele>159.8</ele>
        <time>2016-05-01T08:17:35Z</time>
      </trkpt>
      <trkpt lat="43.69135" lon="3.43556">
        <ele>160.1</ele>
        <time>2016-05-01T08:17:39Z</time>
      </trkpt>
      <trkpt lat="43.69138" lon="3.43544">
        <ele>160.5</ele>
        <time>2016-05-01T08:17:44Z</time>
      </trkpt>
      <trkpt lat="43.69142" lon="3.43534">
        <ele>161</ele>
        <time>2016-05-01T08:17:49Z</time>
      </trkpt>
      <trkpt lat="43.69145" lon="3.43523">
        <ele>161.6</ele>
        <time>2016-05-01T08:17:54Z</time>
      </trkpt>
      <trkpt lat="43.69147" lon="3.43513">
        <ele>162.2</ele>
        <time>2016-05-01T08:17:58Z</time>
      </trkpt>
      <trkpt lat="43.69152" lon="3.43503">
        <ele>163.1</ele>
        <time>2016-05-01T08:18:03Z</time>
      </trkpt>
      <trkpt lat="43.69155" lon="3.43494">
        <ele>163.5</ele>
        <time>2016-05-01T08:18:06Z</time>
      </trkpt>
      <trkpt lat="43.69157" lon="3.43483">
        <ele>164.3</ele>
        <time>2016-05-01T08:18:12Z</time>
      </trkpt>
      <trkpt lat="43.6916" lon="3.43473">
        <ele>165.2</ele>
        <time>2016-05-01T08:18:17Z</time>
      </trkpt>
      <trkpt lat="43.69161" lon="3.4346">
        <ele>166.4</ele>
        <time>2016-05-01T08:18:23Z</time>
      </trkpt>
      <trkpt lat="43.69163" lon="3.43449">
        <ele>167.4</ele>
        <time>2016-05-01T08:18:27Z</time>
      </trkpt>
      <trkpt lat="43.69165" lon="3.43439">
        <ele>168.3</ele>
        <time>2016-05-01T08:18:32Z</time>
      </trkpt>
      <trkpt lat="43.69167" lon="3.43428">
        <ele>169.5</ele>
        <time>2016-05-01T08:18:37Z</time>
      </trkpt>
      <trkpt lat="43.69168" lon="3.43417">
        <ele>170.6</ele>
        <time>2016-05-01T08:18:42Z</time>
      </trkpt>
      <trkpt lat="43.69169" lon="3.43408">
        <ele>171.7</ele>
        <time>2016-05-01T08:18:46Z</time>
      </trkpt>
      <trkpt lat="43.6917" lon="3.43397">
        <ele>172.9</ele>
        <time>2016-05-01T08:18:51Z</time>
      </trkpt>
      <trkpt lat="43.69171" lon="3.43386">
        <ele>174.3</ele>
        <time>2016-05-01T08:18:57Z</time>
      </trkpt>
      <trkpt lat="43.69172" lon="3.43374">
        <ele>175.3</ele>
        <time>2016-05-01T08:19:04Z</time>
      </trkpt>
      <trkpt lat="43.69174" lon="3.43364">
        <ele>175.8</ele>
        <time>2016-05-01T08:19:08Z</time>
      </trkpt>
      <trkpt lat="43.69175" lon="3.43354">
        <ele>176.4</ele>
        <time>2016-05-01T08:19:13Z</time>
      </trkpt>
      <trkpt lat="43.69175" lon="3.43343">
        <ele>177.1</ele>
        <time>2016-05-01T08:19:18Z</time>
      </trkpt>
      <trkpt lat="43.69176" lon="3.43333">
        <ele>177.8</ele>
        <time>2016-05-01T08:19:22Z</time>
      </trkpt>
      <trkpt lat="43.69176" lon="3.43323">
        <ele>178.5</ele>
        <time>2016-05-01T08:19:26Z</time>
      </trkpt>
      <trkpt lat="43.69177" lon="3.43311">
        <ele>179.5</ele>
        <time>2016-05-01T08:19:31Z</time>
      </trkpt>
      <trkpt lat="43.69175" lon="3.43301">
        <ele>180.6</ele>
        <time>2016-05-01T08:19:37Z</time>
      </trkpt>
      <trkpt lat="43.69172" lon="3.43289">
        <ele>182.1</ele>
        <time>2016-05-01T08:19:43Z</time>
      </trkpt>
      <trkpt lat="43.6917" lon="3.43279">
        <ele>183.4</ele>
        <time>2016-05-01T08:19:47Z</time>
      </trkpt>
      <trkpt lat="43.69169" lon="3.43266">
        <ele>184.9</ele>
        <time>2016-05-01T08:19:53Z</time>
      </trkpt>
      <trkpt lat="43.69167" lon="3.43255">
        <ele>186.2</ele>
        <time>2016-05-01T08:19:58Z</time>
      </trkpt>
      <trkpt lat="43.69165" lon="3.43244">
        <ele>187.1</ele>
        <time>2016-05-01T08:20:03Z</time>
      </trkpt>
      <trkpt lat="43.69166" lon="3.43232">
        <ele>188.1</ele>
        <time>2016-05-01T08:20:09Z</time>
      </trkpt>
      <trkpt lat="43.69165" lon="3.43221">
        <ele>189</ele>
        <time>2016-05-01T08:20:14Z</time>
      </trkpt>
      <trkpt lat="43.69161" lon="3.43211">
        <ele>189.4</ele>
        <time>2016-05-01T08:20:20Z</time>
      </trkpt>
      <trkpt lat="43.69159" lon="3.43199">
        <ele>189.4</ele>
        <time>2016-05-01T08:20:24Z</time>
      </trkpt>
      <trkpt lat="43.69158" lon="3.43188">
        <ele>189.5</ele>
        <time>2016-05-01T08:20:28Z</time>
      </trkpt>
      <trkpt lat="43.69158" lon="3.43175">
        <ele>190</ele>
        <time>2016-05-01T08:20:33Z</time>
      </trkpt>
      <trkpt lat="43.69158" lon="3.43164">
        <ele>190.4</ele>
        <time>2016-05-01T08:20:36Z</time>
      </trkpt>
      <trkpt lat="43.69161" lon="3.43152">
        <ele>190.8</ele>
        <time>2016-05-01T08:20:40Z</time>
      </trkpt>
      <trkpt lat="43.69167" lon="3.43146">
        <ele>191.6</ele>
        <time>2016-05-01T08:20:47Z</time>
      </trkpt>
      <trkpt lat="43.69174" lon="3.43141">
        <ele>192</ele>
        <time>2016-05-01T08:20:51Z</time>
      </trkpt>
      <trkpt lat="43.69181" lon="3.43137">
        <ele>192.2</ele>
        <time>2016-05-01T08:20:53Z</time>
      </trkpt>
      <trkpt lat="43.69189" lon="3.43133">
        <ele>192.3</ele>
        <time>2016-05-01T08:20:55Z</time>
      </trkpt>
      <trkpt lat="43.69195" lon="3.43123">
        <ele>192.9</ele>
        <time>2016-05-01T08:20:58Z</time>
      </trkpt>
      <trkpt lat="43.69199" lon="3.43112">
        <ele>193.5</ele>
        <time>2016-05-01T08:21:01Z</time>
      </trkpt>
      <trkpt lat="43.692" lon="3.43101">
        <ele>194</ele>
        <time>2016-05-01T08:21:04Z</time>
      </trkpt>
      <trkpt lat="43.69202" lon="3.43091">
        <ele>194.4</ele>
        <time>2016-05-01T08:21:07Z</time>
      </trkpt>
      <trkpt lat="43.69202" lon="3.4308">
        <ele>194.8</ele>
        <time>2016-05-01T08:21:11Z</time>
      </trkpt>
      <trkpt lat="43.69203" lon="3.43067">
        <ele>195.1</ele>
        <time>2016-05-01T08:21:14Z</time>
      </trkpt>
      <trkpt lat="43.69204" lon="3.43055">
        <ele>195.3</ele>
        <time>2016-05-01T08:21:18Z</time>
      </trkpt>
      <trkpt lat="43.69206" lon="3.43044">
        <ele>195.4</ele>
        <time>2016-05-01T08:21:21Z</time>
      </trkpt>
      <trkpt lat="43.69208" lon="3.43029">
        <ele>195.6</ele>
        <time>2016-05-01T08:21:24Z</time>
      </trkpt>
      <trkpt lat="43.69207" lon="3.43019">
        <ele>195.7</ele>
        <time>2016-05-01T08:21:26Z</time>
      </trkpt>
      <trkpt lat="43.69204" lon="3.43007">
        <ele>195.9</ele>
        <time>2016-05-01T08:21:29Z</time>
      </trkpt>
      <trkpt lat="43.69205" lon="3.42997">
        <ele>196</ele>
        <time>2016-05-01T08:21:32Z</time>
      </trkpt>
      <trkpt lat="43.69206" lon="3.42983">
        <ele>196.2</ele>
        <time>2016-05-01T08:21:35Z</time>
      </trkpt>
      <trkpt lat="43.69205" lon="3.42973">
        <ele>196.7</ele>
        <time>2016-05-01T08:21:37Z</time>
      </trkpt>
      <trkpt lat="43.69207" lon="3.42958">
        <ele>196.1</ele>
        <time>2016-05-01T08:21:40Z</time>
      </trkpt>
      <trkpt lat="43.69209" lon="3.42946">
        <ele>195.5</ele>
        <time>2016-05-01T08:21:42Z</time>
      </trkpt>
      <trkpt lat="43.69209" lon="3.42933">
        <ele>194.4</ele>
        <time>2016-05-01T08:21:44Z</time>
      </trkpt>
      <trkpt lat="43.69211" lon="3.42921">
        <ele>192.9</ele>
        <time>2016-05-01T08:21:46Z</time>
      </trkpt>
      <trkpt lat="43.69213" lon="3.42907">
        <ele>191.7</ele>
        <time>2016-05-01T08:21:48Z</time>
      </trkpt>
      <trkpt lat="43.69217" lon="3.42893">
        <ele>191.2</ele>
        <time>2016-05-01T08:21:50Z</time>
      </trkpt>
      <trkpt lat="43.69218" lon="3.42877">
        <ele>189.6</ele>
        <time>2016-05-01T08:21:52Z</time>
      </trkpt>
      <trkpt lat="43.69215" lon="3.42861">
        <ele>188.6</ele>
        <time>2016-05-01T08:21:54Z</time>
      </trkpt>
      <trkpt lat="43.69213" lon="3.42848">
        <ele>188.5</ele>
        <time>2016-05-01T08:21:56Z</time>
      </trkpt>
      <trkpt lat="43.69212" lon="3.42834">
        <ele>187.9</ele>
        <time>2016-05-01T08:21:58Z</time>
      </trkpt>
      <trkpt lat="43.69216" lon="3.42822">
        <ele>187.6</ele>
        <time>2016-05-01T08:22:00Z</time>
      </trkpt>
      <trkpt lat="43.69219" lon="3.42809">
        <ele>186.9</ele>
        <time>2016-05-01T08:22:02Z</time>
      </trkpt>
      <trkpt lat="43.69221" lon="3.42797">
        <ele>185.7</ele>
        <time>2016-05-01T08:22:04Z</time>
      </trkpt>
      <trkpt lat="43.69224" lon="3.42783">
        <ele>184.3</ele>
        <time>2016-05-01T08:22:06Z</time>
      </trkpt>
      <trkpt lat="43.69225" lon="3.42768">
        <ele>183.7</ele>
        <time>2016-05-01T08:22:08Z</time>
      </trkpt>
      <trkpt lat="43.69226" lon="3.42757">
        <ele>183.7</ele>
        <time>2016-05-01T08:22:09Z</time>
      </trkpt>
      <trkpt lat="43.69227" lon="3.42747">
        <ele>182.8</ele>
        <time>2016-05-01T08:22:10Z</time>
      </trkpt>
      <trkpt lat="43.69228" lon="3.42736">
        <ele>182.5</ele>
        <time>2016-05-01T08:22:11Z</time>
      </trkpt>
      <trkpt lat="43.6923" lon="3.42726">
        <ele>182.5</ele>
        <time>2016-05-01T08:22:12Z</time>
      </trkpt>
      <trkpt lat="43.69231" lon="3.42715">
        <ele>182.7</ele>
        <time>2016-05-01T08:22:13Z</time>
      </trkpt>
      <trkpt lat="43.69234" lon="3.42696">
        <ele>182.5</ele>
        <time>2016-05-01T08:22:15Z</time>
      </trkpt>
      <trkpt lat="43.69237" lon="3.4268">
        <ele>183.3</ele>
        <time>2016-05-01T08:22:17Z</time>
      </trkpt>
      <trkpt lat="43.69245" lon="3.42667">
        <ele>183.2</ele>
        <time>2016-05-01T08:22:19Z</time>
      </trkpt>
      <trkpt lat="43.69249" lon="3.42655">
        <ele>183</ele>
        <time>2016-05-01T08:22:21Z</time>
      </trkpt>
      <trkpt lat="43.69246" lon="3.42644">
        <ele>181.8</ele>
        <time>2016-05-01T08:22:27Z</time>
      </trkpt>
      <trkpt lat="43.69243" lon="3.42634">
        <ele>181.4</ele>
        <time>2016-05-01T08:22:31Z</time>
      </trkpt>
      <trkpt lat="43.69244" lon="3.42621">
        <ele>181.1</ele>
        <time>2016-05-01T08:22:34Z</time>
      </trkpt>
      <trkpt lat="43.69242" lon="3.42611">
        <ele>180.8</ele>
        <time>2016-05-01T08:22:37Z</time>
      </trkpt>
      <trkpt lat="43.6924" lon="3.426">
        <ele>180.2</ele>
        <time>2016-05-01T08:22:41Z</time>
      </trkpt>
      <trkpt lat="43.6924" lon="3.42599">
        <ele>179.9</ele>
        <time>2016-05-01T08:22:48Z</time>
      </trkpt>
      <trkpt lat="43.69237" lon="3.42589">
        <ele>177.7</ele>
        <time>2016-05-01T08:22:29Z</time>
      </trkpt>
      <trkpt lat="43.69229" lon="3.42581">
        <ele>177.2</ele>
        <time>2016-05-01T08:23:38Z</time>
      </trkpt>
      <trkpt lat="43.69224" lon="3.42571">
        <ele>177</ele>
        <time>2016-05-01T08:23:40Z</time>
      </trkpt>
      <trkpt lat="43.6922" lon="3.42562">
        <ele>176.8</ele>
        <time>2016-05-01T08:23:42Z</time>
      </trkpt>
      <trkpt lat="43.69215" lon="3.42555">
        <ele>176.7</ele>
        <time>2016-05-01T08:23:44Z</time>
      </trkpt>
      <trkpt lat="43.69212" lon="3.42544">
        <ele>176.5</ele>
        <time>2016-05-01T08:23:47Z</time>
      </trkpt>
      <trkpt lat="43.6921" lon="3.42534">
        <ele>176.4</ele>
        <time>2016-05-01T08:23:50Z</time>
      </trkpt>
      <trkpt lat="43.69207" lon="3.42524">
        <ele>176.3</ele>
        <time>2016-05-01T08:23:53Z</time>
      </trkpt>
      <trkpt lat="43.69203" lon="3.42512">
        <ele>176.2</ele>
        <time>2016-05-01T08:23:56Z</time>
      </trkpt>
      <trkpt lat="43.69198" lon="3.42501">
        <ele>175.9</ele>
        <time>2016-05-01T08:23:59Z</time>
      </trkpt>
      <trkpt lat="43.69194" lon="3.42488">
        <ele>175.8</ele>
        <time>2016-05-01T08:24:02Z</time>
      </trkpt>
      <trkpt lat="43.69191" lon="3.42479">
        <ele>175.6</ele>
        <time>2016-05-01T08:24:04Z</time>
      </trkpt>
      <trkpt lat="43.69184" lon="3.42467">
        <ele>175.4</ele>
        <time>2016-05-01T08:24:07Z</time>
      </trkpt>
      <trkpt lat="43.6918" lon="3.4246">
        <ele>174.8</ele>
        <time>2016-05-01T08:24:09Z</time>
      </trkpt>
      <trkpt lat="43.69174" lon="3.42453">
        <ele>173.8</ele>
        <time>2016-05-01T08:24:11Z</time>
      </trkpt>
      <trkpt lat="43.69167" lon="3.42446">
        <ele>173.8</ele>
        <time>2016-05-01T08:24:14Z</time>
      </trkpt>
      <trkpt lat="43.6916" lon="3.42441">
        <ele>174</ele>
        <time>2016-05-01T08:24:18Z</time>
      </trkpt>
      <trkpt lat="43.69153" lon="3.42432">
        <ele>174.5</ele>
        <time>2016-05-01T08:24:22Z</time>
      </trkpt>
      <trkpt lat="43.69147" lon="3.42425">
        <ele>174.7</ele>
        <time>2016-05-01T08:24:26Z</time>
      </trkpt>
      <trkpt lat="43.69141" lon="3.42421">
        <ele>174.9</ele>
        <time>2016-05-01T08:24:30Z</time>
      </trkpt>
      <trkpt lat="43.69134" lon="3.42417">
        <ele>175.2</ele>
        <time>2016-05-01T08:24:33Z</time>
      </trkpt>
      <trkpt lat="43.69128" lon="3.42411">
        <ele>175.2</ele>
        <time>2016-05-01T08:24:35Z</time>
      </trkpt>
      <trkpt lat="43.69123" lon="3.42403">
        <ele>175.2</ele>
        <time>2016-05-01T08:24:37Z</time>
      </trkpt>
      <trkpt lat="43.69117" lon="3.42395">
        <ele>175.1</ele>
        <time>2016-05-01T08:24:39Z</time>
      </trkpt>
      <trkpt lat="43.6911" lon="3.42385">
        <ele>175</ele>
        <time>2016-05-01T08:24:42Z</time>
      </trkpt>
      <trkpt lat="43.69104" lon="3.42378">
        <ele>176.4</ele>
        <time>2016-05-01T08:24:44Z</time>
      </trkpt>
      <trkpt lat="43.69098" lon="3.42368">
        <ele>177.3</ele>
        <time>2016-05-01T08:24:46Z</time>
      </trkpt>
      <trkpt lat="43.69093" lon="3.42358">
        <ele>178.7</ele>
        <time>2016-05-01T08:24:48Z</time>
      </trkpt>
      <trkpt lat="43.69088" lon="3.42347">
        <ele>179.8</ele>
        <time>2016-05-01T08:24:50Z</time>
      </trkpt>
      <trkpt lat="43.69081" lon="3.42338">
        <ele>180</ele>
        <time>2016-05-01T08:24:52Z</time>
      </trkpt>
      <trkpt lat="43.69073" lon="3.42331">
        <ele>178</ele>
        <time>2016-05-01T08:24:54Z</time>
      </trkpt>
      <trkpt lat="43.69067" lon="3.42322">
        <ele>178</ele>
        <time>2016-05-01T08:24:57Z</time>
      </trkpt>
      <trkpt lat="43.69061" lon="3.42315">
        <ele>178.1</ele>
        <time>2016-05-01T08:25:00Z</time>
      </trkpt>
      <trkpt lat="43.69055" lon="3.42309">
        <ele>178</ele>
        <time>2016-05-01T08:25:03Z</time>
      </trkpt>
      <trkpt lat="43.69049" lon="3.42303">
        <ele>178</ele>
        <time>2016-05-01T08:25:06Z</time>
      </trkpt>
      <trkpt lat="43.69042" lon="3.42295">
        <ele>177.9</ele>
        <time>2016-05-01T08:25:10Z</time>
      </trkpt>
      <trkpt lat="43.69039" lon="3.42285">
        <ele>178</ele>
        <time>2016-05-01T08:25:13Z</time>
      </trkpt>
      <trkpt lat="43.69037" lon="3.4227">
        <ele>177.7</ele>
        <time>2016-05-01T08:25:16Z</time>
      </trkpt>
      <trkpt lat="43.69032" lon="3.42257">
        <ele>177.1</ele>
        <time>2016-05-01T08:25:19Z</time>
      </trkpt>
      <trkpt lat="43.6903" lon="3.42248">
        <ele>176.7</ele>
        <time>2016-05-01T08:25:21Z</time>
      </trkpt>
      <trkpt lat="43.69026" lon="3.42235">
        <ele>176.2</ele>
        <time>2016-05-01T08:25:24Z</time>
      </trkpt>
      <trkpt lat="43.69021" lon="3.42222">
        <ele>176.1</ele>
        <time>2016-05-01T08:25:27Z</time>
      </trkpt>
      <trkpt lat="43.69019" lon="3.42211">
        <ele>175.9</ele>
        <time>2016-05-01T08:25:29Z</time>
      </trkpt>
      <trkpt lat="43.69016" lon="3.42201">
        <ele>174.3</ele>
        <time>2016-05-01T08:25:31Z</time>
      </trkpt>
      <trkpt lat="43.69012" lon="3.42191">
        <ele>174.1</ele>
        <time>2016-05-01T08:25:33Z</time>
      </trkpt>
      <trkpt lat="43.69008" lon="3.4218">
        <ele>172.3</ele>
        <time>2016-05-01T08:25:35Z</time>
      </trkpt>
      <trkpt lat="43.69005" lon="3.42166">
        <ele>172</ele>
        <time>2016-05-01T08:25:38Z</time>
      </trkpt>
      <trkpt lat="43.69002" lon="3.42156">
        <ele>171.6</ele>
        <time>2016-05-01T08:25:41Z</time>
      </trkpt>
      <trkpt lat="43.68999" lon="3.42145">
        <ele>171.2</ele>
        <time>2016-05-01T08:25:44Z</time>
      </trkpt>
      <trkpt lat="43.68995" lon="3.42132">
        <ele>170.9</ele>
        <time>2016-05-01T08:25:47Z</time>
      </trkpt>
      <trkpt lat="43.68994" lon="3.4212">
        <ele>170.8</ele>
        <time>2016-05-01T08:25:49Z</time>
      </trkpt>
      <trkpt lat="43.68991" lon="3.4211">
        <ele>170.7</ele>
        <time>2016-05-01T08:25:51Z</time>
      </trkpt>
      <trkpt lat="43.68989" lon="3.42098">
        <ele>170.8</ele>
        <time>2016-05-01T08:25:54Z</time>
      </trkpt>
      <trkpt lat="43.68988" lon="3.42087">
        <ele>170.7</ele>
        <time>2016-05-01T08:25:57Z</time>
      </trkpt>
      <trkpt lat="43.68987" lon="3.42077">
        <ele>170.6</ele>
        <time>2016-05-01T08:26:00Z</time>
      </trkpt>
      <trkpt lat="43.68985" lon="3.42066">
        <ele>170.6</ele>
        <time>2016-05-01T08:26:03Z</time>
      </trkpt>
      <trkpt lat="43.68982" lon="3.42055">
        <ele>170.4</ele>
        <time>2016-05-01T08:26:06Z</time>
      </trkpt>
      <trkpt lat="43.68979" lon="3.42043">
        <ele>170.4</ele>
        <time>2016-05-01T08:26:09Z</time>
      </trkpt>
      <trkpt lat="43.68975" lon="3.4203">
        <ele>170.3</ele>
        <time>2016-05-01T08:26:12Z</time>
      </trkpt>
      <trkpt lat="43.68973" lon="3.42018">
        <ele>169.9</ele>
        <time>2016-05-01T08:26:15Z</time>
      </trkpt>
      <trkpt lat="43.68972" lon="3.42007">
        <ele>169.9</ele>
        <time>2016-05-01T08:26:17Z</time>
      </trkpt>
      <trkpt lat="43.68971" lon="3.41997">
        <ele>170</ele>
        <time>2016-05-01T08:26:19Z</time>
      </trkpt>
      <trkpt lat="43.68968" lon="3.41985">
        <ele>170.3</ele>
        <time>2016-05-01T08:26:22Z</time>
      </trkpt>
      <trkpt lat="43.68965" lon="3.41975">
        <ele>170.4</ele>
        <time>2016-05-01T08:26:25Z</time>
      </trkpt>
      <trkpt lat="43.6896" lon="3.41965">
        <ele>170.6</ele>
        <time>2016-05-01T08:26:28Z</time>
      </trkpt>
      <trkpt lat="43.68955" lon="3.41954">
        <ele>170.5</ele>
        <time>2016-05-01T08:26:31Z</time>
      </trkpt>
      <trkpt lat="43.68955" lon="3.41941">
        <ele>170.8</ele>
        <time>2016-05-01T08:26:34Z</time>
      </trkpt>
      <trkpt lat="43.68954" lon="3.4193">
        <ele>171.1</ele>
        <time>2016-05-01T08:26:37Z</time>
      </trkpt>
      <trkpt lat="43.68952" lon="3.4192">
        <ele>171.3</ele>
        <time>2016-05-01T08:26:41Z</time>
      </trkpt>
      <trkpt lat="43.68949" lon="3.41911">
        <ele>171.2</ele>
        <time>2016-05-01T08:26:46Z</time>
      </trkpt>
      <trkpt lat="43.68948" lon="3.41898">
        <ele>171.7</ele>
        <time>2016-05-01T08:26:50Z</time>
      </trkpt>
      <trkpt lat="43.68945" lon="3.41888">
        <ele>172.2</ele>
        <time>2016-05-01T08:26:54Z</time>
      </trkpt>
      <trkpt lat="43.68946" lon="3.41878">
        <ele>172.3</ele>
        <time>2016-05-01T08:26:57Z</time>
      </trkpt>
      <trkpt lat="43.68946" lon="3.41866">
        <ele>172.7</ele>
        <time>2016-05-01T08:27:01Z</time>
      </trkpt>
      <trkpt lat="43.68943" lon="3.41857">
        <ele>173.4</ele>
        <time>2016-05-01T08:27:05Z</time>
      </trkpt>
      <trkpt lat="43.68939" lon="3.41848">
        <ele>173.8</ele>
        <time>2016-05-01T08:27:08Z</time>
      </trkpt>
      <trkpt lat="43.68935" lon="3.41835">
        <ele>174.3</ele>
        <time>2016-05-01T08:27:11Z</time>
      </trkpt>
      <trkpt lat="43.68933" lon="3.41822">
        <ele>174.9</ele>
        <time>2016-05-01T08:27:14Z</time>
      </trkpt>
      <trkpt lat="43.68925" lon="3.41817">
        <ele>175.6</ele>
        <time>2016-05-01T08:27:19Z</time>
      </trkpt>
      <trkpt lat="43.68922" lon="3.41814">
        <ele>176.4</ele>
        <time>2016-05-01T08:27:26Z</time>
      </trkpt>
      <trkpt lat="43.6892" lon="3.418">
        <ele>175.9</ele>
        <time>2016-05-01T08:28:51Z</time>
      </trkpt>
      <trkpt lat="43.68924" lon="3.41787">
        <ele>175.8</ele>
        <time>2016-05-01T08:28:54Z</time>
      </trkpt>
      <trkpt lat="43.68932" lon="3.41781">
        <ele>175.6</ele>
        <time>2016-05-01T08:28:57Z</time>
      </trkpt>
      <trkpt lat="43.68933" lon="3.41771">
        <ele>175.5</ele>
        <time>2016-05-01T08:29:00Z</time>
      </trkpt>
      <trkpt lat="43.68933" lon="3.41758">
        <ele>175.5</ele>
        <time>2016-05-01T08:29:03Z</time>
      </trkpt>
      <trkpt lat="43.68929" lon="3.41747">
        <ele>175.4</ele>
        <time>2016-05-01T08:29:07Z</time>
      </trkpt>
      <trkpt lat="43.68921" lon="3.41738">
        <ele>177.6</ele>
        <time>2016-05-01T08:29:10Z</time>
      </trkpt>
      <trkpt lat="43.6892" lon="3.41723">
        <ele>177.9</ele>
        <time>2016-05-01T08:29:13Z</time>
      </trkpt>
      <trkpt lat="43.68924" lon="3.41714">
        <ele>178.1</ele>
        <time>2016-05-01T08:29:15Z</time>
      </trkpt>
      <trkpt lat="43.68928" lon="3.41704">
        <ele>178.1</ele>
        <time>2016-05-01T08:29:19Z</time>
      </trkpt>
      <trkpt lat="43.68932" lon="3.41694">
        <ele>178.1</ele>
        <time>2016-05-01T08:29:23Z</time>
      </trkpt>
      <trkpt lat="43.68934" lon="3.41682">
        <ele>178.3</ele>
        <time>2016-05-01T08:29:27Z</time>
      </trkpt>
      <trkpt lat="43.68936" lon="3.41669">
        <ele>178.4</ele>
        <time>2016-05-01T08:29:31Z</time>
      </trkpt>
      <trkpt lat="43.68937" lon="3.41659">
        <ele>178.2</ele>
        <time>2016-05-01T08:29:34Z</time>
      </trkpt>
      <trkpt lat="43.68938" lon="3.41646">
        <ele>178</ele>
        <time>2016-05-01T08:29:38Z</time>
      </trkpt>
      <trkpt lat="43.6894" lon="3.41633">
        <ele>178</ele>
        <time>2016-05-01T08:29:42Z</time>
      </trkpt>
      <trkpt lat="43.6894" lon="3.41623">
        <ele>178</ele>
        <time>2016-05-01T08:29:46Z</time>
      </trkpt>
      <trkpt lat="43.6894" lon="3.41616">
        <ele>178</ele>
        <time>2016-05-01T08:29:53Z</time>
      </trkpt>
      <trkpt lat="43.68928" lon="3.41616">
        <ele>178.8</ele>
        <time>2016-05-01T08:29:57Z</time>
      </trkpt>
      <trkpt lat="43.68916" lon="3.41615">
        <ele>179</ele>
        <time>2016-05-01T08:29:59Z</time>
      </trkpt>
      <trkpt lat="43.68904" lon="3.41612">
        <ele>179.9</ele>
        <time>2016-05-01T08:30:01Z</time>
      </trkpt>
      <trkpt lat="43.68896" lon="3.41596">
        <ele>180.3</ele>
        <time>2016-05-01T08:30:03Z</time>
      </trkpt>
      <trkpt lat="43.68899" lon="3.41577">
        <ele>179.4</ele>
        <time>2016-05-01T08:30:05Z</time>
      </trkpt>
      <trkpt lat="43.68902" lon="3.41568">
        <ele>178.9</ele>
        <time>2016-05-01T08:30:06Z</time>
      </trkpt>
      <trkpt lat="43.68907" lon="3.41559">
        <ele>178.4</ele>
        <time>2016-05-01T08:30:07Z</time>
      </trkpt>
      <trkpt lat="43.68916" lon="3.41543">
        <ele>177.6</ele>
        <time>2016-05-01T08:30:09Z</time>
      </trkpt>
      <trkpt lat="43.68922" lon="3.41534">
        <ele>177.1</ele>
        <time>2016-05-01T08:30:10Z</time>
      </trkpt>
      <trkpt lat="43.6893" lon="3.4152">
        <ele>175.4</ele>
        <time>2016-05-01T08:30:12Z</time>
      </trkpt>
      <trkpt lat="43.68925" lon="3.41508">
        <ele>174</ele>
        <time>2016-05-01T08:30:15Z</time>
      </trkpt>
      <trkpt lat="43.68912" lon="3.41498">
        <ele>174</ele>
        <time>2016-05-01T08:30:17Z</time>
      </trkpt>
      <trkpt lat="43.68905" lon="3.41494">
        <ele>173.8</ele>
        <time>2016-05-01T08:30:18Z</time>
      </trkpt>
      <trkpt lat="43.68897" lon="3.4149">
        <ele>173.6</ele>
        <time>2016-05-01T08:30:19Z</time>
      </trkpt>
      <trkpt lat="43.68888" lon="3.41489">
        <ele>173.4</ele>
        <time>2016-05-01T08:30:20Z</time>
      </trkpt>
      <trkpt lat="43.6888" lon="3.415">
        <ele>172.6</ele>
        <time>2016-05-01T08:30:21Z</time>
      </trkpt>
      <trkpt lat="43.68871" lon="3.41509">
        <ele>171.5</ele>
        <time>2016-05-01T08:30:22Z</time>
      </trkpt>
      <trkpt lat="43.68863" lon="3.41518">
        <ele>170.1</ele>
        <time>2016-05-01T08:30:23Z</time>
      </trkpt>
      <trkpt lat="43.68856" lon="3.41526">
        <ele>169.2</ele>
        <time>2016-05-01T08:30:24Z</time>
      </trkpt>
      <trkpt lat="43.6885" lon="3.41534">
        <ele>168.2</ele>
        <time>2016-05-01T08:30:25Z</time>
      </trkpt>
      <trkpt lat="43.68842" lon="3.41538">
        <ele>167.5</ele>
        <time>2016-05-01T08:30:26Z</time>
      </trkpt>
      <trkpt lat="43.68834" lon="3.4154">
        <ele>166.9</ele>
        <time>2016-05-01T08:30:27Z</time>
      </trkpt>
      <trkpt lat="43.68827" lon="3.41536">
        <ele>166.4</ele>
        <time>2016-05-01T08:30:28Z</time>
      </trkpt>
      <trkpt lat="43.68821" lon="3.4153">
        <ele>166</ele>
        <time>2016-05-01T08:30:29Z</time>
      </trkpt>
      <trkpt lat="43.68812" lon="3.41513">
        <ele>165.2</ele>
        <time>2016-05-01T08:30:31Z</time>
      </trkpt>
      <trkpt lat="43.68804" lon="3.415">
        <ele>163.1</ele>
        <time>2016-05-01T08:30:33Z</time>
      </trkpt>
      <trkpt lat="43.68802" lon="3.41496">
        <ele>161.9</ele>
        <time>2016-05-01T08:30:40Z</time>
      </trkpt>
      <trkpt lat="43.68797" lon="3.41494">
        <ele>151</ele>
        <time>2016-05-01T08:35:39Z</time>
      </trkpt>
      <trkpt lat="43.68796" lon="3.41496">
        <ele>150.3</ele>
        <time>2016-05-01T08:35:46Z</time>
      </trkpt>
      <trkpt lat="43.68795" lon="3.41493">
        <ele>150.1</ele>
        <time>2016-05-01T08:35:53Z</time>
      </trkpt>
      <trkpt lat="43.68795" lon="3.41479">
        <ele>149.1</ele>
        <time>2016-05-01T08:36:06Z</time>
      </trkpt>
      <trkpt lat="43.68799" lon="3.4147">
        <ele>149.1</ele>
        <time>2016-05-01T08:36:09Z</time>
      </trkpt>
      <trkpt lat="43.68805" lon="3.41461">
        <ele>149.1</ele>
        <time>2016-05-01T08:36:12Z</time>
      </trkpt>
      <trkpt lat="43.68809" lon="3.41452">
        <ele>149.1</ele>
        <time>2016-05-01T08:36:15Z</time>
      </trkpt>
      <trkpt lat="43.68816" lon="3.41441">
        <ele>149</ele>
        <time>2016-05-01T08:36:18Z</time>
      </trkpt>
      <trkpt lat="43.68818" lon="3.41429">
        <ele>148.9</ele>
        <time>2016-05-01T08:36:21Z</time>
      </trkpt>
      <trkpt lat="43.6882" lon="3.41417">
        <ele>148.9</ele>
        <time>2016-05-01T08:36:24Z</time>
      </trkpt>
      <trkpt lat="43.68823" lon="3.41402">
        <ele>148.6</ele>
        <time>2016-05-01T08:36:27Z</time>
      </trkpt>
      <trkpt lat="43.68827" lon="3.41389">
        <ele>147</ele>
        <time>2016-05-01T08:36:29Z</time>
      </trkpt>
      <trkpt lat="43.68831" lon="3.41375">
        <ele>145.6</ele>
        <time>2016-05-01T08:36:31Z</time>
      </trkpt>
      <trkpt lat="43.68837" lon="3.41359">
        <ele>145.5</ele>
        <time>2016-05-01T08:36:33Z</time>
      </trkpt>
      <trkpt lat="43.68841" lon="3.41347">
        <ele>145.8</ele>
        <time>2016-05-01T08:36:34Z</time>
      </trkpt>
      <trkpt lat="43.68847" lon="3.41332">
        <ele>145.4</ele>
        <time>2016-05-01T08:36:36Z</time>
      </trkpt>
      <trkpt lat="43.68854" lon="3.4132">
        <ele>144.1</ele>
        <time>2016-05-01T08:36:38Z</time>
      </trkpt>
      <trkpt lat="43.68862" lon="3.41309">
        <ele>143.3</ele>
        <time>2016-05-01T08:36:40Z</time>
      </trkpt>
      <trkpt lat="43.68869" lon="3.41302">
        <ele>142.7</ele>
        <time>2016-05-01T08:36:42Z</time>
      </trkpt>
      <trkpt lat="43.68879" lon="3.41299">
        <ele>142.7</ele>
        <time>2016-05-01T08:36:45Z</time>
      </trkpt>
      <trkpt lat="43.68887" lon="3.41292">
        <ele>142.6</ele>
        <time>2016-05-01T08:36:48Z</time>
      </trkpt>
      <trkpt lat="43.68896" lon="3.4129">
        <ele>142.7</ele>
        <time>2016-05-01T08:36:51Z</time>
      </trkpt>
      <trkpt lat="43.68905" lon="3.41289">
        <ele>143.1</ele>
        <time>2016-05-01T08:36:54Z</time>
      </trkpt>
      <trkpt lat="43.68915" lon="3.41284">
        <ele>143.4</ele>
        <time>2016-05-01T08:36:57Z</time>
      </trkpt>
      <trkpt lat="43.68923" lon="3.41281">
        <ele>143.8</ele>
        <time>2016-05-01T08:37:00Z</time>
      </trkpt>
      <trkpt lat="43.68929" lon="3.41274">
        <ele>144.1</ele>
        <time>2016-05-01T08:37:02Z</time>
      </trkpt>
      <trkpt lat="43.68936" lon="3.4127">
        <ele>144.2</ele>
        <time>2016-05-01T08:37:04Z</time>
      </trkpt>
      <trkpt lat="43.68944" lon="3.41267">
        <ele>144.3</ele>
        <time>2016-05-01T08:37:06Z</time>
      </trkpt>
      <trkpt lat="43.68953" lon="3.41265">
        <ele>144.3</ele>
        <time>2016-05-01T08:37:09Z</time>
      </trkpt>
      <trkpt lat="43.68962" lon="3.41262">
        <ele>144.3</ele>
        <time>2016-05-01T08:37:12Z</time>
      </trkpt>
      <trkpt lat="43.6897" lon="3.4126">
        <ele>144.7</ele>
        <time>2016-05-01T08:37:15Z</time>
      </trkpt>
      <trkpt lat="43.68979" lon="3.41258">
        <ele>145</ele>
        <time>2016-05-01T08:37:18Z</time>
      </trkpt>
      <trkpt lat="43.68987" lon="3.41256">
        <ele>145.3</ele>
        <time>2016-05-01T08:37:21Z</time>
      </trkpt>
      <trkpt lat="43.68996" lon="3.41255">
        <ele>145.5</ele>
        <time>2016-05-01T08:37:24Z</time>
      </trkpt>
      <trkpt lat="43.69004" lon="3.41256">
        <ele>145.6</ele>
        <time>2016-05-01T08:37:27Z</time>
      </trkpt>
      <trkpt lat="43.69015" lon="3.41254">
        <ele>145.9</ele>
        <time>2016-05-01T08:37:30Z</time>
      </trkpt>
      <trkpt lat="43.69021" lon="3.41251">
        <ele>146.1</ele>
        <time>2016-05-01T08:37:32Z</time>
      </trkpt>
      <trkpt lat="43.69031" lon="3.41244">
        <ele>146.4</ele>
        <time>2016-05-01T08:37:35Z</time>
      </trkpt>
      <trkpt lat="43.69041" lon="3.41239">
        <ele>148</ele>
        <time>2016-05-01T08:37:38Z</time>
      </trkpt>
      <trkpt lat="43.6905" lon="3.41231">
        <ele>150.7</ele>
        <time>2016-05-01T08:37:41Z</time>
      </trkpt>
      <trkpt lat="43.69055" lon="3.41223">
        <ele>152.7</ele>
        <time>2016-05-01T08:37:43Z</time>
      </trkpt>
      <trkpt lat="43.69062" lon="3.41215">
        <ele>153.4</ele>
        <time>2016-05-01T08:37:45Z</time>
      </trkpt>
      <trkpt lat="43.69067" lon="3.41205">
        <ele>153.5</ele>
        <time>2016-05-01T08:37:47Z</time>
      </trkpt>
      <trkpt lat="43.69072" lon="3.41197">
        <ele>153.7</ele>
        <time>2016-05-01T08:37:49Z</time>
      </trkpt>
      <trkpt lat="43.6908" lon="3.41187">
        <ele>153.6</ele>
        <time>2016-05-01T08:37:52Z</time>
      </trkpt>
      <trkpt lat="43.69088" lon="3.41182">
        <ele>153.3</ele>
        <time>2016-05-01T08:37:54Z</time>
      </trkpt>
      <trkpt lat="43.69096" lon="3.41178">
        <ele>153.2</ele>
        <time>2016-05-01T08:37:56Z</time>
      </trkpt>
      <trkpt lat="43.69104" lon="3.41174">
        <ele>153.2</ele>
        <time>2016-05-01T08:37:58Z</time>
      </trkpt>
      <trkpt lat="43.69111" lon="3.41167">
        <ele>154</ele>
        <time>2016-05-01T08:38:00Z</time>
      </trkpt>
      <trkpt lat="43.69117" lon="3.41155">
        <ele>153.5</ele>
        <time>2016-05-01T08:38:02Z</time>
      </trkpt>
      <trkpt lat="43.69128" lon="3.41148">
        <ele>152.5</ele>
        <time>2016-05-01T08:38:04Z</time>
      </trkpt>
      <trkpt lat="43.69136" lon="3.41146">
        <ele>152.5</ele>
        <time>2016-05-01T08:38:07Z</time>
      </trkpt>
      <trkpt lat="43.69143" lon="3.41144">
        <ele>152.2</ele>
        <time>2016-05-01T08:38:10Z</time>
      </trkpt>
      <trkpt lat="43.69151" lon="3.41142">
        <ele>152.1</ele>
        <time>2016-05-01T08:38:13Z</time>
      </trkpt>
      <trkpt lat="43.6916" lon="3.4114">
        <ele>151.8</ele>
        <time>2016-05-01T08:38:17Z</time>
      </trkpt>
      <trkpt lat="43.69168" lon="3.41138">
        <ele>151.4</ele>
        <time>2016-05-01T08:38:21Z</time>
      </trkpt>
      <trkpt lat="43.69177" lon="3.41137">
        <ele>151.1</ele>
        <time>2016-05-01T08:38:25Z</time>
      </trkpt>
      <trkpt lat="43.69185" lon="3.41136">
        <ele>150.8</ele>
        <time>2016-05-01T08:38:29Z</time>
      </trkpt>
      <trkpt lat="43.69195" lon="3.41136">
        <ele>150.7</ele>
        <time>2016-05-01T08:38:33Z</time>
      </trkpt>
      <trkpt lat="43.69203" lon="3.41135">
        <ele>150.6</ele>
        <time>2016-05-01T08:38:36Z</time>
      </trkpt>
      <trkpt lat="43.6921" lon="3.41133">
        <ele>150.6</ele>
        <time>2016-05-01T08:38:39Z</time>
      </trkpt>
      <trkpt lat="43.69218" lon="3.41133">
        <ele>150.4</ele>
        <time>2016-05-01T08:38:42Z</time>
      </trkpt>
      <trkpt lat="43.69226" lon="3.41134">
        <ele>150.3</ele>
        <time>2016-05-01T08:38:45Z</time>
      </trkpt>
      <trkpt lat="43.69236" lon="3.41136">
        <ele>150.4</ele>
        <time>2016-05-01T08:38:48Z</time>
      </trkpt>
      <trkpt lat="43.69245" lon="3.41139">
        <ele>150.5</ele>
        <time>2016-05-01T08:38:51Z</time>
      </trkpt>
      <trkpt lat="43.69254" lon="3.41143">
        <ele>150.8</ele>
        <time>2016-05-01T08:38:55Z</time>
      </trkpt>
      <trkpt lat="43.69261" lon="3.41148">
        <ele>151.1</ele>
        <time>2016-05-01T08:38:58Z</time>
      </trkpt>
      <trkpt lat="43.69268" lon="3.41153">
        <ele>151.3</ele>
        <time>2016-05-01T08:39:01Z</time>
      </trkpt>
      <trkpt lat="43.69276" lon="3.41159">
        <ele>151.4</ele>
        <time>2016-05-01T08:39:04Z</time>
      </trkpt>
      <trkpt lat="43.69282" lon="3.41164">
        <ele>151.7</ele>
        <time>2016-05-01T08:39:07Z</time>
      </trkpt>
      <trkpt lat="43.69291" lon="3.41169">
        <ele>151.9</ele>
        <time>2016-05-01T08:39:11Z</time>
      </trkpt>
      <trkpt lat="43.69298" lon="3.41172">
        <ele>152.1</ele>
        <time>2016-05-01T08:39:14Z</time>
      </trkpt>
      <trkpt lat="43.69306" lon="3.41177">
        <ele>152.2</ele>
        <time>2016-05-01T08:39:17Z</time>
      </trkpt>
      <trkpt lat="43.69314" lon="3.41182">
        <ele>152.3</ele>
        <time>2016-05-01T08:39:20Z</time>
      </trkpt>
      <trkpt lat="43.69322" lon="3.41187">
        <ele>152.3</ele>
        <time>2016-05-01T08:39:23Z</time>
      </trkpt>
      <trkpt lat="43.69331" lon="3.41191">
        <ele>152</ele>
        <time>2016-05-01T08:39:27Z</time>
      </trkpt>
      <trkpt lat="43.69339" lon="3.41193">
        <ele>152</ele>
        <time>2016-05-01T08:39:31Z</time>
      </trkpt>
      <trkpt lat="43.69346" lon="3.41185">
        <ele>152</ele>
        <time>2016-05-01T08:39:37Z</time>
      </trkpt>
      <trkpt lat="43.69353" lon="3.41179">
        <ele>151.9</ele>
        <time>2016-05-01T08:39:41Z</time>
      </trkpt>
      <trkpt lat="43.6936" lon="3.41177">
        <ele>151.8</ele>
        <time>2016-05-01T08:39:44Z</time>
      </trkpt>
      <trkpt lat="43.69369" lon="3.41175">
        <ele>152</ele>
        <time>2016-05-01T08:39:47Z</time>
      </trkpt>
      <trkpt lat="43.69377" lon="3.41171">
        <ele>152.6</ele>
        <time>2016-05-01T08:39:52Z</time>
      </trkpt>
      <trkpt lat="43.69385" lon="3.41171">
        <ele>152.9</ele>
        <time>2016-05-01T08:39:55Z</time>
      </trkpt>
      <trkpt lat="43.69393" lon="3.41173">
        <ele>153.3</ele>
        <time>2016-05-01T08:39:58Z</time>
      </trkpt>
      <trkpt lat="43.69402" lon="3.41178">
        <ele>153.9</ele>
        <time>2016-05-01T08:40:02Z</time>
      </trkpt>
      <trkpt lat="43.69409" lon="3.41185">
        <ele>154.2</ele>
        <time>2016-05-01T08:40:05Z</time>
      </trkpt>
      <trkpt lat="43.69417" lon="3.41193">
        <ele>154.5</ele>
        <time>2016-05-01T08:40:08Z</time>
      </trkpt>
      <trkpt lat="43.69426" lon="3.41201">
        <ele>154.7</ele>
        <time>2016-05-01T08:40:11Z</time>
      </trkpt>
      <trkpt lat="43.69432" lon="3.41209">
        <ele>154.8</ele>
        <time>2016-05-01T08:40:14Z</time>
      </trkpt>
      <trkpt lat="43.6944" lon="3.41215">
        <ele>155.1</ele>
        <time>2016-05-01T08:40:17Z</time>
      </trkpt>
      <trkpt lat="43.6945" lon="3.41219">
        <ele>155.5</ele>
        <time>2016-05-01T08:40:20Z</time>
      </trkpt>
      <trkpt lat="43.69459" lon="3.41222">
        <ele>155.8</ele>
        <time>2016-05-01T08:40:23Z</time>
      </trkpt>
      <trkpt lat="43.69468" lon="3.4122">
        <ele>156.1</ele>
        <time>2016-05-01T08:40:26Z</time>
      </trkpt>
      <trkpt lat="43.69476" lon="3.41218">
        <ele>156.4</ele>
        <time>2016-05-01T08:40:29Z</time>
      </trkpt>
      <trkpt lat="43.69486" lon="3.41214">
        <ele>156.7</ele>
        <time>2016-05-01T08:40:32Z</time>
      </trkpt>
      <trkpt lat="43.69494" lon="3.41213">
        <ele>157.2</ele>
        <time>2016-05-01T08:40:35Z</time>
      </trkpt>
      <trkpt lat="43.69504" lon="3.41214">
        <ele>157.6</ele>
        <time>2016-05-01T08:40:38Z</time>
      </trkpt>
      <trkpt lat="43.69512" lon="3.41216">
        <ele>159.3</ele>
        <time>2016-05-01T08:40:40Z</time>
      </trkpt>
      <trkpt lat="43.69523" lon="3.4122">
        <ele>160.8</ele>
        <time>2016-05-01T08:40:42Z</time>
      </trkpt>
      <trkpt lat="43.69533" lon="3.41222">
        <ele>160.9</ele>
        <time>2016-05-01T08:40:44Z</time>
      </trkpt>
      <trkpt lat="43.69545" lon="3.41223">
        <ele>160.6</ele>
        <time>2016-05-01T08:40:46Z</time>
      </trkpt>
      <trkpt lat="43.69554" lon="3.4122">
        <ele>160.6</ele>
        <time>2016-05-01T08:40:48Z</time>
      </trkpt>
      <trkpt lat="43.69562" lon="3.41215">
        <ele>159.5</ele>
        <time>2016-05-01T08:40:50Z</time>
      </trkpt>
      <trkpt lat="43.6957" lon="3.41214">
        <ele>159.7</ele>
        <time>2016-05-01T08:40:52Z</time>
      </trkpt>
      <trkpt lat="43.69579" lon="3.41216">
        <ele>160.6</ele>
        <time>2016-05-01T08:40:54Z</time>
      </trkpt>
      <trkpt lat="43.69586" lon="3.41218">
        <ele>160.9</ele>
        <time>2016-05-01T08:40:56Z</time>
      </trkpt>
      <trkpt lat="43.69595" lon="3.41225">
        <ele>160.9</ele>
        <time>2016-05-01T08:40:59Z</time>
      </trkpt>
      <trkpt lat="43.69602" lon="3.41234">
        <ele>160.9</ele>
        <time>2016-05-01T08:41:02Z</time>
      </trkpt>
      <trkpt lat="43.69608" lon="3.41243">
        <ele>160.9</ele>
        <time>2016-05-01T08:41:05Z</time>
      </trkpt>
      <trkpt lat="43.69612" lon="3.41252">
        <ele>160.9</ele>
        <time>2016-05-01T08:41:08Z</time>
      </trkpt>
      <trkpt lat="43.69619" lon="3.4126">
        <ele>161</ele>
        <time>2016-05-01T08:41:11Z</time>
      </trkpt>
      <trkpt lat="43.69625" lon="3.41267">
        <ele>161.2</ele>
        <time>2016-05-01T08:41:13Z</time>
      </trkpt>
      <trkpt lat="43.69629" lon="3.41275">
        <ele>161.5</ele>
        <time>2016-05-01T08:41:15Z</time>
      </trkpt>
      <trkpt lat="43.69635" lon="3.41283">
        <ele>161.3</ele>
        <time>2016-05-01T08:41:17Z</time>
      </trkpt>
      <trkpt lat="43.69641" lon="3.4129">
        <ele>161.1</ele>
        <time>2016-05-01T08:41:19Z</time>
      </trkpt>
      <trkpt lat="43.6965" lon="3.41289">
        <ele>161.1</ele>
        <time>2016-05-01T08:41:22Z</time>
      </trkpt>
      <trkpt lat="43.69659" lon="3.41286">
        <ele>161.3</ele>
        <time>2016-05-01T08:41:25Z</time>
      </trkpt>
      <trkpt lat="43.69667" lon="3.41286">
        <ele>161.6</ele>
        <time>2016-05-01T08:41:28Z</time>
      </trkpt>
      <trkpt lat="43.69677" lon="3.4129">
        <ele>161.9</ele>
        <time>2016-05-01T08:41:31Z</time>
      </trkpt>
      <trkpt lat="43.69685" lon="3.41296">
        <ele>162.3</ele>
        <time>2016-05-01T08:41:34Z</time>
      </trkpt>
      <trkpt lat="43.69693" lon="3.41299">
        <ele>162.6</ele>
        <time>2016-05-01T08:41:37Z</time>
      </trkpt>
      <trkpt lat="43.697" lon="3.41301">
        <ele>163</ele>
        <time>2016-05-01T08:41:40Z</time>
      </trkpt>
      <trkpt lat="43.69708" lon="3.413">
        <ele>163.4</ele>
        <time>2016-05-01T08:41:44Z</time>
      </trkpt>
      <trkpt lat="43.69716" lon="3.41299">
        <ele>163.8</ele>
        <time>2016-05-01T08:41:48Z</time>
      </trkpt>
      <trkpt lat="43.69725" lon="3.41297">
        <ele>164.1</ele>
        <time>2016-05-01T08:41:52Z</time>
      </trkpt>
      <trkpt lat="43.69734" lon="3.41295">
        <ele>164.4</ele>
        <time>2016-05-01T08:41:56Z</time>
      </trkpt>
      <trkpt lat="43.69742" lon="3.41293">
        <ele>164.6</ele>
        <time>2016-05-01T08:42:00Z</time>
      </trkpt>
      <trkpt lat="43.69749" lon="3.41291">
        <ele>165.2</ele>
        <time>2016-05-01T08:42:04Z</time>
      </trkpt>
      <trkpt lat="43.69756" lon="3.41289">
        <ele>165.9</ele>
        <time>2016-05-01T08:42:08Z</time>
      </trkpt>
      <trkpt lat="43.69765" lon="3.41286">
        <ele>166.2</ele>
        <time>2016-05-01T08:42:11Z</time>
      </trkpt>
      <trkpt lat="43.69773" lon="3.41283">
        <ele>166.5</ele>
        <time>2016-05-01T08:42:15Z</time>
      </trkpt>
      <trkpt lat="43.69781" lon="3.41281">
        <ele>166.7</ele>
        <time>2016-05-01T08:42:19Z</time>
      </trkpt>
      <trkpt lat="43.69789" lon="3.41276">
        <ele>167</ele>
        <time>2016-05-01T08:42:23Z</time>
      </trkpt>
      <trkpt lat="43.69796" lon="3.41274">
        <ele>167.4</ele>
        <time>2016-05-01T08:42:27Z</time>
      </trkpt>
      <trkpt lat="43.69805" lon="3.41277">
        <ele>167.9</ele>
        <time>2016-05-01T08:42:31Z</time>
      </trkpt>
      <trkpt lat="43.69812" lon="3.4128">
        <ele>168.4</ele>
        <time>2016-05-01T08:42:34Z</time>
      </trkpt>
      <trkpt lat="43.6982" lon="3.41282">
        <ele>168.7</ele>
        <time>2016-05-01T08:42:37Z</time>
      </trkpt>
      <trkpt lat="43.69829" lon="3.41288">
        <ele>169.3</ele>
        <time>2016-05-01T08:42:42Z</time>
      </trkpt>
      <trkpt lat="43.69837" lon="3.41293">
        <ele>169.9</ele>
        <time>2016-05-01T08:42:46Z</time>
      </trkpt>
      <trkpt lat="43.69843" lon="3.41299">
        <ele>170.7</ele>
        <time>2016-05-01T08:42:50Z</time>
      </trkpt>
      <trkpt lat="43.6985" lon="3.41305">
        <ele>171.4</ele>
        <time>2016-05-01T08:42:54Z</time>
      </trkpt>
      <trkpt lat="43.69856" lon="3.4131">
        <ele>172.1</ele>
        <time>2016-05-01T08:42:58Z</time>
      </trkpt>
      <trkpt lat="43.69863" lon="3.41315">
        <ele>172.9</ele>
        <time>2016-05-01T08:43:02Z</time>
      </trkpt>
      <trkpt lat="43.6987" lon="3.4132">
        <ele>173.8</ele>
        <time>2016-05-01T08:43:07Z</time>
      </trkpt>
      <trkpt lat="43.69877" lon="3.41325">
        <ele>175</ele>
        <time>2016-05-01T08:43:12Z</time>
      </trkpt>
      <trkpt lat="43.69885" lon="3.4133">
        <ele>176.1</ele>
        <time>2016-05-01T08:43:17Z</time>
      </trkpt>
      <trkpt lat="43.69892" lon="3.41335">
        <ele>177.1</ele>
        <time>2016-05-01T08:43:22Z</time>
      </trkpt>
      <trkpt lat="43.699" lon="3.41337">
        <ele>178.2</ele>
        <time>2016-05-01T08:43:27Z</time>
      </trkpt>
      <trkpt lat="43.69908" lon="3.41337">
        <ele>179.3</ele>
        <time>2016-05-01T08:43:32Z</time>
      </trkpt>
      <trkpt lat="43.69917" lon="3.41339">
        <ele>180.1</ele>
        <time>2016-05-01T08:43:37Z</time>
      </trkpt>
      <trkpt lat="43.69925" lon="3.41341">
        <ele>180.6</ele>
        <time>2016-05-01T08:43:41Z</time>
      </trkpt>
      <trkpt lat="43.69935" lon="3.4134">
        <ele>181.2</ele>
        <time>2016-05-01T08:43:46Z</time>
      </trkpt>
      <trkpt lat="43.69943" lon="3.4134">
        <ele>182.3</ele>
        <time>2016-05-01T08:43:51Z</time>
      </trkpt>
      <trkpt lat="43.6995" lon="3.41342">
        <ele>183.8</ele>
        <time>2016-05-01T08:43:58Z</time>
      </trkpt>
      <trkpt lat="43.69956" lon="3.41351">
        <ele>185.2</ele>
        <time>2016-05-01T08:44:04Z</time>
      </trkpt>
      <trkpt lat="43.69958" lon="3.41361">
        <ele>186.2</ele>
        <time>2016-05-01T08:44:09Z</time>
      </trkpt>
      <trkpt lat="43.69958" lon="3.41372">
        <ele>186.9</ele>
        <time>2016-05-01T08:44:14Z</time>
      </trkpt>
      <trkpt lat="43.69963" lon="3.41383">
        <ele>187.8</ele>
        <time>2016-05-01T08:44:20Z</time>
      </trkpt>
      <trkpt lat="43.6997" lon="3.41389">
        <ele>188.4</ele>
        <time>2016-05-01T08:44:25Z</time>
      </trkpt>
      <trkpt lat="43.69977" lon="3.41393">
        <ele>189.2</ele>
        <time>2016-05-01T08:44:30Z</time>
      </trkpt>
      <trkpt lat="43.69985" lon="3.41397">
        <ele>190.1</ele>
        <time>2016-05-01T08:44:35Z</time>
      </trkpt>
      <trkpt lat="43.69993" lon="3.414">
        <ele>190.8</ele>
        <time>2016-05-01T08:44:40Z</time>
      </trkpt>
      <trkpt lat="43.70001" lon="3.41401">
        <ele>191.5</ele>
        <time>2016-05-01T08:44:45Z</time>
      </trkpt>
      <trkpt lat="43.70008" lon="3.41406">
        <ele>192.4</ele>
        <time>2016-05-01T08:44:50Z</time>
      </trkpt>
      <trkpt lat="43.70015" lon="3.41409">
        <ele>193.3</ele>
        <time>2016-05-01T08:44:54Z</time>
      </trkpt>
      <trkpt lat="43.70023" lon="3.41412">
        <ele>194.6</ele>
        <time>2016-05-01T08:44:59Z</time>
      </trkpt>
      <trkpt lat="43.70031" lon="3.41415">
        <ele>195.4</ele>
        <time>2016-05-01T08:45:03Z</time>
      </trkpt>
      <trkpt lat="43.70039" lon="3.4142">
        <ele>196.3</ele>
        <time>2016-05-01T08:45:08Z</time>
      </trkpt>
      <trkpt lat="43.70045" lon="3.41426">
        <ele>196.9</ele>
        <time>2016-05-01T08:45:12Z</time>
      </trkpt>
      <trkpt lat="43.70054" lon="3.41426">
        <ele>198</ele>
        <time>2016-05-01T08:45:19Z</time>
      </trkpt>
      <trkpt lat="43.70063" lon="3.41428">
        <ele>199</ele>
        <time>2016-05-01T08:45:23Z</time>
      </trkpt>
      <trkpt lat="43.70071" lon="3.41423">
        <ele>200</ele>
        <time>2016-05-01T08:45:28Z</time>
      </trkpt>
      <trkpt lat="43.70078" lon="3.41421">
        <ele>200.7</ele>
        <time>2016-05-01T08:45:32Z</time>
      </trkpt>
      <trkpt lat="43.70086" lon="3.4142">
        <ele>201</ele>
        <time>2016-05-01T08:45:35Z</time>
      </trkpt>
      <trkpt lat="43.70095" lon="3.41421">
        <ele>201.3</ele>
        <time>2016-05-01T08:45:39Z</time>
      </trkpt>
      <trkpt lat="43.70103" lon="3.4142">
        <ele>201.5</ele>
        <time>2016-05-01T08:45:42Z</time>
      </trkpt>
      <trkpt lat="43.70112" lon="3.41419">
        <ele>201.8</ele>
        <time>2016-05-01T08:45:45Z</time>
      </trkpt>
      <trkpt lat="43.70121" lon="3.41419">
        <ele>202</ele>
        <time>2016-05-01T08:45:48Z</time>
      </trkpt>
      <trkpt lat="43.7013" lon="3.41423">
        <ele>202.2</ele>
        <time>2016-05-01T08:45:52Z</time>
      </trkpt>
      <trkpt lat="43.70139" lon="3.41429">
        <ele>203.8</ele>
        <time>2016-05-01T08:45:55Z</time>
      </trkpt>
      <trkpt lat="43.70147" lon="3.41437">
        <ele>206</ele>
        <time>2016-05-01T08:45:57Z</time>
      </trkpt>
      <trkpt lat="43.70156" lon="3.41446">
        <ele>207.3</ele>
        <time>2016-05-01T08:45:59Z</time>
      </trkpt>
      <trkpt lat="43.70166" lon="3.41457">
        <ele>208.8</ele>
        <time>2016-05-01T08:46:01Z</time>
      </trkpt>
      <trkpt lat="43.70175" lon="3.41466">
        <ele>209</ele>
        <time>2016-05-01T08:46:03Z</time>
      </trkpt>
      <trkpt lat="43.70183" lon="3.41474">
        <ele>210.5</ele>
        <time>2016-05-01T08:46:05Z</time>
      </trkpt>
      <trkpt lat="43.70191" lon="3.41477">
        <ele>211.4</ele>
        <time>2016-05-01T08:46:07Z</time>
      </trkpt>
      <trkpt lat="43.702" lon="3.41482">
        <ele>212</ele>
        <time>2016-05-01T08:46:09Z</time>
      </trkpt>
      <trkpt lat="43.70208" lon="3.41488">
        <ele>211.9</ele>
        <time>2016-05-01T08:46:11Z</time>
      </trkpt>
      <trkpt lat="43.70218" lon="3.41491">
        <ele>212</ele>
        <time>2016-05-01T08:46:14Z</time>
      </trkpt>
      <trkpt lat="43.70228" lon="3.41496">
        <ele>210.9</ele>
        <time>2016-05-01T08:46:17Z</time>
      </trkpt>
      <trkpt lat="43.70237" lon="3.41502">
        <ele>210.8</ele>
        <time>2016-05-01T08:46:20Z</time>
      </trkpt>
      <trkpt lat="43.70247" lon="3.41508">
        <ele>210.8</ele>
        <time>2016-05-01T08:46:23Z</time>
      </trkpt>
      <trkpt lat="43.70253" lon="3.41513">
        <ele>210.7</ele>
        <time>2016-05-01T08:46:25Z</time>
      </trkpt>
      <trkpt lat="43.70259" lon="3.4152">
        <ele>210.6</ele>
        <time>2016-05-01T08:46:27Z</time>
      </trkpt>
      <trkpt lat="43.70267" lon="3.41527">
        <ele>210.6</ele>
        <time>2016-05-01T08:46:29Z</time>
      </trkpt>
      <trkpt lat="43.70274" lon="3.41537">
        <ele>210.5</ele>
        <time>2016-05-01T08:46:32Z</time>
      </trkpt>
      <trkpt lat="43.70279" lon="3.41545">
        <ele>210.5</ele>
        <time>2016-05-01T08:46:34Z</time>
      </trkpt>
      <trkpt lat="43.70285" lon="3.41551">
        <ele>209.4</ele>
        <time>2016-05-01T08:46:36Z</time>
      </trkpt>
      <trkpt lat="43.70294" lon="3.41559">
        <ele>209.1</ele>
        <time>2016-05-01T08:46:39Z</time>
      </trkpt>
      <trkpt lat="43.70302" lon="3.41566">
        <ele>208.2</ele>
        <time>2016-05-01T08:46:42Z</time>
      </trkpt>
      <trkpt lat="43.70313" lon="3.4157">
        <ele>208.5</ele>
        <time>2016-05-01T08:46:45Z</time>
      </trkpt>
      <trkpt lat="43.7032" lon="3.41573">
        <ele>208.3</ele>
        <time>2016-05-01T08:46:47Z</time>
      </trkpt>
      <trkpt lat="43.7033" lon="3.41576">
        <ele>208</ele>
        <time>2016-05-01T08:46:49Z</time>
      </trkpt>
      <trkpt lat="43.70338" lon="3.41577">
        <ele>207.9</ele>
        <time>2016-05-01T08:46:51Z</time>
      </trkpt>
      <trkpt lat="43.70347" lon="3.41578">
        <ele>207.9</ele>
        <time>2016-05-01T08:46:53Z</time>
      </trkpt>
      <trkpt lat="43.70354" lon="3.41579">
        <ele>208</ele>
        <time>2016-05-01T08:46:55Z</time>
      </trkpt>
      <trkpt lat="43.70362" lon="3.4158">
        <ele>207.9</ele>
        <time>2016-05-01T08:46:57Z</time>
      </trkpt>
      <trkpt lat="43.70371" lon="3.41579">
        <ele>207.4</ele>
        <time>2016-05-01T08:46:59Z</time>
      </trkpt>
      <trkpt lat="43.7038" lon="3.41582">
        <ele>206.5</ele>
        <time>2016-05-01T08:47:01Z</time>
      </trkpt>
      <trkpt lat="43.70388" lon="3.41585">
        <ele>206</ele>
        <time>2016-05-01T08:47:03Z</time>
      </trkpt>
      <trkpt lat="43.70396" lon="3.41594">
        <ele>206.2</ele>
        <time>2016-05-01T08:47:05Z</time>
      </trkpt>
      <trkpt lat="43.70403" lon="3.41598">
        <ele>206.7</ele>
        <time>2016-05-01T08:47:07Z</time>
      </trkpt>
      <trkpt lat="43.70409" lon="3.41603">
        <ele>206.7</ele>
        <time>2016-05-01T08:47:09Z</time>
      </trkpt>
      <trkpt lat="43.70418" lon="3.4161">
        <ele>207.4</ele>
        <time>2016-05-01T08:47:11Z</time>
      </trkpt>
      <trkpt lat="43.70427" lon="3.41614">
        <ele>207.3</ele>
        <time>2016-05-01T08:47:13Z</time>
      </trkpt>
      <trkpt lat="43.70436" lon="3.41621">
        <ele>206.5</ele>
        <time>2016-05-01T08:47:15Z</time>
      </trkpt>
      <trkpt lat="43.70445" lon="3.41626">
        <ele>205.5</ele>
        <time>2016-05-01T08:47:17Z</time>
      </trkpt>
      <trkpt lat="43.70455" lon="3.41632">
        <ele>204.4</ele>
        <time>2016-05-01T08:47:19Z</time>
      </trkpt>
      <trkpt lat="43.70463" lon="3.41638">
        <ele>204.2</ele>
        <time>2016-05-01T08:47:21Z</time>
      </trkpt>
      <trkpt lat="43.70471" lon="3.41642">
        <ele>204</ele>
        <time>2016-05-01T08:47:23Z</time>
      </trkpt>
      <trkpt lat="43.7048" lon="3.41648">
        <ele>204.5</ele>
        <time>2016-05-01T08:47:25Z</time>
      </trkpt>
      <trkpt lat="43.70488" lon="3.41653">
        <ele>204.9</ele>
        <time>2016-05-01T08:47:27Z</time>
      </trkpt>
      <trkpt lat="43.70496" lon="3.41658">
        <ele>206.5</ele>
        <time>2016-05-01T08:47:29Z</time>
      </trkpt>
      <trkpt lat="43.70503" lon="3.41662">
        <ele>208.4</ele>
        <time>2016-05-01T08:47:31Z</time>
      </trkpt>
      <trkpt lat="43.7051" lon="3.41665">
        <ele>208.7</ele>
        <time>2016-05-01T08:47:33Z</time>
      </trkpt>
      <trkpt lat="43.70518" lon="3.41668">
        <ele>209.8</ele>
        <time>2016-05-01T08:47:35Z</time>
      </trkpt>
      <trkpt lat="43.70525" lon="3.4167">
        <ele>211.2</ele>
        <time>2016-05-01T08:47:37Z</time>
      </trkpt>
      <trkpt lat="43.70534" lon="3.41672">
        <ele>211.4</ele>
        <time>2016-05-01T08:47:40Z</time>
      </trkpt>
      <trkpt lat="43.70543" lon="3.41676">
        <ele>211.3</ele>
        <time>2016-05-01T08:47:43Z</time>
      </trkpt>
      <trkpt lat="43.70553" lon="3.4168">
        <ele>211.4</ele>
        <time>2016-05-01T08:47:46Z</time>
      </trkpt>
      <trkpt lat="43.70564" lon="3.41685">
        <ele>211.3</ele>
        <time>2016-05-01T08:47:49Z</time>
      </trkpt>
      <trkpt lat="43.70572" lon="3.41689">
        <ele>211.4</ele>
        <time>2016-05-01T08:47:52Z</time>
      </trkpt>
      <trkpt lat="43.70579" lon="3.41694">
        <ele>211.5</ele>
        <time>2016-05-01T08:47:55Z</time>
      </trkpt>
      <trkpt lat="43.70588" lon="3.41698">
        <ele>211.7</ele>
        <time>2016-05-01T08:47:58Z</time>
      </trkpt>
      <trkpt lat="43.70597" lon="3.41702">
        <ele>212</ele>
        <time>2016-05-01T08:48:02Z</time>
      </trkpt>
      <trkpt lat="43.70607" lon="3.41707">
        <ele>212.2</ele>
        <time>2016-05-01T08:48:05Z</time>
      </trkpt>
      <trkpt lat="43.70616" lon="3.41711">
        <ele>212.2</ele>
        <time>2016-05-01T08:48:08Z</time>
      </trkpt>
      <trkpt lat="43.70624" lon="3.41716">
        <ele>212.3</ele>
        <time>2016-05-01T08:48:11Z</time>
      </trkpt>
      <trkpt lat="43.70632" lon="3.4172">
        <ele>212.5</ele>
        <time>2016-05-01T08:48:13Z</time>
      </trkpt>
      <trkpt lat="43.70641" lon="3.41723">
        <ele>212</ele>
        <time>2016-05-01T08:48:15Z</time>
      </trkpt>
      <trkpt lat="43.70652" lon="3.41729">
        <ele>211.2</ele>
        <time>2016-05-01T08:48:17Z</time>
      </trkpt>
      <trkpt lat="43.70663" lon="3.41734">
        <ele>211.3</ele>
        <time>2016-05-01T08:48:19Z</time>
      </trkpt>
      <trkpt lat="43.70672" lon="3.41739">
        <ele>211.2</ele>
        <time>2016-05-01T08:48:21Z</time>
      </trkpt>
      <trkpt lat="43.7068" lon="3.41742">
        <ele>212</ele>
        <time>2016-05-01T08:48:23Z</time>
      </trkpt>
      <trkpt lat="43.70689" lon="3.41747">
        <ele>213.3</ele>
        <time>2016-05-01T08:48:25Z</time>
      </trkpt>
      <trkpt lat="43.70698" lon="3.4175">
        <ele>214.2</ele>
        <time>2016-05-01T08:48:27Z</time>
      </trkpt>
      <trkpt lat="43.70706" lon="3.41755">
        <ele>213.5</ele>
        <time>2016-05-01T08:48:29Z</time>
      </trkpt>
      <trkpt lat="43.70715" lon="3.41758">
        <ele>213.1</ele>
        <time>2016-05-01T08:48:31Z</time>
      </trkpt>
      <trkpt lat="43.70722" lon="3.41763">
        <ele>213.7</ele>
        <time>2016-05-01T08:48:33Z</time>
      </trkpt>
      <trkpt lat="43.7073" lon="3.4177">
        <ele>214.1</ele>
        <time>2016-05-01T08:48:35Z</time>
      </trkpt>
      <trkpt lat="43.70738" lon="3.41777">
        <ele>212.7</ele>
        <time>2016-05-01T08:48:37Z</time>
      </trkpt>
      <trkpt lat="43.70746" lon="3.41784">
        <ele>212.1</ele>
        <time>2016-05-01T08:48:39Z</time>
      </trkpt>
      <trkpt lat="43.70756" lon="3.41793">
        <ele>212.2</ele>
        <time>2016-05-01T08:48:41Z</time>
      </trkpt>
      <trkpt lat="43.70767" lon="3.41802">
        <ele>211.8</ele>
        <time>2016-05-01T08:48:43Z</time>
      </trkpt>
      <trkpt lat="43.70779" lon="3.41809">
        <ele>211.9</ele>
        <time>2016-05-01T08:48:45Z</time>
      </trkpt>
      <trkpt lat="43.70792" lon="3.41818">
        <ele>209.3</ele>
        <time>2016-05-01T08:48:47Z</time>
      </trkpt>
      <trkpt lat="43.70799" lon="3.41823">
        <ele>208.3</ele>
        <time>2016-05-01T08:48:48Z</time>
      </trkpt>
      <trkpt lat="43.70811" lon="3.41831">
        <ele>206.7</ele>
        <time>2016-05-01T08:48:50Z</time>
      </trkpt>
      <trkpt lat="43.70821" lon="3.41839">
        <ele>205.1</ele>
        <time>2016-05-01T08:48:52Z</time>
      </trkpt>
      <trkpt lat="43.70832" lon="3.41846">
        <ele>204.6</ele>
        <time>2016-05-01T08:48:54Z</time>
      </trkpt>
      <trkpt lat="43.70844" lon="3.41852">
        <ele>203.9</ele>
        <time>2016-05-01T08:48:56Z</time>
      </trkpt>
      <trkpt lat="43.70853" lon="3.4186">
        <ele>203.4</ele>
        <time>2016-05-01T08:48:58Z</time>
      </trkpt>
      <trkpt lat="43.70862" lon="3.41869">
        <ele>203.8</ele>
        <time>2016-05-01T08:49:00Z</time>
      </trkpt>
      <trkpt lat="43.70868" lon="3.41881">
        <ele>203.2</ele>
        <time>2016-05-01T08:49:02Z</time>
      </trkpt>
      <trkpt lat="43.70875" lon="3.41897">
        <ele>202.4</ele>
        <time>2016-05-01T08:49:04Z</time>
      </trkpt>
      <trkpt lat="43.7088" lon="3.41911">
        <ele>201.9</ele>
        <time>2016-05-01T08:49:06Z</time>
      </trkpt>
      <trkpt lat="43.70884" lon="3.41925">
        <ele>200.6</ele>
        <time>2016-05-01T08:49:08Z</time>
      </trkpt>
      <trkpt lat="43.70886" lon="3.41938">
        <ele>199.6</ele>
        <time>2016-05-01T08:49:10Z</time>
      </trkpt>
      <trkpt lat="43.70889" lon="3.41953">
        <ele>199</ele>
        <time>2016-05-01T08:49:12Z</time>
      </trkpt>
      <trkpt lat="43.7089" lon="3.41965">
        <ele>198.2</ele>
        <time>2016-05-01T08:49:14Z</time>
      </trkpt>
      <trkpt lat="43.70891" lon="3.41979">
        <ele>197.7</ele>
        <time>2016-05-01T08:49:16Z</time>
      </trkpt>
      <trkpt lat="43.70895" lon="3.41994">
        <ele>198.9</ele>
        <time>2016-05-01T08:49:18Z</time>
      </trkpt>
      <trkpt lat="43.70897" lon="3.42008">
        <ele>200.4</ele>
        <time>2016-05-01T08:49:20Z</time>
      </trkpt>
      <trkpt lat="43.70898" lon="3.42021">
        <ele>201.2</ele>
        <time>2016-05-01T08:49:22Z</time>
      </trkpt>
      <trkpt lat="43.709" lon="3.42036">
        <ele>201.3</ele>
        <time>2016-05-01T08:49:24Z</time>
      </trkpt>
      <trkpt lat="43.70901" lon="3.4205">
        <ele>201.1</ele>
        <time>2016-05-01T08:49:26Z</time>
      </trkpt>
      <trkpt lat="43.70904" lon="3.42067">
        <ele>200.8</ele>
        <time>2016-05-01T08:49:28Z</time>
      </trkpt>
      <trkpt lat="43.70906" lon="3.42079">
        <ele>200.6</ele>
        <time>2016-05-01T08:49:30Z</time>
      </trkpt>
      <trkpt lat="43.70914" lon="3.4209">
        <ele>199.9</ele>
        <time>2016-05-01T08:49:32Z</time>
      </trkpt>
      <trkpt lat="43.70923" lon="3.42098">
        <ele>199.5</ele>
        <time>2016-05-01T08:49:34Z</time>
      </trkpt>
      <trkpt lat="43.70931" lon="3.42106">
        <ele>199.2</ele>
        <time>2016-05-01T08:49:36Z</time>
      </trkpt>
      <trkpt lat="43.70941" lon="3.42115">
        <ele>198.9</ele>
        <time>2016-05-01T08:49:38Z</time>
      </trkpt>
      <trkpt lat="43.70951" lon="3.42123">
        <ele>199.9</ele>
        <time>2016-05-01T08:49:40Z</time>
      </trkpt>
      <trkpt lat="43.70959" lon="3.42129">
        <ele>201.1</ele>
        <time>2016-05-01T08:49:42Z</time>
      </trkpt>
      <trkpt lat="43.70966" lon="3.42133">
        <ele>202.2</ele>
        <time>2016-05-01T08:49:44Z</time>
      </trkpt>
      <trkpt lat="43.70975" lon="3.42138">
        <ele>203.3</ele>
        <time>2016-05-01T08:49:46Z</time>
      </trkpt>
      <trkpt lat="43.70983" lon="3.42142">
        <ele>203.6</ele>
        <time>2016-05-01T08:49:48Z</time>
      </trkpt>
      <trkpt lat="43.70993" lon="3.42146">
        <ele>202.5</ele>
        <time>2016-05-01T08:49:50Z</time>
      </trkpt>
      <trkpt lat="43.71002" lon="3.4215">
        <ele>202.1</ele>
        <time>2016-05-01T08:49:52Z</time>
      </trkpt>
      <trkpt lat="43.71009" lon="3.42152">
        <ele>202.7</ele>
        <time>2016-05-01T08:49:54Z</time>
      </trkpt>
      <trkpt lat="43.71016" lon="3.42154">
        <ele>203</ele>
        <time>2016-05-01T08:49:56Z</time>
      </trkpt>
      <trkpt lat="43.71027" lon="3.42159">
        <ele>203</ele>
        <time>2016-05-01T08:49:59Z</time>
      </trkpt>
      <trkpt lat="43.71034" lon="3.42165">
        <ele>203.1</ele>
        <time>2016-05-01T08:50:02Z</time>
      </trkpt>
      <trkpt lat="43.71045" lon="3.42169">
        <ele>202.7</ele>
        <time>2016-05-01T08:50:05Z</time>
      </trkpt>
      <trkpt lat="43.71052" lon="3.42173">
        <ele>202.8</ele>
        <time>2016-05-01T08:50:07Z</time>
      </trkpt>
      <trkpt lat="43.71059" lon="3.42178">
        <ele>203.6</ele>
        <time>2016-05-01T08:50:09Z</time>
      </trkpt>
      <trkpt lat="43.71068" lon="3.42182">
        <ele>203.9</ele>
        <time>2016-05-01T08:50:11Z</time>
      </trkpt>
      <trkpt lat="43.71076" lon="3.42185">
        <ele>204</ele>
        <time>2016-05-01T08:50:13Z</time>
      </trkpt>
      <trkpt lat="43.71083" lon="3.42189">
        <ele>204.2</ele>
        <time>2016-05-01T08:50:15Z</time>
      </trkpt>
      <trkpt lat="43.71094" lon="3.42192">
        <ele>204.4</ele>
        <time>2016-05-01T08:50:19Z</time>
      </trkpt>
      <trkpt lat="43.71101" lon="3.42196">
        <ele>204.6</ele>
        <time>2016-05-01T08:50:21Z</time>
      </trkpt>
      <trkpt lat="43.7111" lon="3.42197">
        <ele>204.7</ele>
        <time>2016-05-01T08:50:24Z</time>
      </trkpt>
      <trkpt lat="43.7112" lon="3.42198">
        <ele>204.7</ele>
        <time>2016-05-01T08:50:27Z</time>
      </trkpt>
      <trkpt lat="43.71128" lon="3.422">
        <ele>205.1</ele>
        <time>2016-05-01T08:50:29Z</time>
      </trkpt>
      <trkpt lat="43.71138" lon="3.42203">
        <ele>206</ele>
        <time>2016-05-01T08:50:32Z</time>
      </trkpt>
      <trkpt lat="43.71148" lon="3.42206">
        <ele>206.6</ele>
        <time>2016-05-01T08:50:35Z</time>
      </trkpt>
      <trkpt lat="43.71157" lon="3.42205">
        <ele>206.8</ele>
        <time>2016-05-01T08:50:38Z</time>
      </trkpt>
      <trkpt lat="43.71168" lon="3.42205">
        <ele>207</ele>
        <time>2016-05-01T08:50:41Z</time>
      </trkpt>
      <trkpt lat="43.71175" lon="3.42205">
        <ele>207.2</ele>
        <time>2016-05-01T08:50:43Z</time>
      </trkpt>
      <trkpt lat="43.71182" lon="3.42203">
        <ele>207.4</ele>
        <time>2016-05-01T08:50:45Z</time>
      </trkpt>
      <trkpt lat="43.7119" lon="3.422">
        <ele>207.7</ele>
        <time>2016-05-01T08:50:48Z</time>
      </trkpt>
      <trkpt lat="43.712" lon="3.42198">
        <ele>208</ele>
        <time>2016-05-01T08:50:51Z</time>
      </trkpt>
      <trkpt lat="43.71209" lon="3.42196">
        <ele>208.3</ele>
        <time>2016-05-01T08:50:54Z</time>
      </trkpt>
      <trkpt lat="43.71217" lon="3.42194">
        <ele>208.7</ele>
        <time>2016-05-01T08:50:57Z</time>
      </trkpt>
      <trkpt lat="43.71226" lon="3.42193">
        <ele>208.9</ele>
        <time>2016-05-01T08:51:00Z</time>
      </trkpt>
      <trkpt lat="43.71233" lon="3.42193">
        <ele>209.1</ele>
        <time>2016-05-01T08:51:02Z</time>
      </trkpt>
      <trkpt lat="43.71241" lon="3.42192">
        <ele>209.4</ele>
        <time>2016-05-01T08:51:04Z</time>
      </trkpt>
      <trkpt lat="43.71248" lon="3.42191">
        <ele>209.7</ele>
        <time>2016-05-01T08:51:06Z</time>
      </trkpt>
      <trkpt lat="43.71255" lon="3.4219">
        <ele>209.9</ele>
        <time>2016-05-01T08:51:08Z</time>
      </trkpt>
      <trkpt lat="43.71263" lon="3.4219">
        <ele>210.1</ele>
        <time>2016-05-01T08:51:11Z</time>
      </trkpt>
      <trkpt lat="43.71271" lon="3.4219">
        <ele>210.1</ele>
        <time>2016-05-01T08:51:14Z</time>
      </trkpt>
      <trkpt lat="43.71279" lon="3.4219">
        <ele>210.3</ele>
        <time>2016-05-01T08:51:17Z</time>
      </trkpt>
      <trkpt lat="43.71287" lon="3.4219">
        <ele>210.4</ele>
        <time>2016-05-01T08:51:20Z</time>
      </trkpt>
      <trkpt lat="43.71296" lon="3.42189">
        <ele>210.7</ele>
        <time>2016-05-01T08:51:24Z</time>
      </trkpt>
      <trkpt lat="43.71304" lon="3.42186">
        <ele>211</ele>
        <time>2016-05-01T08:51:28Z</time>
      </trkpt>
      <trkpt lat="43.71311" lon="3.42185">
        <ele>211.3</ele>
        <time>2016-05-01T08:51:31Z</time>
      </trkpt>
      <trkpt lat="43.7132" lon="3.42185">
        <ele>211.7</ele>
        <time>2016-05-01T08:51:35Z</time>
      </trkpt>
      <trkpt lat="43.71328" lon="3.42183">
        <ele>212</ele>
        <time>2016-05-01T08:51:39Z</time>
      </trkpt>
      <trkpt lat="43.71336" lon="3.4218">
        <ele>212</ele>
        <time>2016-05-01T08:51:42Z</time>
      </trkpt>
      <trkpt lat="43.71343" lon="3.42177">
        <ele>212.3</ele>
        <time>2016-05-01T08:51:45Z</time>
      </trkpt>
      <trkpt lat="43.7135" lon="3.42186">
        <ele>213.2</ele>
        <time>2016-05-01T08:51:49Z</time>
      </trkpt>
      <trkpt lat="43.71354" lon="3.42197">
        <ele>213.5</ele>
        <time>2016-05-01T08:51:51Z</time>
      </trkpt>
      <trkpt lat="43.71358" lon="3.42207">
        <ele>213.8</ele>
        <time>2016-05-01T08:51:53Z</time>
      </trkpt>
      <trkpt lat="43.71361" lon="3.42221">
        <ele>214</ele>
        <time>2016-05-01T08:51:56Z</time>
      </trkpt>
      <trkpt lat="43.71362" lon="3.42232">
        <ele>214.1</ele>
        <time>2016-05-01T08:51:58Z</time>
      </trkpt>
      <trkpt lat="43.71365" lon="3.42242">
        <ele>214</ele>
        <time>2016-05-01T08:52:01Z</time>
      </trkpt>
      <trkpt lat="43.71367" lon="3.42256">
        <ele>213.8</ele>
        <time>2016-05-01T08:52:04Z</time>
      </trkpt>
      <trkpt lat="43.71373" lon="3.42266">
        <ele>213.9</ele>
        <time>2016-05-01T08:52:07Z</time>
      </trkpt>
      <trkpt lat="43.71381" lon="3.42274">
        <ele>214.6</ele>
        <time>2016-05-01T08:52:10Z</time>
      </trkpt>
      <trkpt lat="43.71388" lon="3.42268">
        <ele>215.1</ele>
        <time>2016-05-01T08:52:15Z</time>
      </trkpt>
      <trkpt lat="43.71396" lon="3.42262">
        <ele>215.5</ele>
        <time>2016-05-01T08:52:18Z</time>
      </trkpt>
      <trkpt lat="43.71403" lon="3.42257">
        <ele>215.6</ele>
        <time>2016-05-01T08:52:21Z</time>
      </trkpt>
      <trkpt lat="43.7141" lon="3.42252">
        <ele>215.6</ele>
        <time>2016-05-01T08:52:24Z</time>
      </trkpt>
      <trkpt lat="43.71418" lon="3.4225">
        <ele>215.9</ele>
        <time>2016-05-01T08:52:28Z</time>
      </trkpt>
      <trkpt lat="43.71425" lon="3.42246">
        <ele>216.1</ele>
        <time>2016-05-01T08:52:32Z</time>
      </trkpt>
      <trkpt lat="43.71433" lon="3.42251">
        <ele>216.2</ele>
        <time>2016-05-01T08:52:35Z</time>
      </trkpt>
      <trkpt lat="43.7144" lon="3.42257">
        <ele>216.1</ele>
        <time>2016-05-01T08:52:38Z</time>
      </trkpt>
      <trkpt lat="43.71447" lon="3.42254">
        <ele>216.5</ele>
        <time>2016-05-01T08:52:43Z</time>
      </trkpt>
      <trkpt lat="43.71449" lon="3.42265">
        <ele>216.8</ele>
        <time>2016-05-01T08:52:50Z</time>
      </trkpt>
      <trkpt lat="43.71453" lon="3.42274">
        <ele>216.9</ele>
        <time>2016-05-01T08:52:54Z</time>
      </trkpt>
      <trkpt lat="43.71455" lon="3.42284">
        <ele>216.8</ele>
        <time>2016-05-01T08:52:57Z</time>
      </trkpt>
      <trkpt lat="43.71459" lon="3.42295">
        <ele>217.1</ele>
        <time>2016-05-01T08:53:02Z</time>
      </trkpt>
      <trkpt lat="43.71459" lon="3.42305">
        <ele>217.3</ele>
        <time>2016-05-01T08:53:05Z</time>
      </trkpt>
      <trkpt lat="43.71452" lon="3.42312">
        <ele>217.3</ele>
        <time>2016-05-01T08:53:10Z</time>
      </trkpt>
      <trkpt lat="43.7145" lon="3.42312">
        <ele>217.6</ele>
        <time>2016-05-01T08:53:17Z</time>
      </trkpt>
      <trkpt lat="43.71441" lon="3.42313">
        <ele>215.2</ele>
        <time>2016-05-01T08:54:38Z</time>
      </trkpt>
      <trkpt lat="43.71436" lon="3.42319">
        <ele>213.3</ele>
        <time>2016-05-01T08:54:51Z</time>
      </trkpt>
      <trkpt lat="43.71432" lon="3.42322">
        <ele>212.5</ele>
        <time>2016-05-01T08:55:05Z</time>
      </trkpt>
      <trkpt lat="43.71428" lon="3.42326">
        <ele>212.2</ele>
        <time>2016-05-01T08:55:12Z</time>
      </trkpt>
      <trkpt lat="43.71428" lon="3.42328">
        <ele>211.4</ele>
        <time>2016-05-01T08:55:26Z</time>
      </trkpt>
      <trkpt lat="43.71427" lon="3.42326">
        <ele>211.6</ele>
        <time>2016-05-01T08:55:33Z</time>
      </trkpt>
      <trkpt lat="43.71427" lon="3.42323">
        <ele>213.4</ele>
        <time>2016-05-01T08:55:59Z</time>
      </trkpt>
    </trkseg>
  </trk>
</gpx>